[[{"header":{"parameterUnit":"m.s-1","parameterCategory":1,"la1":31.0,"la2":29.5877,"lo1":-88.7671,"lo2":-86.6584,"dx":0.0162,"dy":0.0185,"nx":115,"ny":88,"refTime":"2022-12-09T18:00:00:Z","depth":0,"parameterNumber":2,"parameterNumberName":"U-component_of_WINDS"},"data":[0.0,0.0,0.0,0.0,0.0,0.0,0.0,0.0,0.0,0.0,0.0,0.0,0.0,0.0,0.0,0.0,0.0,0.0,0.0,0.0,0.0,0.0,0.0,0.0,0.0,0.0,0.0,0.0,0.0,0.0,0.0,0.0,0.0,0.0,0.0,0.0,0.0,0.0,0.0,0.0,0.0,0.0,0.0,0.0,0.0,0.0,0.0,0.0,0.0,0.0,0.0,0.0,0.0,0.0,0.0,0.0,0.0,0.0,0.0,0.0,0.0,0.0,0.0,0.0,0.0,0.0,0.0,0.0,0.0,0.0,0.0,0.0,0.0,0.0,0.0,0.0,0.0,0.0,0.0,0.0,0.0,0.0,0.0,0.0,0.0,0.0,0.0,0.0,0.0,0.0,0.0,0.0,0.0,0.0,0.0,0.0,0.0,0.0,0.0,0.0,0.0,0.0,0.0,0.0,0.0,0.0,0.0,0.0,0.0,0.0,0.0,0.0,0.0,0.0,0.0,0.0,0.0,0.0,0.0,0.0,0.0,0.0,0.0,0.0,0.0,0.0,0.0,0.0,0.0,0.0,0.0,0.0,0.0,0.0,0.0,0.0,0.0,0.0,0.0,0.0,0.0,0.0,0.0,0.0,0.0,0.0,0.0,0.0,0.0,0.0,0.0,0.0,0.0,0.0,0.0,0.0,0.0,0.0,0.0,0.0,0.0,0.0,0.0,0.0,0.0,0.0,0.0,0.0,0.0,0.0,0.0,0.0,0.0,0.0,0.0,0.0,0.0,0.0,0.0,0.0,0.0,0.0,0.0,0.0,0.0,0.0,0.0,0.0,0.0,0.0,0.0,0.0,0.0,0.0,0.0,0.0,0.0,0.0,0.0,0.0,0.0,0.0,0.0,0.0,0.0,0.0,0.0,0.0,0.0,0.0,0.0,0.0,0.0,0.0,0.0,0.0,0.0,0.0,0.0,0.0,0.0,0.0,0.0,0.0,0.0,0.0,0.0,0.0,0.0,0.0,0.0,0.0,0.0,0.0,0.0,0.0,0.0,0.0,0.0,0.0,0.0,0.0,0.0,0.0,0.0,0.0,0.0,0.0,0.0,0.0,0.0,0.0,0.0,0.0,0.0,0.0,0.0,0.0,0.0,0.0,0.0,0.0,0.0,0.0,0.0,0.0,0.0,0.0,0.0,0.0,0.0,0.0,0.0,0.0,0.0,0.0,0.0,0.0,0.0,0.0,0.0,0.0,0.0,0.0,0.0,0.0,0.0,0.0,0.0,0.0,0.0,0.0,0.0,0.0,0.0,0.0,0.0,0.0,0.0,0.0,0.0,0.0,0.0,0.0,0.0,0.0,0.0,0.0,0.0,0.0,0.0,0.0,0.0,0.0,0.0,0.0,0.0,0.0,0.0,0.0,0.0,0.0,0.0,0.0,0.0,0.0,0.0,0.0,0.0,0.0,0.0,0.0,0.0,0.0,0.0,0.0,0.0,0.0,0.0,0.0,0.0,0.0,0.0,0.0,0.0,0.0,0.0,0.0,0.0,0.0,0.0,0.0,0.0,0.0,0.0,0.0,0.0,0.0,0.0,0.0,0.0,0.0,0.0,0.0,0.0,0.0,0.0,0.0,0.0,0.0,0.0,0.0,0.0,0.0,0.0,0.0,0.0,0.0,0.0,0.0,0.0,0.0,0.0,0.0,0.0,0.0,0.0,0.0,0.0,0.0,0.0,0.0,0.0,0.0,0.0,0.0,0.0,0.0,0.0,0.0,0.0,0.0,0.0,0.0,0.0,0.0,0.0,0.0,0.0,0.0,0.0,0.0,0.0,0.0,0.0,0.0,0.0,0.0,0.0,0.0,0.0,0.0,0.0,0.0,0.0,0.0,0.0,0.0,0.0,0.0,0.0,0.0,0.0,0.0,0.0,0.0,0.0,0.0,0.0,0.0,0.0,0.0,0.0,0.0,0.0,0.0,0.0,0.0,0.0,0.0,0.0,0.0,0.0,0.0,0.0,0.0,0.0,0.0,0.0,0.0,0.0,0.0,0.0,0.0,0.0,0.0,0.0,0.0,0.0,0.0,0.0,0.0,0.0,0.0,0.0,0.0,0.0,0.0,0.0,0.0,0.0,0.0,0.0,0.0,0.0,0.0,0.0,0.0,0.0,0.0,0.0,0.0,0.0,0.0,0.0,0.0,0.0,0.0,0.0,0.0,0.0,0.0,0.0,0.0,0.0,0.0,0.0,0.0,0.0,0.0,0.0,0.0,0.0,0.0,0.0,0.0,0.0,0.0,0.0,0.0,0.0,0.0,0.0,0.0,0.0,0.0,0.0,0.0,0.0,0.0,0.0,0.0,0.0,0.0,0.0,0.0,0.0,0.0,0.0,0.0,0.0,0.0,0.0,0.0,0.0,0.0,0.0,0.0,0.0,0.0,0.0,0.0,0.0,0.0,0.0,0.0,0.0,0.0,0.0,0.0,0.0,0.0,0.0,0.0,0.0,0.0,0.0,0.0,0.0,0.0,0.0,0.0,0.0,0.0,0.0,0.0,0.0,0.0,0.0,0.0,0.0,0.0,0.0,0.0,0.0,0.0,0.0,0.0,0.0,0.0,0.0,0.0,0.0,0.0,0.0,0.0,0.0,0.0,0.0,0.0,0.0,0.0,0.0,0.0,0.0,0.0,0.0,0.0,0.0,0.0,0.0,0.0,0.0,0.0,0.0,0.0,0.0,0.0,0.0,0.0,0.0,0.0,0.0,0.0,0.0,0.0,0.0,0.0,0.0,0.0,0.0,0.0,0.0,0.0,0.0,0.0,0.0,0.0,0.0,0.0,0.0,0.0,0.0,0.0,0.0,0.0,0.0,0.0,0.0,0.0,0.0,0.0,0.0,0.0,0.0,0.0,0.0,0.0,0.0,0.0,0.0,0.0,0.0,0.0,0.0,0.0,0.0,0.0,0.0,0.0,0.0,0.0,0.0,0.0,0.0,0.0,0.0,0.0,0.0,0.0,0.0,0.0,0.0,0.0,0.0,0.0,0.0,0.0,0.0,0.0,0.0,0.0,0.0,0.0,0.0,0.0,0.0,0.0,0.0,0.0,0.0,0.0,0.0,0.0,0.0,0.0,0.0,0.0,0.0,0.0,0.0,0.0,0.0,0.0,0.0,0.0,0.0,0.0,0.0,0.0,0.0,0.0,0.0,0.0,0.0,0.0,0.0,0.0,0.0,0.0,0.0,0.0,0.0,0.0,0.0,0.0,0.0,0.0,0.0,0.0,0.0,0.0,0.0,0.0,0.0,0.0,0.0,0.0,0.0,0.0,0.0,0.0,0.0,0.0,0.0,0.0,0.0,0.0,0.0,0.0,0.0,0.0,0.0,0.0,0.0,0.0,0.0,0.0,0.0,0.0,0.0,0.0,0.0,0.0,0.0,0.0,0.0,0.0,0.0,0.0,0.0,0.0,0.0,0.0,0.0,0.0,0.0,0.0,0.0,0.0,0.0,0.0,0.0,0.0,0.0,0.0,0.0,0.0,0.0,0.0,0.0,0.0,0.0,0.0,0.0,0.0,0.0,0.0,0.0,0.0,0.0,0.0,0.0,0.0,0.0,0.0,0.0,0.0,0.0,0.0,0.0,0.0,0.0,0.0,0.0,0.0,0.0,0.0,0.0,0.0,0.0,0.0,0.0,0.0,0.0,0.0,0.0,0.0,0.0,0.0,0.0,0.0,0.0,0.0,0.0,0.0,0.0,0.0,0.0,0.0,0.0,0.0,0.0,0.0,0.0,0.0,0.0,0.0,0.0,0.0,0.0,0.0,0.0,0.0,0.0,0.0,0.0,0.0,0.0,0.0,0.0,0.0,0.0,0.0,0.0,0.0,0.0,0.0,0.0,0.0,0.0,0.0,0.0,0.0,0.0,0.0,0.0,0.0,0.0,0.0,0.0,0.0,0.0,0.0,0.0,0.0,0.0,0.0,0.0,0.0,0.0,0.0,0.0,0.0,0.0,0.0,0.0,0.0,0.0,0.0,0.0,0.0,0.0,0.0,0.0,0.0,0.0,0.0,0.0,0.0,0.0,0.0,0.0,0.0,0.0,0.0,0.0,0.0,0.0,0.0,0.0,0.0,0.0,0.0,0.0,0.0,0.0,0.0,0.0,0.0,0.0,0.0,0.0,0.0,0.0,0.0,0.0,0.0,0.0,0.0,0.0,0.0,0.0,0.0,0.0,0.0,0.0,0.0,0.0,0.0,0.0,0.0,-0.994,0.0,0.0,0.0,-0.9753,0.0,0.0,0.0,0.0,0.0,0.0,0.0,0.0,0.0,0.0,0.0,0.0,0.0,0.0,0.0,0.0,0.0,0.0,0.0,0.0,0.0,0.0,0.0,0.0,0.0,0.0,0.0,0.0,0.0,0.0,0.0,0.0,0.0,0.0,0.0,0.0,0.0,0.0,0.0,0.0,0.0,0.0,0.0,0.0,0.0,0.0,0.0,0.0,0.0,0.0,0.0,0.0,0.0,0.0,0.0,0.0,0.0,0.0,0.0,0.0,0.0,0.0,0.0,0.0,0.0,0.0,0.0,0.0,0.0,0.0,0.0,0.0,0.0,0.0,0.0,0.0,0.0,0.0,0.0,0.0,0.0,0.0,0.0,0.0,0.0,0.0,0.0,0.0,0.0,0.0,0.0,0.0,0.0,0.0,0.0,0.0,0.0,0.0,0.0,0.0,0.0,0.0,0.0,0.0,0.0,0.0,0.0,0.0,0.0,0.0,-1.006,-0.994,-1.0154,-1.0066,-0.9617,0.0,0.0,0.0,0.0,0.0,0.0,0.0,0.0,0.0,0.0,0.0,0.0,0.0,0.0,0.0,0.0,0.0,0.0,0.0,0.0,0.0,0.0,0.0,0.0,0.0,0.0,0.0,0.0,0.0,0.0,0.0,0.0,0.0,0.0,0.0,0.0,0.0,0.0,0.0,0.0,0.0,0.0,0.0,0.0,0.0,0.0,0.0,0.0,0.0,0.0,0.0,0.0,0.0,0.0,0.0,0.0,0.0,0.0,0.0,0.0,0.0,0.0,0.0,0.0,0.0,0.0,0.0,0.0,0.0,0.0,0.0,0.0,0.0,0.0,0.0,0.0,0.0,0.0,0.0,0.0,0.0,0.0,0.0,0.0,0.0,0.0,0.0,0.0,0.0,0.0,0.0,0.0,0.0,0.0,0.0,0.0,0.0,0.0,0.0,0.0,0.0,0.0,0.0,0.0,0.0,0.0,0.0,0.0,0.0,0.0,0.0,0.0,-0.9992,-0.9854,-0.9341,0.0,0.0,0.0,0.0,0.0,0.0,0.0,0.0,0.0,0.0,0.0,0.0,0.0,0.0,0.0,0.0,0.0,0.0,0.0,0.0,0.0,0.0,0.0,0.0,0.0,0.0,0.0,0.0,0.0,0.0,0.0,0.0,0.0,0.0,0.0,0.0,0.0,0.0,0.0,0.0,0.0,0.0,0.0,0.0,0.0,0.0,0.0,0.0,0.0,0.0,0.0,0.0,0.0,0.0,0.0,0.0,0.0,0.0,0.0,0.0,0.0,0.0,0.0,0.0,0.0,0.0,0.0,0.0,0.0,0.0,0.0,0.0,0.0,0.0,0.0,0.0,0.0,0.0,0.0,0.0,0.0,0.0,0.0,0.0,0.0,0.0,0.0,0.0,0.0,0.0,0.0,0.0,0.0,0.0,0.0,0.0,0.0,0.0,0.0,0.0,0.0,0.0,0.0,0.0,0.0,0.0,0.0,0.0,0.0,0.0,-0.8544,-0.8898,-0.9044,0.0,-0.8852,0.0,0.0,0.0,0.0,0.0,0.0,0.0,0.0,0.0,0.0,0.0,0.0,0.0,0.0,0.0,0.0,0.0,0.0,0.0,0.0,0.0,0.0,0.0,0.0,0.0,0.0,0.0,0.0,0.0,0.0,0.0,0.0,0.0,0.0,0.0,0.0,0.0,0.0,0.0,0.0,0.0,0.0,0.0,0.0,0.0,0.0,0.0,0.0,0.0,0.0,0.0,0.0,0.0,0.0,0.0,0.0,0.0,0.0,0.0,0.0,0.0,0.0,0.0,0.0,0.0,0.0,0.0,0.0,0.0,0.0,0.0,0.0,0.0,0.0,0.0,0.0,0.0,0.0,0.0,0.0,0.0,0.0,0.0,0.0,0.0,0.0,0.0,0.0,0.0,0.0,0.0,0.0,0.0,0.0,0.0,0.0,0.0,0.0,0.0,0.0,0.0,0.0,0.0,0.0,0.0,0.0,0.0,0.0,0.0,0.0,-0.8577,-0.893,-0.8462,-0.7851,0.0,0.0,0.0,0.0,0.0,0.0,0.0,0.0,0.0,0.0,0.0,0.0,0.0,0.0,0.0,0.0,0.0,0.0,0.0,0.0,0.0,0.0,0.0,0.0,0.0,0.0,0.0,0.0,0.0,0.0,0.0,0.0,0.0,0.0,0.0,0.0,0.0,0.0,0.0,0.0,0.0,0.0,0.0,0.0,0.0,0.0,0.0,0.0,0.0,0.0,0.0,0.0,0.0,0.0,0.0,0.0,0.0,0.0,0.0,0.0,0.0,0.0,0.0,0.0,0.0,0.0,0.0,0.0,0.0,0.0,0.0,0.0,0.0,0.0,0.0,0.0,0.0,0.0,0.0,0.0,0.0,0.0,0.0,0.0,0.0,0.0,0.0,0.0,0.0,0.0,0.0,0.0,0.0,0.0,0.0,0.0,0.0,0.0,0.0,0.0,0.0,0.0,0.0,0.0,0.0,0.0,0.0,0.0,0.0,0.0,-0.8394,-0.8419,-0.8547,-0.7778,-0.6918,-0.6082,0.0,0.0,0.0,0.0,0.0,0.0,0.0,0.0,0.0,0.0,0.0,0.0,0.0,0.0,0.0,0.0,0.0,0.0,0.0,0.0,0.0,0.0,0.0,0.0,0.0,0.0,0.0,0.0,0.0,0.0,0.0,0.0,0.0,0.0,0.0,0.0,0.0,0.0,0.0,0.0,0.0,0.0,0.0,0.0,0.0,0.0,0.0,0.0,0.0,0.0,0.0,0.0,0.0,0.0,0.0,0.0,0.0,0.0,0.0,0.0,0.0,0.0,0.0,0.0,0.0,0.0,0.0,0.0,0.0,0.0,0.0,0.0,0.0,0.0,0.0,0.0,0.0,0.0,0.0,0.0,0.0,0.0,0.0,0.0,0.0,0.0,0.0,0.0,0.0,0.0,0.0,0.0,0.0,0.0,0.0,0.0,0.0,0.0,0.0,0.0,0.0,0.0,0.0,0.0,0.0,0.0,0.0,0.0,-0.8005,-0.786,-0.7683,-0.758,-0.6824,-0.6449,0.0,0.0,0.0,0.0,0.0,0.0,0.0,0.0,0.0,0.0,0.0,0.0,0.0,0.0,0.0,0.0,0.0,0.0,0.0,0.0,0.0,0.0,0.0,0.0,0.0,0.0,0.0,0.0,0.0,0.0,0.0,0.0,0.0,0.0,0.0,0.0,0.0,0.0,0.0,0.0,0.0,0.0,0.0,0.0,0.0,0.0,0.0,0.0,0.0,0.0,0.0,0.0,0.0,0.0,0.0,0.0,0.0,0.0,0.0,0.0,0.0,0.0,0.0,0.0,0.0,0.0,0.0,0.0,0.0,0.0,0.0,0.0,0.0,0.0,0.0,0.0,0.0,0.0,0.0,0.0,0.0,0.0,0.0,0.0,0.0,0.0,0.0,0.0,0.0,0.0,0.0,0.0,0.0,0.0,0.0,0.0,0.0,0.0,0.0,0.0,0.0,0.0,0.0,0.0,0.0,0.0,0.0,0.0,0.0,-0.7756,-0.7405,-0.7173,-0.6996,-0.6725,-0.6538,0.0,0.0,0.0,0.0,0.0,0.0,0.0,0.0,0.0,0.0,0.0,0.0,0.0,0.0,0.0,0.0,0.0,0.0,0.0,0.0,0.0,0.0,0.0,0.0,0.0,0.0,0.0,0.0,0.0,0.0,0.0,0.0,0.0,0.0,0.0,0.0,0.0,0.0,0.0,0.0,0.0,0.0,0.0,0.0,0.0,0.0,0.0,0.0,0.0,0.0,0.0,0.0,0.0,0.0,0.0,0.0,0.0,0.0,0.0,0.0,0.0,0.0,0.0,0.0,0.0,0.0,0.0,0.0,0.0,0.0,0.0,0.0,0.0,0.0,0.0,0.0,0.0,0.0,0.0,0.0,0.0,0.0,0.0,0.0,0.0,0.0,0.0,0.0,0.0,0.0,0.0,0.0,0.0,0.0,0.0,0.0,0.0,0.0,0.0,0.0,0.0,0.0,0.0,0.0,0.0,0.0,0.0,0.0,0.0,-0.809,-0.7593,-0.7273,-0.7123,-0.6895,-0.6692,0.0,0.0,0.0,0.0,0.0,0.0,0.0,0.0,0.0,0.0,0.0,0.0,0.0,0.0,0.0,0.0,0.0,0.0,0.0,0.0,0.0,0.0,0.0,0.0,0.0,0.0,0.0,0.0,0.0,0.0,0.0,0.0,0.0,0.0,0.0,0.0,0.0,0.0,0.0,0.0,0.0,0.0,0.0,0.0,0.0,0.0,0.0,0.0,0.0,0.0,0.0,0.0,0.0,0.0,0.0,0.0,0.0,0.0,0.0,0.0,0.0,0.0,0.0,0.0,0.0,0.0,0.0,0.0,0.0,0.0,0.0,0.0,0.0,0.0,0.0,0.0,0.0,0.0,0.0,0.0,0.0,0.0,0.0,0.0,0.0,0.0,0.0,0.0,0.0,0.0,0.0,0.0,0.0,0.0,0.0,0.0,0.0,0.0,0.0,0.0,0.0,0.0,0.0,0.0,0.0,0.0,0.0,0.0,-0.8902,-0.9057,-0.8321,-0.7943,-0.7983,-0.7339,-0.6906,0.0,0.0,0.0,0.0,0.0,0.0,0.0,0.0,0.0,0.0,0.0,0.0,0.0,0.0,0.0,0.0,0.0,0.0,0.0,0.0,0.0,0.0,0.0,0.0,0.0,0.0,0.0,0.0,0.0,0.0,0.0,0.0,0.0,0.0,0.0,0.0,0.0,0.0,0.0,0.0,0.0,0.0,0.0,0.0,0.0,0.0,0.0,0.0,0.0,0.0,0.0,0.0,0.0,0.0,0.0,0.0,0.0,0.0,0.0,0.0,0.0,0.0,0.0,0.0,0.0,0.0,0.0,0.0,0.0,0.0,0.0,0.0,0.0,0.0,0.0,0.0,0.0,0.0,0.0,0.0,0.0,0.0,0.0,0.0,0.0,0.0,0.0,0.0,0.0,0.0,0.0,0.0,0.0,0.0,0.0,0.0,0.0,0.0,0.0,0.0,0.0,0.0,0.0,0.0,0.0,0.0,0.0,0.0,0.0,-0.8869,-0.8083,-0.7642,-0.7634,-0.7233,-0.7029,0.0,0.0,0.0,0.0,0.0,0.0,0.0,0.0,0.0,0.0,0.0,0.0,0.0,0.0,0.0,0.0,0.0,0.0,0.0,0.0,0.0,0.0,0.0,0.0,0.0,0.0,0.0,0.0,0.0,0.0,0.0,0.0,0.0,0.0,0.0,0.0,0.0,0.0,0.0,0.0,0.0,0.0,0.0,0.0,0.0,0.0,0.0,0.0,0.0,0.0,0.0,0.0,0.0,0.0,0.0,0.0,0.0,0.0,0.0,0.0,0.0,0.0,0.0,0.0,0.0,0.0,0.0,0.0,0.0,0.0,0.0,0.0,0.0,0.0,0.0,0.0,0.0,0.0,0.0,0.0,0.0,0.0,0.0,0.0,0.0,0.0,0.0,0.0,0.0,0.0,0.0,0.0,0.0,0.0,0.0,0.0,0.0,0.0,0.0,0.0,0.0,0.0,0.0,0.0,0.0,0.0,0.0,0.0,0.0,-0.881,-0.8147,-0.7757,-0.7757,-0.7357,-0.7165,-0.7151,0.0,0.0,0.0,0.0,0.0,0.0,0.0,0.0,0.0,0.0,0.0,0.0,0.0,0.0,0.0,0.0,0.0,0.0,0.0,0.0,0.0,0.0,0.0,0.0,0.0,0.0,0.0,0.0,0.0,0.0,0.0,0.0,0.0,0.0,0.0,0.0,0.0,0.0,0.0,0.0,0.0,0.0,0.0,0.0,0.0,0.0,0.0,0.0,0.0,0.0,0.0,0.0,0.0,0.0,0.0,0.0,0.0,0.0,0.0,0.0,0.0,0.0,0.0,0.0,0.0,0.0,0.0,0.0,0.0,0.0,0.0,0.0,0.0,0.0,0.0,0.0,0.0,0.0,0.0,0.0,0.0,0.0,0.0,0.0,0.0,0.0,0.0,0.0,0.0,0.0,0.0,0.0,0.0,0.0,0.0,0.0,0.0,0.0,0.0,0.0,0.0,0.0,0.0,0.0,0.0,0.0,0.0,0.0,-0.8766,-0.8403,-0.8185,-0.8162,-0.7694,-0.7328,0.0,0.0,0.0,0.0,0.0,0.0,0.0,0.0,0.0,0.0,0.0,0.0,0.0,0.0,0.0,0.0,0.0,0.0,0.0,0.0,0.0,0.0,0.0,0.0,0.0,0.0,0.0,0.0,0.0,0.0,0.0,0.0,0.0,0.0,0.0,0.0,0.0,0.0,0.0,0.0,0.0,0.0,0.0,0.0,0.0,0.0,0.0,0.0,0.0,0.0,0.0,0.0,0.0,0.0,0.0,0.0,0.0,0.0,0.0,0.0,0.0,0.0,0.0,0.0,0.0,0.0,0.0,0.0,0.0,0.0,0.0,0.0,0.0,0.0,0.0,0.0,0.0,0.0,0.0,0.0,0.0,0.0,0.0,0.0,0.0,0.0,0.0,0.0,0.0,0.0,0.0,0.0,0.0,0.0,0.0,0.0,0.0,0.0,0.0,0.0,0.0,0.0,0.0,0.0,0.0,0.0,0.0,0.0,0.0,-0.843,-0.8284,-0.8138,-0.7971,-0.7804,-0.7573,0.0,0.0,0.0,0.0,0.0,0.0,0.0,0.0,0.0,0.0,0.0,0.0,0.0,0.0,0.0,0.0,0.0,0.0,0.0,0.0,0.0,0.0,0.0,0.0,0.0,0.0,0.0,0.0,0.0,0.0,0.0,0.0,0.0,0.0,0.0,0.0,0.0,0.0,0.0,0.0,0.0,0.0,0.0,0.0,0.0,0.0,0.0,0.0,0.0,0.0,0.0,0.0,0.0,0.0,0.0,0.0,0.0,0.0,0.0,0.0,0.0,0.0,0.0,0.0,0.0,0.0,0.0,0.0,0.0,0.0,0.0,0.0,0.0,0.0,0.0,0.0,0.0,0.0,0.0,0.0,0.0,0.0,0.0,0.0,0.0,0.0,0.0,0.0,0.0,0.0,0.0,0.0,0.0,0.0,0.0,0.0,0.0,0.0,0.0,0.0,0.0,0.0,0.0,0.0,0.0,0.0,0.0,0.0,-0.829,-0.8433,-0.83,-0.8127,-0.7931,-0.7796,-0.7537,0.0,0.0,0.0,0.0,0.0,0.0,0.0,0.0,0.0,0.0,0.0,0.0,0.0,0.0,0.0,0.0,0.0,0.0,0.0,0.0,0.0,0.0,0.0,0.0,0.0,0.0,0.0,0.0,0.0,0.0,0.0,0.0,0.0,0.0,0.0,0.0,0.0,0.0,0.0,0.0,0.0,0.0,0.0,0.0,0.0,0.0,0.0,0.0,0.0,0.0,0.0,0.0,0.0,0.0,0.0,0.0,0.0,0.0,0.0,0.0,0.0,0.0,0.0,0.0,0.0,0.0,0.0,0.0,0.0,0.0,0.0,0.0,0.0,0.0,0.0,0.0,0.0,0.0,0.0,0.0,0.0,0.0,0.0,0.0,0.0,0.0,0.0,0.0,0.0,0.0,0.0,0.0,0.0,0.0,0.0,0.0,0.0,0.0,0.0,0.0,0.0,0.0,0.0,0.0,0.0,0.0,0.0,0.0,-0.7951,-0.8601,-0.8422,-0.819,-0.7908,-0.7743,-0.7335,0.0,0.0,0.0,0.0,0.0,0.0,0.0,0.0,0.0,0.0,0.0,0.0,0.0,0.0,0.0,0.0,0.0,0.0,0.0,0.0,0.0,0.0,0.0,0.0,0.0,0.0,0.0,0.0,0.0,0.0,0.0,0.0,0.0,0.0,0.0,0.0,0.0,0.0,0.0,0.0,0.0,0.0,0.0,0.0,0.0,0.0,0.0,0.0,0.0,0.0,0.0,0.0,0.0,0.0,0.0,0.0,0.0,0.0,0.0,0.0,0.0,0.0,0.0,0.0,0.0,0.0,0.0,0.0,0.0,0.0,0.0,0.0,0.0,0.0,0.0,0.0,0.0,0.0,0.0,0.0,0.0,0.0,0.0,0.0,0.0,0.0,0.0,0.0,0.0,0.0,0.0,0.0,0.0,0.0,0.0,0.0,0.0,0.0,0.0,0.0,0.0,0.0,0.0,0.0,0.0,0.0,0.0,0.0,-0.8398,-0.8958,-0.8718,-0.8372,-0.8042,-0.7933,-0.7555,0.0,0.0,0.0,0.0,0.0,0.0,0.0,0.0,0.0,0.0,0.0,0.0,0.0,0.0,0.0,0.0,0.0,0.0,0.0,0.0,0.0,0.0,0.0,0.0,0.0,0.0,0.0,0.0,0.0,0.0,0.0,0.0,0.0,0.0,0.0,0.0,0.0,0.0,0.0,0.0,0.0,0.0,0.0,0.0,0.0,0.0,0.0,0.0,-0.5636,0.0,0.0,0.0,0.0,0.0,0.0,0.0,0.0,0.0,0.0,0.0,0.0,0.0,0.0,0.0,0.0,0.0,0.0,0.0,0.0,0.0,0.0,0.0,0.0,0.0,0.0,0.0,0.0,0.0,0.0,0.0,0.0,0.0,0.0,0.0,0.0,0.0,0.0,0.0,0.0,0.0,0.0,0.0,0.0,0.0,0.0,0.0,0.0,0.0,0.0,0.0,0.0,0.0,0.0,0.0,0.0,0.0,0.0,0.0,-0.8552,-0.9072,-0.8828,-0.8506,-0.814,-0.8027,-0.7649,0.0,0.0,0.0,0.0,0.0,0.0,0.0,0.0,0.0,0.0,0.0,0.0,0.0,0.0,0.0,0.0,0.0,0.0,0.0,0.0,0.0,0.0,0.0,0.0,0.0,0.0,0.0,0.0,0.0,0.0,0.0,0.0,0.0,0.0,0.0,0.0,0.0,0.0,0.0,0.0,0.0,0.0,0.0,0.0,0.0,0.0,0.0,0.0,0.0,0.0,0.0,0.0,0.0,0.0,0.0,0.0,0.0,0.0,0.0,0.0,0.0,0.0,0.0,0.0,0.0,0.0,0.0,0.0,0.0,0.0,0.0,0.0,0.0,0.0,0.0,0.0,0.0,0.0,0.0,0.0,0.0,0.0,0.0,0.0,0.0,0.0,0.0,0.0,0.0,0.0,0.0,0.0,0.0,0.0,0.0,0.0,0.0,0.0,0.0,0.0,0.0,0.0,0.0,0.0,0.0,0.0,0.0,-0.84,-0.8565,-0.9145,-0.8896,-0.8564,-0.8139,-0.8071,-0.7606,-0.6722,0.0,0.0,0.0,0.0,0.0,0.0,0.0,0.0,0.0,0.0,0.0,0.0,0.0,0.0,0.0,0.0,0.0,0.0,0.0,0.0,0.0,0.0,0.0,0.0,0.0,0.0,0.0,0.0,0.0,0.0,0.0,0.0,0.0,0.0,0.0,0.0,0.0,0.0,-0.4744,-0.5255,0.0,0.0,0.0,0.0,0.0,0.0,0.0,0.0,-0.6244,0.0,0.0,0.0,0.0,0.0,0.0,0.0,0.0,0.0,0.0,0.0,0.0,0.0,0.0,0.0,0.0,0.0,0.0,0.0,0.0,0.0,0.0,0.0,0.0,0.0,0.0,0.0,0.0,0.0,0.0,0.0,0.0,0.0,0.0,0.0,0.0,0.0,0.0,0.0,0.0,0.0,0.0,0.0,0.0,0.0,0.0,0.0,0.0,0.0,0.0,0.0,0.0,0.0,0.0,0.0,0.0,-0.9611,-0.8702,-0.8655,-0.9462,-0.8839,-0.8436,-0.8335,-0.7986,-0.7422,-0.6764,0.0,0.0,0.0,0.0,0.0,0.0,0.0,0.0,0.0,0.0,0.0,0.0,0.0,0.0,0.0,0.0,0.0,0.0,0.0,0.0,0.0,0.0,0.0,0.0,0.0,0.0,0.0,0.0,0.0,0.0,0.0,0.0,0.0,0.0,0.0,0.0,0.0,0.0,0.0,-0.5904,-0.6233,0.0,0.0,0.0,0.0,0.0,0.0,0.0,0.0,-0.6775,0.0,0.0,0.0,0.0,0.0,0.0,0.0,0.0,0.0,0.0,0.0,0.0,0.0,0.0,0.0,0.0,0.0,0.0,0.0,0.0,0.0,0.0,0.0,0.0,0.0,0.0,0.0,0.0,0.0,0.0,0.0,0.0,0.0,0.0,0.0,0.0,0.0,0.0,0.0,0.0,0.0,0.0,0.0,0.0,0.0,0.0,0.0,0.0,0.0,0.0,0.0,0.0,0.0,0.0,0.0,-0.9159,-0.8775,-0.886,-0.9542,-0.914,-0.8769,-0.8507,-0.8217,-0.7676,0.0,0.0,0.0,0.0,0.0,0.0,0.0,0.0,0.0,0.0,0.0,0.0,0.0,0.0,0.0,0.0,0.0,0.0,0.0,0.0,0.0,0.0,0.0,0.0,0.0,0.0,0.0,0.0,0.0,0.0,0.0,0.0,0.0,0.0,0.0,0.0,0.0,0.0,0.0,0.0,-0.6139,-0.6454,-0.7045,0.0,0.0,0.0,0.0,0.0,0.0,-0.7177,-0.693,0.0,0.0,0.0,0.0,0.0,0.0,0.0,0.0,0.0,0.0,0.0,0.0,0.0,0.0,0.0,0.0,0.0,0.0,0.0,0.0,0.0,0.0,0.0,0.0,0.0,0.0,0.0,0.0,0.0,0.0,0.0,0.0,0.0,0.0,0.0,0.0,0.0,0.0,0.0,0.0,0.0,0.0,0.0,0.0,0.0,0.0,0.0,0.0,0.0,0.0,0.0,0.0,0.0,0.0,0.0,-0.8842,-0.8775,-0.8995,-0.9542,-0.9397,-0.9068,-0.8586,-0.8467,-0.7918,0.0,0.0,0.0,0.0,0.0,0.0,0.0,0.0,0.0,0.0,0.0,0.0,0.0,0.0,0.0,0.0,0.0,0.0,0.0,0.0,0.0,0.0,0.0,0.0,0.0,0.0,0.0,0.0,0.0,0.0,0.0,0.0,0.0,0.0,0.0,0.0,0.0,0.0,0.0,0.0,0.0,-0.6739,-0.7211,-0.7752,0.0,0.0,0.0,0.0,-0.774,-0.7407,0.0,0.0,0.0,0.0,0.0,0.0,0.0,0.0,0.0,0.0,0.0,0.0,0.0,0.0,0.0,0.0,0.0,0.0,0.0,0.0,0.0,0.0,0.0,0.0,0.0,0.0,0.0,0.0,0.0,0.0,0.0,0.0,0.0,0.0,0.0,0.0,0.0,0.0,0.0,0.0,0.0,0.0,0.0,0.0,0.0,0.0,0.0,0.0,0.0,0.0,0.0,0.0,0.0,0.0,0.0,0.0,-0.9609,-0.891,-0.8855,-0.9534,-0.9251,-0.8931,-0.8594,-0.8338,-0.7802,0.0,0.0,0.0,0.0,0.0,0.0,0.0,0.0,0.0,0.0,0.0,0.0,0.0,0.0,0.0,0.0,0.0,0.0,0.0,0.0,0.0,0.0,0.0,0.0,0.0,0.0,0.0,0.0,0.0,0.0,0.0,0.0,0.0,0.0,0.0,0.0,0.0,0.0,0.0,0.0,0.0,-0.7251,-0.6973,-0.771,-0.8083,0.0,0.0,-0.8194,-0.8194,-0.8031,0.0,0.0,0.0,0.0,0.0,0.0,0.0,0.0,0.0,0.0,0.0,0.0,0.0,0.0,0.0,0.0,0.0,0.0,0.0,0.0,0.0,0.0,0.0,0.0,0.0,0.0,0.0,0.0,0.0,0.0,0.0,0.0,0.0,0.0,0.0,0.0,0.0,0.0,0.0,0.0,0.0,0.0,0.0,0.0,0.0,0.0,0.0,0.0,0.0,0.0,0.0,0.0,0.0,0.0,0.0,-0.9021,-0.9122,-0.8993,-0.9059,-0.9377,-0.9153,-0.8867,-0.8483,-0.8299,-0.7853,0.0,0.0,0.0,0.0,0.0,0.0,0.0,0.0,0.0,0.0,0.0,0.0,0.0,0.0,0.0,0.0,0.0,0.0,0.0,0.0,0.0,0.0,0.0,0.0,0.0,0.0,0.0,0.0,0.0,0.0,0.0,0.0,0.0,0.0,0.0,0.0,0.0,0.0,0.0,0.0,0.0,0.0,-0.7641,-0.8186,0.0,0.0,0.0,-0.8492,-0.8404,0.0,0.0,0.0,0.0,0.0,0.0,0.0,0.0,0.0,0.0,0.0,0.0,0.0,0.0,0.0,0.0,0.0,0.0,0.0,0.0,0.0,0.0,0.0,0.0,0.0,0.0,0.0,0.0,0.0,0.0,0.0,0.0,0.0,0.0,0.0,0.0,0.0,0.0,0.0,0.0,0.0,0.0,0.0,0.0,0.0,0.0,0.0,0.0,0.0,0.0,0.0,0.0,0.0,0.0,0.0,0.0,0.0,-0.8612,-0.8981,-0.9202,-0.9299,-0.917,-0.8917,-0.8492,-0.8343,0.0,0.0,0.0,0.0,0.0,0.0,0.0,0.0,0.0,0.0,0.0,0.0,0.0,0.0,0.0,0.0,0.0,0.0,0.0,0.0,0.0,0.0,0.0,0.0,0.0,0.0,0.0,-0.4177,0.0,0.0,0.0,0.0,0.0,0.0,0.0,0.0,0.0,0.0,0.0,0.0,0.0,0.0,-0.7474,-0.8099,-0.8467,-0.8669,0.0,0.0,-0.8737,-0.8716,-0.8613,-0.8545,0.0,0.0,0.0,0.0,0.0,0.0,0.0,0.0,0.0,0.0,0.0,0.0,0.0,0.0,0.0,0.0,0.0,0.0,0.0,0.0,0.0,0.0,0.0,0.0,0.0,0.0,0.0,0.0,0.0,0.0,0.0,0.0,0.0,0.0,0.0,0.0,0.0,0.0,0.0,0.0,0.0,0.0,0.0,0.0,0.0,0.0,0.0,0.0,0.0,0.0,0.0,0.0,0.0,0.0,-0.8932,-0.862,-0.8989,-0.9264,-0.9454,-0.9224,-0.8976,-0.8707,-0.85,-0.8126,0.0,0.0,0.0,0.0,0.0,0.0,0.0,0.0,0.0,0.0,0.0,0.0,0.0,0.0,0.0,0.0,0.0,0.0,0.0,0.0,0.0,0.0,0.0,0.0,0.0,0.0,0.0,0.0,0.0,0.0,0.0,0.0,0.0,0.0,0.0,0.0,0.0,0.0,0.0,0.0,0.0,-0.7716,-0.7878,-0.8361,-0.871,0.0,-0.8825,-0.896,-0.9146,-0.9152,-0.9146,-0.9146,0.0,0.0,0.0,0.0,0.0,0.0,0.0,0.0,0.0,0.0,0.0,0.0,0.0,0.0,0.0,0.0,0.0,0.0,0.0,0.0,0.0,0.0,0.0,0.0,0.0,0.0,0.0,0.0,0.0,0.0,0.0,0.0,0.0,0.0,0.0,0.0,0.0,0.0,0.0,0.0,0.0,0.0,0.0,0.0,0.0,0.0,0.0,0.0,0.0,0.0,0.0,0.0,0.0,-0.8688,-0.8506,-0.9003,-0.9227,-0.9131,-0.8965,-0.8804,-0.8698,-0.8463,-0.8179,0.0,0.0,0.0,0.0,0.0,0.0,0.0,0.0,0.0,0.0,0.0,0.0,0.0,0.0,0.0,0.0,0.0,0.0,0.0,0.0,0.0,0.0,0.0,0.0,0.0,0.0,0.0,0.0,-0.5979,-0.6156,-0.6129,0.0,0.0,0.0,0.0,0.0,0.0,0.0,0.0,0.0,0.0,-0.8267,-0.8361,-0.8817,0.0,0.0,-0.9117,-0.9266,-0.9415,-0.9435,-0.9435,-0.9435,-0.9388,0.0,0.0,0.0,0.0,0.0,0.0,0.0,0.0,0.0,0.0,0.0,0.0,0.0,0.0,0.0,0.0,0.0,0.0,0.0,0.0,0.0,0.0,0.0,0.0,0.0,0.0,0.0,0.0,0.0,0.0,0.0,0.0,0.0,0.0,0.0,0.0,0.0,0.0,0.0,0.0,0.0,0.0,0.0,0.0,0.0,0.0,0.0,0.0,0.0,0.0,0.0,0.0,-0.8946,-0.8939,-0.9087,-0.9091,-0.8984,-0.881,-0.8777,-0.8771,-0.8533,-0.8309,0.0,0.0,0.0,0.0,0.0,0.0,0.0,0.0,0.0,0.0,0.0,0.0,0.0,0.0,0.0,0.0,0.0,0.0,0.0,0.0,0.0,0.0,0.0,0.0,0.0,0.0,0.0,0.0,-0.6388,-0.6559,-0.6504,0.0,0.0,0.0,0.0,0.0,0.0,0.0,0.0,0.0,0.0,-0.8757,-0.8954,-0.9245,-0.9429,-0.9361,-0.9483,-0.9632,-0.9788,-0.9808,-0.9808,-0.9808,0.0,0.0,0.0,0.0,0.0,0.0,0.0,0.0,0.0,0.0,0.0,0.0,0.0,0.0,0.0,0.0,0.0,0.0,0.0,0.0,0.0,0.0,0.0,0.0,0.0,0.0,0.0,-0.8302,0.0,0.0,-0.777,0.0,0.0,0.0,0.0,0.0,0.0,0.0,0.0,0.0,0.0,0.0,0.0,0.0,0.0,0.0,0.0,0.0,0.0,0.0,0.0,0.0,0.0,-0.9894,-1.014,-0.94,-0.9036,-0.9133,-0.8968,-0.894,-0.894,-0.8784,-0.8567,-0.832,0.0,0.0,0.0,0.0,0.0,0.0,0.0,0.0,0.0,0.0,0.0,0.0,0.0,0.0,0.0,0.0,0.0,0.0,0.0,0.0,0.0,0.0,0.0,0.0,0.0,0.0,-0.5671,-0.6268,-0.6756,0.0,0.0,0.0,0.0,0.0,0.0,0.0,0.0,0.0,-0.8784,-0.9049,-0.9303,-0.9537,-0.9598,-0.9666,-0.9788,-0.9876,-1.0024,-1.0236,-1.0263,-1.0333,0.0,0.0,0.0,0.0,0.0,0.0,0.0,0.0,0.0,0.0,0.0,0.0,0.0,0.0,0.0,0.0,0.0,0.0,0.0,0.0,0.0,0.0,0.0,0.0,0.0,0.0,0.0,-1.0264,-1.0393,0.0,0.0,0.0,0.0,0.0,0.0,0.0,0.0,0.0,0.0,0.0,-1.1565,-1.2974,0.0,0.0,0.0,0.0,0.0,0.0,0.0,0.0,0.0,0.0,0.0,0.0,-1.1505,-1.0807,-1.1499,-1.1585,-1.0927,-1.0996,-1.0638,-0.9722,-0.9377,-0.889,-0.8333,0.0,0.0,0.0,0.0,0.0,0.0,0.0,0.0,0.0,0.0,0.0,0.0,0.0,0.0,0.0,0.0,0.0,0.0,0.0,0.0,0.0,0.0,0.0,0.0,0.0,-0.6458,0.0,0.0,0.0,0.0,0.0,0.0,0.0,0.0,0.0,0.0,0.0,-0.8743,-0.9042,-0.9381,-0.9598,-0.9612,-0.9951,-1.0181,0.0,0.0,0.0,0.0,0.0,0.0,0.0,0.0,0.0,0.0,0.0,0.0,0.0,0.0,-1.0175,-0.9876,-0.97,-0.9612,-0.9666,0.0,0.0,0.0,0.0,0.0,0.0,0.0,0.0,0.0,0.0,0.0,0.0,0.0,0.0,-1.1498,0.0,-1.1275,0.0,0.0,0.0,0.0,0.0,0.0,0.0,0.0,-1.3256,-1.3605,-1.2824,-1.4072,-1.4643,0.0,-1.4014,-1.2985,0.0,0.0,0.0,0.0,0.0,0.0,0.0,0.0,-1.259,-1.219,-1.2977,-1.3126,-1.2488,-1.2766,-1.2516,-1.1644,-1.1191,-1.0528,-0.9549,-0.9167,-0.8692,0.0,0.0,0.0,0.0,0.0,0.0,0.0,0.0,0.0,0.0,0.0,0.0,0.0,0.0,0.0,0.0,0.0,0.0,0.0,0.0,0.0,0.0,0.0,-0.7156,0.0,0.0,0.0,0.0,0.0,0.0,0.0,0.0,0.0,-0.8258,-0.875,-0.9164,-0.9361,-0.9727,-0.9985,-0.9992,0.0,0.0,0.0,0.0,0.0,0.0,0.0,-1.0812,-1.0622,-1.0704,-1.0738,-1.0541,-1.0588,-1.0663,-1.0717,0.0,0.0,-1.0497,-1.0179,-1.0181,-1.0267,-1.0249,-1.0426,-1.1301,-1.1504,-1.1674,0.0,0.0,0.0,0.0,0.0,0.0,0.0,0.0,-1.2042,-1.2056,0.0,-1.2299,0.0,0.0,0.0,0.0,0.0,-1.3067,0.0,0.0,-1.4709,-1.499,-1.4735,-1.4782,-1.4921,-1.5107,-1.4655,-1.4222,-1.38,-1.3186,0.0,0.0,0.0,0.0,0.0,0.0,-1.3281,-1.4281,-1.3939,-1.3702,-1.385,-1.4282,-1.445,-1.4313,-1.3964,-1.3132,-1.1855,-1.1168,-1.0135,-0.8641,-0.7759,0.0,0.0,0.0,0.0,0.0,0.0,0.0,0.0,0.0,0.0,0.0,0.0,0.0,0.0,0.0,0.0,0.0,0.0,0.0,0.0,-0.7353,0.0,0.0,0.0,0.0,0.0,0.0,0.0,0.0,0.0,0.0,-0.892,-0.92,-0.951,-0.9802,0.0,0.0,0.0,0.0,-1.1009,-1.1138,-1.1234,-1.1289,-1.1362,-1.1274,-1.1172,-1.1241,0.0,0.0,-1.1036,-1.1036,-1.1213,-1.1358,-1.2797,-1.3306,-1.15,-1.1182,-1.1059,-1.1198,-1.133,-1.1855,-1.3186,-1.3558,-1.3857,-1.3668,0.0,0.0,0.0,0.0,-1.2883,-1.3249,-1.3978,-1.39,-1.3931,-1.3957,-1.3753,0.0,0.0,0.0,0.0,0.0,0.0,-1.4249,-1.4747,-1.5197,-1.5525,-1.5849,-1.6032,-1.6179,-1.6228,-1.6081,-1.6088,-1.6171,-1.6015,-1.5475,-1.4581,0.0,0.0,0.0,0.0,-1.5492,-1.5563,-1.6295,-1.6521,-1.6079,-1.6402,-1.5901,-1.4402,-1.3163,-1.2475,-1.2327,-1.1333,-1.0705,-1.0529,-1.032,0.0,0.0,0.0,0.0,0.0,0.0,0.0,0.0,0.0,0.0,0.0,0.0,0.0,0.0,0.0,0.0,0.0,0.0,0.0,-0.7217,-0.7834,-0.8194,0.0,0.0,0.0,0.0,0.0,0.0,0.0,0.0,0.0,-1.1366,-1.0504,-0.9964,0.0,0.0,-1.0718,-1.0806,-1.1097,-1.128,-1.1321,-1.1328,0.0,-1.1531,-1.1518,-1.1491,-1.1491,-1.2362,-1.3099,-1.3169,-1.4142,-1.4911,-1.4973,-1.5368,-1.5554,-1.5168,-1.4946,-1.484,-1.4832,-1.4144,-1.3595,-1.4091,-1.3494,-1.3282,-1.5088,-1.4754,-1.4135,-1.3899,-1.3855,-1.3791,-1.4231,-1.5035,-1.4989,-1.5053,-1.5171,-1.4991,-1.4431,-1.3558,-1.3521,0.0,0.0,0.0,-1.5158,-1.5573,-1.5872,-1.6255,-1.6634,-1.6892,-1.7048,-1.7048,-1.6959,-1.7052,-1.7367,-1.7276,-1.686,-1.6084,0.0,0.0,-1.6036,-1.6355,-1.6599,-1.6683,-1.7777,-1.8154,-1.7799,-1.8089,-1.7674,-1.6414,-1.5332,-1.4567,-1.42,-1.3135,-1.2396,-1.2006,-1.1812,-1.1444,0.0,0.0,0.0,0.0,0.0,0.0,0.0,0.0,0.0,0.0,0.0,-0.6042,-0.5684,0.0,0.0,0.0,-0.7762,-0.8345,-0.8605,-0.9131,0.0,0.0,0.0,0.0,0.0,0.0,0.0,-0.9917,-1.1149,-1.2299,-1.2634,-1.2451,-1.2079,-1.1629,-1.1277,-1.1282,-1.2084,0.0,-1.1801,-1.2503,-1.2654,-1.2619,-1.2714,-1.331,-1.3737,-1.3737,-1.4452,-1.5102,-1.5246,-1.6083,-1.6716,-1.687,-1.729,-1.7865,-1.8077,-1.8529,-1.8404,-1.7233,-1.6214,-1.5878,-1.6672,-1.6227,-1.5992,-1.6362,-1.6219,-1.4728,-1.4078,-1.4046,-1.4289,-1.4895,-1.5639,-1.5556,-1.5725,-1.596,-1.5973,-1.5358,-1.4378,-1.4684,0.0,-1.5604,-1.5892,-1.6179,-1.643,-1.6755,-1.7041,-1.7313,-1.7528,-1.7649,-1.7649,-1.7397,-1.745,-1.7662,-1.745,-1.7674,-1.8408,-1.6892,-1.6388,-1.6839,-1.6562,-1.6867,-1.7702,-1.8504,-1.8931,-1.8901,-1.9225,-1.9359,-1.9301,-1.8939,-1.8089,-1.6839,-1.5898,-1.4832,-1.3444,-1.272,-1.2289,-1.2043,0.0,0.0,0.0,0.0,0.0,0.0,0.0,0.0,0.0,0.0,0.0,0.0,0.0,0.0,-0.7997,-0.9509,0.0,-1.0741,-1.1054,0.0,0.0,0.0,-1.1487,-1.1377,-1.177,-1.1976,-1.1819,0.0,0.0,-1.3433,-1.4831,-1.5285,-1.3848,-1.249,-1.2285,-1.4006,-1.3184,-1.2772,-1.4433,-1.4703,-1.4712,-1.4703,-1.5836,-1.6664,-1.6664,-1.7032,-1.7179,-1.7262,-1.761,-1.7663,-1.7917,-1.9007,-2.0124,-2.0375,-2.1597,-2.1837,-1.878,-1.8055,-1.8402,-1.986,-2.0043,-1.9829,-1.6607,-1.658,-1.6202,-1.6034,-1.5985,-1.6064,-1.6338,-1.677,-1.6783,-1.6685,-1.6598,-1.6611,-1.62,-1.558,-1.5883,-1.6175,-1.6506,-1.6794,-1.7134,-1.7569,-1.7702,-1.7902,-1.817,-1.825,-1.8277,-1.8277,-1.8222,-1.8222,-1.8277,-1.8222,-1.8302,-1.8477,-1.8068,-1.8029,-1.8328,-1.783,-1.795,-1.8611,-1.8811,-1.9038,-1.9252,-1.9332,-1.9243,-1.8997,-1.7981,-1.7508,-1.7665,-1.6539,-1.6032,-1.6211,-1.5851,-1.547,-1.5009,-1.3997,0.0,0.0,0.0,0.0,0.0,0.0,0.0,0.0,0.0,-0.938,-0.996,0.0,-0.9574,0.0,-1.2559,-1.3112,-1.2955,-1.3505,0.0,0.0,-1.3595,-1.3725,-1.3348,-1.4519,-1.5042,-1.4092,-1.5579,-1.6862,-1.7318,-1.6977,-1.7024,-1.7728,-1.633,-1.5417,-1.5884,-1.5831,-1.582,-1.625,-1.6342,-1.6379,-1.661,-1.6908,-1.7378,-1.7303,-1.8581,-1.9564,-1.9564,-2.0665,-2.1601,-2.1702,-2.1883,-2.2112,-2.2348,-2.3024,-2.3239,-2.2537,-2.1112,-2.0057,-2.0648,-1.983,-1.9404,-1.7101,-1.7114,-1.7248,-1.725,-1.7223,-1.6868,-1.6921,-1.7199,-1.7331,-1.7358,-1.737,-1.708,-1.6885,-1.6743,-1.6898,-1.7068,-1.7318,-1.7648,-1.7927,-1.825,-1.8328,-1.8517,-1.8691,-1.8824,-1.8878,-1.8934,-1.8878,-1.8878,-1.8878,-1.8878,-1.8891,-1.8878,-1.8878,-1.8958,-1.9092,-1.8664,-1.8664,-1.9118,-1.9118,-1.9199,-1.9417,-1.943,-1.9434,-1.9483,-1.8412,-1.8148,-1.8744,-1.7621,-1.7216,-1.7679,-1.7466,-1.7198,-1.6899,-1.6096,-1.5662,0.0,0.0,0.0,0.0,0.0,0.0,0.0,0.0,0.0,0.0,0.0,-1.1855,-1.3444,-1.4351,-1.4934,-1.5064,-1.5391,-1.5525,-1.5494,-1.5864,-1.603,-1.5936,-1.6768,-1.7169,-1.6529,-1.7675,-1.862,-1.8959,-1.9186,-1.9552,-2.0285,-1.9802,-1.8996,-1.7978,-1.7419,-1.7295,-1.806,-1.8229,-1.8682,-1.965,-2.019,-2.0506,-2.0583,-2.1269,-2.189,-2.189,-2.2585,-2.3265,-2.3401,-2.3438,-2.3525,-2.3773,-2.399,-2.4246,-2.4302,-2.349,-2.2744,-2.2691,-2.1838,-2.1585,-1.7609,-1.7675,-1.7876,-1.8022,-1.8009,-1.7226,-1.7134,-1.7409,-1.7657,-1.7906,-1.8184,-1.7608,-1.7479,-1.771,-1.7816,-1.7939,-1.8129,-1.8464,-1.8611,-1.8624,-1.8865,-1.8985,-1.8998,-1.9239,-1.943,-1.943,-1.943,-1.943,-1.943,-1.943,-1.943,-1.943,-1.943,-1.9444,-1.9412,-1.9132,-1.9105,-1.9417,-1.9497,-1.9479,-1.9537,-1.9479,-1.9733,-2.0167,-1.9443,-1.9201,-1.9724,-1.8771,-1.83,-1.8558,-1.8261,-1.8052,-1.8135,-1.7745,-1.7485,0.0,-1.6041,0.0,0.0,0.0,0.0,0.0,0.0,0.0,0.0,-1.3943,-1.4558,-1.4988,-1.589,-1.6657,-1.7233,-1.7204,-1.7337,-1.7816,-1.8125,-1.8371,-1.8594,-1.8788,-1.8886,-1.8886,-1.9361,-1.9734,-1.9873,-2.1319,-2.2179,-2.1978,-2.2341,-2.202,-2.045,-1.9043,-1.8818,-2.0091,-2.0296,-2.1053,-2.2685,-2.3705,-2.4009,-2.4099,-2.3843,-2.3816,-2.3778,-2.3868,-2.3893,-2.3943,-2.4212,-2.4494,-2.4748,-2.489,-2.4967,-2.5209,-2.513,-2.4933,-2.4866,-2.4597,-2.4869,-1.7729,-1.7902,-1.7969,-1.8183,-1.8397,-1.8235,-1.83,-1.8565,-1.8619,-1.8672,-1.8698,-1.8419,-1.83,-1.8368,-1.8595,-1.8701,-1.8771,-1.9065,-1.9199,-1.9269,-1.9252,-1.9279,-1.9279,-1.9345,-1.943,-1.943,-1.943,-1.943,-1.943,-1.943,-1.943,-1.943,-1.943,-1.9479,-1.9693,0.0,0.0,0.0,-1.9826,-2.0067,-2.0067,-2.0067,-2.0241,-2.0561,-1.9727,0.0,-1.9794,-1.9376,-1.9264,-1.9463,-1.8829,0.0,0.0,0.0,0.0,0.0,0.0,0.0,0.0,0.0,0.0,0.0,-1.7245,-1.7089,-1.6461,-1.7347,-1.7745,-1.7383,-1.8765,-1.9798,-1.9924,-2.0393,-2.0528,-2.0323,-2.0578,-2.0717,-2.0504,-2.0689,-2.0851,-2.0851,-2.1331,-2.1816,-2.2102,-2.2688,-2.3077,-2.3137,-2.3404,-2.3267,-2.2732,-2.2212,-2.2323,-2.2694,-2.2779,-2.3265,-2.3997,-2.4252,-2.4406,-2.4278,-2.4508,-2.4598,-2.4701,-2.4688,-2.4765,-2.4959,-2.5035,-2.512,-2.5401,-2.5706,-2.5933,-2.5998,-2.5842,-2.5514,-2.5209,-2.524,-2.5405,-1.7849,-1.8022,-1.8302,-1.8571,0.0,-1.8865,-1.9011,-1.9132,-1.8985,-1.9011,-1.9132,-1.8985,-1.8931,-1.8931,-1.9078,-1.9145,-1.9158,-1.9305,-1.943,-1.943,-1.943,-1.943,-1.943,-1.943,-1.943,-1.943,-1.943,-1.943,-1.943,-1.943,-1.943,-1.943,-1.943,-1.9439,-1.9573,-1.9439,-1.943,-1.943,-1.98,-2.0013,-2.0027,-2.0027,-2.0227,-2.0628,-1.9826,0.0,0.0,0.0,0.0,0.0,0.0,0.0,0.0,0.0,0.0,-1.9127,-1.8735,-1.8521,-1.8678,-1.8446,-1.8246,-1.8282,-1.8783,-1.8929,-1.8493,-1.911,-1.9509,-1.951,-2.0357,-2.0972,-2.1309,-2.1474,-2.1569,-2.1701,-2.1846,-2.1924,-2.1934,-2.2078,-2.217,-2.2183,-2.2437,-2.2691,-2.2994,-2.332,-2.3572,-2.3622,-2.3891,-2.4022,-2.3709,-2.3513,-2.3438,-2.3464,-2.3971,-2.4418,-2.4662,-2.5088,-2.5309,-2.5322,-2.5322,-2.5322,-2.5322,-2.5322,-2.5374,-2.5531,-2.5766,-2.6013,-2.6157,-2.6449,-2.6716,-2.6703,-2.6678,-2.6505,-2.6183,-2.6035,-2.5992,-1.8102,-1.8182,-1.8718,-1.8958,-1.9025,-1.9265,-1.943,-1.9359,0.0,0.0,0.0,-1.943,-1.943,-1.943,-1.943,-1.943,-1.943,-1.943,-1.943,-1.943,-1.943,-1.943,-1.943,-1.943,-1.943,-1.943,-1.943,-1.943,-1.943,-1.943,-1.943,-1.943,-1.943,-1.943,-1.943,-1.943,-1.943,-1.9444,-1.9706,-1.988,-1.988,-1.988,-2.0134,-2.0668,-1.9826,-1.9613,-2.012,-1.9693,-1.9548,-1.9711,-1.9737,-1.9868,-2.0067,-1.9833,-1.9779,-1.982,-1.9426,-1.9279,-1.9631,-1.9372,-1.9279,-1.9372,-1.984,-2.008,-2.004,-2.0294,-2.0695,-2.1216,-2.1278,-2.1477,-2.2031,-2.1925,-2.1965,-2.2472,-2.2498,-2.2592,-2.2819,-2.2859,-2.2873,-2.2926,-2.2953,-2.3086,-2.339,-2.3714,-2.3883,-2.3872,-2.4256,-2.4488,-2.4193,-2.3883,-2.3761,-2.3864,-2.4477,-2.5058,-2.519,-2.5778,-2.636,-2.6267,-2.6043,-2.5911,-2.5911,-2.5951,-2.5964,-2.5885,-2.6414,-2.6787,-2.6921,-2.7094,-2.7281,-2.7335,-2.7295,-2.7281,-2.7308,-2.6943,-2.6741,-1.8571,-1.8755,-1.8891,-1.9078,-1.9305,-1.9403,-1.943,-1.943,-1.9377,-1.939,-1.943,-1.943,-1.943,-1.943,-1.943,-1.943,-1.943,-1.943,-1.943,-1.943,-1.943,-1.943,-1.943,-1.943,-1.943,-1.943,-1.943,-1.943,-1.943,-1.943,-1.943,-1.943,-1.943,-1.943,-1.943,-1.943,-1.943,-1.943,-1.9907,-2.0174,-2.0174,-2.0174,-2.0334,-2.0615,-1.9886,-1.9519,-1.984,-1.9786,-1.9773,-1.9794,-1.9807,-1.988,-2.0133,-1.992,-1.99,-2.0087,-2.0094,-2.0174,-2.0468,-2.0454,-2.0641,-2.1122,-2.132,-2.1203,-2.0962,-2.1203,-2.151,-2.183,-2.2045,-2.2245,-2.2378,-2.2565,-2.2657,-2.2779,-2.2792,-2.2887,-2.2859,-2.2873,-2.2979,-2.3207,-2.326,-2.3474,-2.3928,-2.4088,-2.4222,-2.4416,-2.4522,-2.4562,-2.4515,-2.4488,-2.452,-2.4834,-2.5139,-2.5521,-2.5761,-2.6067,-2.6373,-2.64,-2.6307,-2.632,-2.6268,-2.6427,-2.6494,-2.6374,-2.6867,-2.7148,-2.7188,-2.7228,-2.7375,-2.7535,-2.7455,-2.7375,-2.7602,-2.7706,-2.7799,-1.8811,-1.8945,-1.9092,-1.9239,-1.943,-1.943,-1.943,-1.943,-1.943,-1.943,-1.943,-1.943,-1.943,-1.943,-1.943,-1.943,-1.943,-1.943,-1.943,-1.943,-1.943,-1.943,-1.943,-1.943,-1.9511,-1.9586,-1.9599,-1.9679,-1.9826,-1.984,-1.984,-1.984,-1.984,-1.984,-1.984,-1.984,-1.984,-1.984,-1.9947,-2.0,-2.0,-2.0,-2.0134,-2.0414,-1.9733,-1.9506,-1.9786,-1.98,-1.98,-1.98,-1.9947,-2.0174,-2.0454,-2.0494,-2.0641,-2.0922,-2.0949,-2.1082,-2.1363,-2.1306,-2.1336,-2.1815,-2.179,-2.1804,-2.1817,-2.1937,-2.2084,-2.2218,-2.2485,-2.2659,-2.2659,-2.2779,-2.2859,-2.2859,-2.2859,-2.2859,-2.2886,-2.302,-2.3166,-2.3313,-2.3474,-2.3728,-2.4155,-2.4209,-2.4315,-2.4569,-2.4636,-2.469,-2.485,-2.4877,-2.4917,-2.5077,-2.5331,-2.5611,-2.5905,-2.6199,-2.6373,-2.64,-2.64,-2.6453,-2.6573,-2.676,-2.6814,-2.6881,-2.7228,-2.7388,-2.739,-2.7402,-2.7549,-2.7629,-2.7615,-2.7669,-2.8056,-2.8417,-2.8671,-1.9025,-1.9052,-1.9265,-1.943,-1.943,-1.943,-1.943,-1.943,-1.943,-1.9457,-1.9452,-1.9399,-1.943,-1.943,-1.943,-1.9399,-1.9466,-1.9524,-1.9492,-1.9559,-1.9559,-1.9559,-1.9559,-1.9559,-1.9679,-1.988,-1.9893,-2.0013,-2.0214,-2.018,-2.018,-2.018,-2.018,-2.018,-2.018,-2.018,-2.018,-2.0153,-2.0013,-1.9893,-1.9893,-1.984,-1.9933,-2.0174,-1.9746,-1.9599,-1.988,-2.0027,-2.0067,-2.0013,-2.0334,-2.0641,-2.0931,-2.1082,-2.1336,-2.1681,-2.1722,-2.1842,-2.2044,-2.1951,-2.2016,-2.2164,-2.2178,-2.2271,-2.2485,-2.2525,-2.2525,-2.2539,-2.2726,-2.2859,-2.2846,-2.2859,-2.2859,-2.2859,-2.2859,-2.2899,-2.2979,-2.318,-2.3394,-2.35,-2.3728,-2.3981,-2.4222,-2.4302,-2.4436,-2.4676,-2.4743,-2.485,-2.5104,-2.5184,-2.5197,-2.5304,-2.5478,-2.5692,-2.601,-2.6199,-2.6373,-2.64,-2.64,-2.6507,-2.672,-2.6854,-2.6987,-2.7201,-2.7468,-2.7535,-2.7348,-2.7428,-2.7549,-2.7575,-2.7602,-2.7896,-2.8537,-2.8978,-2.9285,-1.9332,-1.939,-1.9386,-1.943,-1.9444,-1.943,-1.943,-1.9444,-1.943,-1.9519,-1.972,-1.9492,-1.9444,-1.943,-1.9444,-1.9519,-1.976,-1.976,-1.9893,-2.0107,-2.0147,-2.016,-2.012,-2.0134,-2.01,-2.0127,-2.0201,-2.0227,-2.0281,-2.0267,-2.0193,-2.018,-2.018,-2.0193,-2.0193,-2.0193,-2.0241,-2.018,-2.0153,-2.0127,-2.0174,-1.9933,-1.9933,-2.0227,-1.9933,-1.9893,-2.0227,-2.0695,-2.0869,-2.0668,-2.1186,-2.143,-2.1534,-2.1561,-2.1708,-2.1924,-2.1951,-2.2071,-2.2352,-2.2605,-2.2726,-2.2847,-2.2752,-2.2766,-2.2806,-2.2819,-2.2819,-2.2819,-2.2846,-2.2859,-2.2859,-2.2859,-2.2859,-2.2859,-2.2886,-2.2966,-2.322,-2.33,-2.3527,-2.4075,-2.4115,-2.4275,-2.4502,-2.4556,-2.469,-2.4903,-2.497,-2.509,-2.5358,-2.5464,-2.5571,-2.5785,-2.5905,-2.5996,-2.6012,-2.6199,-2.636,-2.64,-2.64,-2.6533,-2.6787,-2.7054,-2.7255,-2.7415,-2.7535,-2.7615,-2.7402,-2.7377,-2.7403,-2.7428,-2.7615,-2.7989,-2.8791,-2.9392,-2.97,-1.988,-1.988,-1.988,-1.988,-1.984,-1.9519,-1.9466,-1.9613,-1.9626,-1.9693,-1.98,-1.9853,-1.988,-1.988,-1.988,-1.9947,-2.0054,-2.0054,-2.012,-2.0227,-2.018,-2.018,-2.018,-2.018,-2.0321,-2.0481,-2.0494,-2.0588,-2.0722,-2.0748,-2.0748,-2.0748,-2.0748,-2.0748,-2.0748,-2.0748,-2.0748,-2.0762,-2.0922,-2.1015,-2.0935,-2.0388,-2.0281,-2.0668,-2.0468,-2.0535,-2.0975,-2.1256,-2.1387,-2.1293,-2.159,-2.1804,-2.1804,-2.1964,-2.2111,-2.2245,-2.2405,-2.2552,-2.2672,-2.2861,-2.2859,-2.2859,-2.2859,-2.2859,-2.2859,-2.2859,-2.2859,-2.2859,-2.2859,-2.2859,-2.2859,-2.2859,-2.2859,-2.2886,-2.302,-2.3193,-2.33,-2.3634,-2.3968,-2.4182,-2.4356,-2.4489,-2.4596,-2.4636,-2.469,-2.4823,-2.4957,-2.5211,-2.5464,-2.5651,-2.5892,-2.6132,-2.6213,-2.6213,-2.6213,-2.6293,-2.6386,-2.64,-2.64,-2.652,-2.6974,-2.7148,-2.7348,-2.7682,-2.7843,-2.7829,-2.7589,-2.7362,-2.735,-2.7362,-2.7869,-2.8417,-2.8938,-2.9499,-2.978,-2.018,-2.018,-2.018,-2.018,-2.0201,-1.9786,-1.972,-1.9907,-1.992,-1.996,-2.0067,-2.0267,-2.0401,-2.0563,-2.0321,-2.0207,-2.0347,-2.0361,-2.0401,-2.0468,-2.0468,-2.042,-2.0468,-2.0468,-2.0588,-2.0762,-2.0802,-2.0909,-2.1096,-2.1109,-2.1109,-2.1109,-2.1189,-2.1229,-2.1243,-2.1296,-2.1349,-2.1363,-2.1563,-2.1735,-2.1577,-2.1042,-2.0922,-2.1283,-2.1069,-2.1149,-2.1643,-2.1815,-2.1856,-2.179,-2.2137,-2.2231,-2.2231,-2.2432,-2.2539,-2.2552,-2.2739,-2.2859,-2.2859,-2.2859,-2.2859,-2.2859,-2.2859,-2.2859,-2.2859,-2.2859,-2.2859,-2.2859,-2.2859,-2.2859,-2.2859,-2.2859,-2.2886,-2.2979,-2.3207,-2.3367,-2.3581,-2.3981,-2.4222,-2.4329,-2.4502,-2.4636,-2.4636,-2.4636,-2.4676,-2.4796,-2.5037,-2.5304,-2.5598,-2.5892,-2.6159,-2.636,-2.6386,-2.6386,-2.64,-2.6386,-2.64,-2.64,-2.64,-2.66,-2.7121,-2.7323,-2.7537,-2.7913,-2.8127,-2.81,-2.7696,-2.7455,-2.7377,-2.7415,-2.7856,-2.8511,-2.8951,-2.9459,-2.9766,-2.018,-2.0254,-2.018,-2.0254,-2.0227,-2.0187,-2.0187,-2.0274,-2.0227,-2.0374,-2.0663,-2.073,-2.1002,-2.1442,-2.0706,-2.0401,-2.069,-2.0717,-2.0851,-2.1002,-2.1029,-2.1056,-2.1069,-2.1069,-2.1056,-2.1042,-2.1042,-2.1145,-2.1186,-2.1186,-2.1109,-2.1199,-2.1659,-2.173,-2.1822,-2.2089,-2.2003,-2.2081,-2.2134,-2.203,-2.1964,-2.1911,-2.1897,-2.1924,-2.1735,-2.1722,-2.1964,-2.2231,-2.2378,-2.2378,-2.2632,-2.2861,-2.2806,-2.2819,-2.2887,-2.2832,-2.2846,-2.2859,-2.2859,-2.2859,-2.2859,-2.2859,-2.2859,-2.2859,-2.2859,-2.2859,-2.2859,-2.2859,-2.2859,-2.2859,-2.2928,-2.2899,-2.3006,-2.3233,-2.3327,-2.3607,-2.4075,-2.4155,-2.4329,-2.4529,-2.4609,-2.4636,-2.4636,-2.4636,-2.4743,-2.497,-2.5277,-2.5545,-2.5798,-2.6132,-2.6306,-2.6373,-2.64,-2.64,-2.64,-2.64,-2.64,-2.64,-2.644,-2.6587,-2.6974,-2.7417,-2.7725,-2.8006,-2.8154,-2.8016,-2.7749,-2.7549,-2.7402,-2.7455,-2.7642,-2.8163,-2.9005,-2.9285,-2.9579,-2.1224,-2.1396,-2.1265,-2.1231,-2.1355,-2.0997,-2.1003,-2.1196,-2.1403,-2.1541,-2.1665,-2.1845,-2.206,-2.2193,-2.1665,-2.1341,-2.1325,-2.1513,-2.1505,-2.1488,-2.1601,-2.1601,-2.1425,-2.1425,-2.1299,-2.1109,-2.1109,-2.171,-2.2702,-2.2779,-2.3374,-2.4314,-2.4562,-2.4574,-2.4589,-2.4679,-2.4301,-2.3485,-2.3525,-2.3242,-2.2351,-2.2445,-2.2539,-2.2525,-2.2258,-2.2245,-2.2539,-2.2659,-2.2699,-2.2699,-2.2806,-2.2859,-2.2859,-2.2859,-2.2859,-2.2859,-2.2859,-2.2859,-2.2859,-2.2859,-2.2859,-2.2859,-2.2859,-2.2859,-2.2859,-2.2859,-2.2859,-2.2859,-2.2859,-2.2859,-2.2899,-2.3033,-2.3193,-2.334,-2.3661,-2.3941,-2.4182,-2.4356,-2.4516,-2.4609,-2.4636,-2.4636,-2.4636,-2.4636,-2.4676,-2.4796,-2.505,-2.5344,-2.5638,-2.5932,-2.6186,-2.6333,-2.64,-2.64,-2.64,-2.64,-2.64,-2.64,-2.6453,-2.672,-2.7041,-2.731,-2.7578,-2.8047,-2.8207,-2.8167,-2.7843,-2.7682,-2.7549,-2.7832,-2.7923,-2.8257,-2.9152,-2.9379,-2.9606,-2.1915,-2.2139,-2.2377,-2.2591,-2.2736,-2.2924,-2.3078,-2.3316,-2.3691,-2.384,-2.3884,-2.4015,-2.4168,-2.4138,-2.3564,-2.316,-2.2863,-2.2391,-2.1992,-2.1853,-2.2418,-2.2606,-2.2292,-2.2341,-2.2523,-2.2734,-2.2912,-2.3579,-2.4393,-2.455,-2.5167,-2.62,-2.6376,-2.644,-2.6456,-2.6487,-2.5838,-2.4737,-2.465,-2.4032,-2.2795,-2.2752,-2.3133,-2.3502,-2.3323,-2.312,-2.2928,-2.2859,-2.2859,-2.2859,-2.2859,-2.2859,-2.2859,-2.2859,-2.2859,-2.2859,-2.2859,-2.2859,-2.2859,-2.2859,-2.2859,-2.2859,-2.2859,-2.2859,-2.2859,-2.2859,-2.2859,-2.2859,-2.2859,-2.2859,-2.2939,-2.322,-2.3474,-2.3527,-2.3915,-2.4249,-2.4342,-2.4516,-2.4609,-2.4623,-2.4636,-2.4636,-2.4636,-2.4636,-2.4636,-2.4636,-2.489,-2.517,-2.5358,-2.5718,-2.609,-2.6213,-2.6333,-2.6373,-2.64,-2.64,-2.64,-2.64,-2.64,-2.6707,-2.7041,-2.7269,-2.7551,-2.802,-2.8207,-2.8167,-2.7976,-2.7829,-2.7909,-2.8194,-2.8248,-2.8435,-2.8965,-2.9432,-2.9646,-2.2104,-2.2292,-2.3527,-2.3961,-2.4208,-2.5482,-2.6389,-2.6438,-2.6909,-2.6914,-2.6851,-2.709,-2.7107,-2.728,-2.6136,-2.5657,-2.5262,-2.368,-2.2629,-2.246,-2.3479,-2.3837,-2.3556,-2.3634,-2.4423,-2.5501,-2.6388,-2.6486,-2.628,-2.628,-2.644,-2.6568,-2.6987,-2.7247,-2.6873,-2.7327,-2.6659,-2.5591,-2.5405,-2.4573,-2.3119,-2.3256,-2.387,-2.4873,-2.5046,-2.4506,-2.327,-2.3201,-2.3324,-2.327,-2.3133,-2.2928,-2.2928,-2.2859,-2.2859,-2.2859,-2.2859,-2.2859,-2.2859,-2.2859,-2.2859,-2.2859,-2.2859,-2.2859,-2.2859,-2.2859,-2.2859,-2.2859,-2.2859,-2.2859,-2.2953,-2.338,-2.3728,-2.3794,-2.4048,-2.4342,-2.4543,-2.4549,-2.4636,-2.4636,-2.4636,-2.4636,-2.4636,-2.4636,-2.4636,-2.4676,-2.485,-2.505,-2.5157,-2.5531,-2.5865,-2.6026,-2.6159,-2.6279,-2.6346,-2.64,-2.64,-2.64,-2.6413,-2.6573,-2.7028,-2.7363,-2.7618,-2.8033,-2.8221,-2.8194,-2.81,-2.798,-2.814,-2.8315,-2.8382,-2.8623,-2.9125,-2.9619,-2.9659,-2.2793,-2.2885,-2.348,-2.431,-2.5219,-2.6039,-2.6816,-2.7792,-2.8167,-2.832,-2.832,-2.832,-2.8384,-2.8332,-2.7748,-2.7504,-2.7407,-2.6608,-2.5581,-2.4421,-2.4626,-2.4781,-2.4515,-2.387,-2.4034,-2.5198,-2.6263,-2.7286,-2.7902,-2.8,-2.8567,-2.9614,-2.9866,-2.9919,-2.9789,-2.9977,-2.9378,-2.8131,-2.7932,-2.727,-2.592,-2.5786,-2.6121,-2.6655,-2.6788,-2.6655,-2.6522,-2.6254,-2.6121,-2.6054,-2.5196,-2.4196,-2.3188,-2.2859,-2.2859,-2.2859,-2.2859,-2.2859,-2.2928,-2.2928,-2.2928,-2.2928,-2.2928,-2.2859,-2.2859,-2.2928,-2.2928,-2.2928,-2.2859,-2.2859,-2.3035,-2.3407,-2.3754,-2.3781,-2.4209,-2.4516,-2.4609,-2.4636,-2.4636,-2.4636,-2.4636,-2.4636,-2.4636,-2.4636,-2.4636,-2.4636,-2.4743,-2.4836,-2.5064,-2.5237,-2.5558,-2.5865,-2.6026,-2.6213,-2.6333,-2.64,-2.64,-2.64,-2.64,-2.6533,-2.6961,-2.739,-2.7671,-2.7966,-2.8154,-2.8194,-2.81,-2.8295,-2.8514,-2.8686,-2.8947,-2.9292,-2.9655,-2.9766,-2.9856,-2.3616,-2.3436,-2.456,-2.5282,-2.5992,-2.722,-2.834,-2.9277,-3.0139,-3.051,-3.051,-3.051,-3.051,-3.0329,-2.9796,-2.9436,-2.9418,-2.9295,-2.8455,-2.724,-2.703,-2.6934,-2.6839,-2.6736,-2.6503,-2.7049,-2.8396,-2.9351,-2.9889,-2.997,-3.0462,-3.1277,-3.1506,-3.1442,-3.1442,-3.1506,-3.0908,-2.9657,-2.9347,-2.8723,-2.7718,-2.7387,-2.7701,-2.8443,-2.8641,-2.91,-2.9817,-2.9687,-2.9034,-2.785,-2.6321,-2.4979,-2.3924,-2.3324,-2.3133,-2.3597,-2.3665,-2.3665,-2.3679,-2.3734,-2.3665,-2.3665,-2.3665,-2.3665,-2.3665,-2.3665,-2.3529,-2.2996,-2.2859,-2.2859,-2.2939,-2.3477,-2.3741,-2.3781,-2.4289,-2.4596,-2.4636,-2.4636,-2.4636,-2.4636,-2.4636,-2.4636,-2.4636,-2.4636,-2.4636,-2.4636,-2.4562,-2.4589,-2.489,-2.501,-2.5358,-2.5678,-2.5905,-2.6106,-2.6346,-2.64,-2.64,-2.64,-2.64,-2.66,-2.6921,-2.7188,-2.7537,-2.805,-2.8305,-2.8305,-2.8322,-2.8769,-2.9047,-2.9292,-2.9403,-2.9858,-3.0151,-3.0109,-3.015,-2.4595,-2.4082,-2.6454,-2.6952,-2.6727,-2.9309,-3.0628,-3.108,-3.2428,-3.3044,-3.3126,-3.2961,-3.3107,-3.2936,-3.1787,-3.1322,-3.1359,-3.1046,-3.0817,-3.0563,-3.0288,-2.9831,-2.9208,-3.0346,-3.0465,-3.0239,-3.163,-3.2218,-3.1643,-3.1643,-3.1782,-3.157,-3.1782,-3.1782,-3.1635,-3.1782,-3.1313,-3.0307,-2.9787,-2.9313,-2.8641,-2.8229,-2.8772,-3.0337,-3.0484,-3.113,-3.2256,-3.2384,-3.1258,-2.8624,-2.6972,-2.6039,-2.5383,-2.406,-2.406,-2.5061,-2.5143,-2.5143,-2.5143,-2.4805,-2.497,-2.5149,-2.4902,-2.509,-2.5134,-2.5105,-2.4602,-2.3393,-2.3201,-2.3065,-2.3104,-2.3407,-2.3754,-2.3901,-2.4342,-2.4609,-2.4636,-2.4636,-2.4636,-2.4636,-2.4636,-2.4636,-2.4636,-2.4636,-2.4636,-2.4636,-2.4636,-2.4663,-2.4703,-2.489,-2.5157,-2.5424,-2.5678,-2.5959,-2.6172,-2.6386,-2.6386,-2.64,-2.6413,-2.6587,-2.6894,-2.7161,-2.7564,-2.8063,-2.8487,-2.8473,-2.8558,-2.8992,-2.9226,-2.9295,-2.9694,-3.023,-3.045,-3.0376,-3.0355,-2.5941,-2.5219,-2.711,-2.8014,-2.8324,-3.0291,-3.175,-3.2675,-3.3107,-3.3418,-3.3418,-3.3418,-3.3418,-3.3355,-3.3019,-3.2829,-3.2727,-3.2631,-3.2675,-3.2719,-3.2642,-3.108,-2.975,-3.0783,-3.1367,-3.1066,-3.22,-3.2657,-3.2294,-3.2294,-3.223,-3.2166,-3.223,-3.223,-3.2166,-3.223,-3.2102,-3.1763,-3.1635,-3.1423,-3.123,-3.1083,-3.1469,-3.2065,-3.2192,-3.2511,-3.3228,-3.3292,-3.2365,-3.0319,-2.9213,-2.8114,-2.7187,-2.6522,-2.6254,-2.6522,-2.6788,-2.6788,-2.6388,-2.5667,-2.5704,-2.6728,-2.5937,-2.5584,-2.6879,-2.6729,-2.5883,-2.4805,-2.4413,-2.4006,-2.3296,-2.3407,-2.3888,-2.4342,-2.4543,-2.4636,-2.4636,-2.4636,-2.4636,-2.4636,-2.4636,-2.4636,-2.4636,-2.4636,-2.4636,-2.4636,-2.4636,-2.4636,-2.4589,-2.4703,-2.493,-2.517,-2.5424,-2.5732,-2.5999,-2.6253,-2.6373,-2.6386,-2.644,-2.6533,-2.6894,-2.7255,-2.7642,-2.814,-2.8628,-2.8824,-2.8726,-2.8894,-2.9063,-2.9531,-2.9941,-3.0542,-3.0608,-3.0588,-3.0588,-2.7313,-2.6747,-2.8282,-2.8951,-2.9181,-3.0635,-3.179,-3.2575,-3.3165,-3.3418,-3.3418,-3.3418,-3.3418,-3.3418,-3.3355,-3.3355,-3.3418,-3.3418,-3.3355,-3.3355,-3.3316,-3.234,-3.1339,-3.1907,-3.2046,-3.1982,-3.2702,-3.2867,-3.2676,-3.2613,-3.2549,-3.2422,-3.2549,-3.2549,-3.2358,-3.2549,-3.2613,-3.2549,-3.2485,-3.2485,-3.2804,-3.2676,-3.2804,-3.3038,-3.3102,-3.3228,-3.3355,-3.3418,-3.2892,-3.1835,-3.0854,-2.9817,-2.9034,-2.818,-2.8048,-2.8295,-2.8492,-2.8443,-2.8114,-2.7336,-2.7429,-2.8191,-2.741,-2.7611,-2.8442,-2.8461,-2.7652,-2.6388,-2.5667,-2.4805,-2.4036,-2.3827,-2.4354,-2.5267,-2.4991,-2.4636,-2.4636,-2.4636,-2.4636,-2.4636,-2.4636,-2.4636,-2.4636,-2.4636,-2.4636,-2.4636,-2.4636,-2.4636,-2.4636,-2.4649,-2.4716,-2.4997,-2.5224,-2.5518,-2.5825,-2.6092,-2.6319,-2.636,-2.6413,-2.6507,-2.6881,-2.7295,-2.7655,-2.813,-2.8658,-2.9076,-2.8908,-2.9047,-2.976,-3.0225,-3.0479,-3.0716,-3.0873,-3.0794,-3.0794,-2.8828,-2.8386,-2.9759,-2.996,-2.9765,-3.0936,-3.1707,-3.1835,-3.2892,-3.3418,-3.3418,-3.3418,-3.3418,-3.3418,-3.3418,-3.3418,-3.3418,-3.3418,-3.3418,-3.3418,-3.3418,-3.3044,-3.298,-3.298,-3.3082,-3.3146,-3.3355,-3.3228,-3.2975,-3.2994,-3.2804,-3.274,-3.2867,-3.2804,-3.2676,-3.2867,-3.2931,-3.2931,-3.274,-3.2867,-3.3165,-3.3102,-3.3102,-3.3292,-3.3355,-3.3355,-3.3355,-3.3418,-3.3292,-3.3355,-3.1835,-3.1111,-3.0789,-2.9409,-2.9361,-3.016,-3.029,-3.016,-2.9965,-2.9526,-2.9602,-3.0094,-2.9837,-2.99,-3.0425,-3.0399,-2.9595,-2.8048,-2.6573,-2.5697,-2.5047,-2.4693,-2.5641,-2.6705,-2.6008,-2.5492,-2.5065,-2.4844,-2.4636,-2.4636,-2.4636,-2.4636,-2.4636,-2.4636,-2.4636,-2.4636,-2.4636,-2.4636,-2.4636,-2.4636,-2.473,-2.4903,-2.5117,-2.5317,-2.5625,-2.5945,-2.6159,-2.6319,-2.6373,-2.652,-2.6894,-2.7268,-2.7602,-2.812,-2.8812,-2.8992,-2.8908,-2.9382,-3.017,-3.0411,-3.0365,-3.0947,-3.1547,-3.1259,-3.1062,-3.0438,-2.9759,-3.1153,-3.1377,-3.1121,-3.2301,-3.2956,-3.2956,-3.3228,-3.3418,-3.3418,-3.3418,-3.3418,-3.3418,-3.3418,-3.3418,-3.3418,-3.3418,-3.3418,-3.3418,-3.3418,-3.3418,-3.3418,-3.3418,-3.3418,-3.3418,-3.3418,-3.3355,-3.3292,-3.3228,-3.3228,-3.3165,-3.3165,-3.3228,-3.3165,-3.3165,-3.3292,-3.3292,-3.3165,-3.3165,-3.3292,-3.3355,-3.3292,-3.3418,-3.3418,-3.3418,-3.3418,-3.3418,-3.3418,-3.3228,-3.2829,-3.232,-3.2192,-3.1918,-3.1744,-3.1809,-3.2065,-3.2001,-3.168,-3.0861,-3.0918,-3.2203,-3.1409,-3.1241,-3.2832,-3.2515,-3.1476,-2.9922,-2.818,-2.6831,-2.5876,-2.7968,-2.8499,-2.8491,-2.9004,-2.9147,-2.8141,-2.6064,-2.4918,-2.471,-2.4636,-2.4636,-2.4636,-2.4636,-2.4636,-2.4636,-2.4636,-2.4636,-2.4636,-2.4636,-2.4716,-2.4823,-2.4943,-2.5157,-2.5558,-2.5892,-2.6172,-2.6319,-2.636,-2.6493,-2.6881,-2.7201,-2.7522,-2.8149,-2.8937,-2.8978,-2.8992,-2.9439,-3.0183,-3.0127,-3.0265,-3.0876,-3.1289,-3.1222,-3.124,-3.1626,-3.1437,-3.2196,-3.2378,-3.2435,-3.3082,-3.3418,-3.3418,-3.3418,-3.3418,-3.3418,-3.3418,-3.3418,-3.3418,-3.3418,-3.3418,-3.3418,-3.3418,-3.3418,-3.3418,-3.3418,-3.3418,-3.3418,-3.3418,-3.3418,-3.3418,-3.3418,-3.3418,-3.3418,-3.3418,-3.3355,-3.3418,-3.3418,-3.3355,-3.3418,-3.3418,-3.3355,-3.3355,-3.3418,-3.3418,-3.3418,-3.3418,-3.3418,-3.3418,-3.3418,-3.3418,-3.3418,-3.3418,-3.3418,-3.3355,-3.3228,-3.3102,-3.3121,-3.3102,-3.3058,-3.2912,-3.2848,-3.2867,-3.2403,-3.191,-3.1875,-3.3246,-3.2403,-3.2833,-3.3444,-3.3554,-3.2971,-3.1764,-3.0236,-2.856,-2.7259,-2.8426,-2.9608,-3.0199,-3.0339,-3.0555,-2.9861,-2.7578,-2.5639,-2.5492,-2.5065,-2.4784,-2.4636,-2.4636,-2.471,-2.471,-2.4636,-2.4636,-2.4636,-2.4636,-2.4636,-2.4716,-2.4796,-2.5024,-2.5478,-2.5865,-2.6226,-2.6333,-2.6373,-2.6547,-2.6814,-2.7121,-2.7415,-2.8137,-2.8784,-2.9146,-2.9244,-2.9677,-3.0181,-3.058,-3.0809,-3.0936,-3.106,-3.1254,-3.117,-3.248,-3.2793,-3.2793,-3.3047,-3.3379,-3.3355,-3.3418,-3.3418,-3.3418,-3.3418,-3.3418,-3.3418,-3.3418,-3.3418,-3.3418,-3.3418,-3.3418,-3.3418,-3.3418,-3.3418,-3.3418,-3.3418,-3.3418,-3.3418,-3.3418,-3.3418,-3.3418,-3.3418,-3.3418,-3.3418,-3.3418,-3.3418,-3.3418,-3.3418,-3.3418,-3.3418,-3.3418,-3.3418,-3.3418,-3.3418,-3.3418,-3.3418,-3.3418,-3.3418,-3.3418,-3.3418,-3.3418,-3.3418,-3.3418,-3.3418,-3.3418,-3.3418,-3.3418,-3.3418,-3.3476,-3.3433,-3.3243,-3.3174,-3.3245,-3.2829,-3.2739,-3.3177,-3.3272,-3.3516,-3.395,-3.3919,-3.3604,-3.3077,-3.1866,-3.0443,-2.9127,-3.0087,-3.0854,-3.1373,-3.0973,-3.1087,-3.1138,-2.9361,-2.8012,-2.6575,-2.5932,-2.5345,-2.4844,-2.4636,-2.471,-2.4857,-2.471,-2.471,-2.477,-2.4636,-2.4636,-2.4636,-2.4716,-2.4997,-2.5438,-2.5798,-2.6172,-2.6425,-2.6386,-2.652,-2.6707,-2.6934,-2.731,-2.7973,-2.8494,-2.8965,-2.9481,-2.9914,-3.049,-3.1003,-3.1135,-3.0938,-3.1107,-3.1388,-3.1264,-3.2734,-3.2793,-3.2793,-3.3027,-3.3379,-3.3418,-3.3418,-3.3418,-3.3418,-3.3418,-3.3418,-3.3418,-3.3418,-3.3418,-3.3418,-3.3418,-3.3418,-3.3418,-3.3418,-3.3418,-3.3418,-3.3418,-3.3418,-3.3418,-3.3418,-3.3418,-3.3418,-3.3418,-3.3418,-3.3418,-3.3418,-3.3418,-3.3418,-3.3418,-3.3418,-3.3418,-3.3418,-3.3418,-3.3418,-3.3418,-3.3418,-3.3418,-3.3418,-3.3418,-3.3418,-3.3418,-3.3418,-3.3418,-3.3418,-3.3418,-3.3418,-3.3437,-3.3476,-3.3476,-3.3652,-3.3789,-3.3628,-3.3661,-3.3986,-3.3636,-3.3733,-3.416,-3.4289,-3.418,-3.4225,-3.431,-3.4031,-3.352,-3.3052,-3.2083,-3.0296,-3.1643,-3.2962,-3.3431,-3.3471,-3.3674,-3.3345,-3.2141,-2.9932,-2.8084,-2.7012,-2.6078,-2.5419,-2.5065,-2.5139,-2.5359,-2.5433,-2.5639,-2.5932,-2.5359,-2.4784,-2.471,-2.4636,-2.501,-2.5411,-2.5758,-2.6092,-2.6398,-2.6465,-2.6479,-2.6653,-2.6734,-2.7109,-2.7894,-2.862,-2.93,-2.9788,-3.015,-3.0389,-3.0785,-3.0764,-3.0838,-3.1066,-3.1293,-3.1782,-3.3125,-3.3125,-3.3125,-3.3242,-3.3398,-3.3418,-3.3418,-3.3418,-3.3418,-3.3418,-3.3418,-3.3418,-3.3418,-3.3418,-3.3418,-3.3418,-3.3418,-3.3418,-3.3418,-3.3418,-3.3418,-3.3418,-3.3418,-3.3418,-3.3418,-3.3418,-3.3418,-3.3418,-3.3418,-3.3418,-3.3418,-3.3418,-3.3418,-3.3418,-3.3418,-3.3418,-3.3418,-3.3418,-3.3418,-3.3418,-3.3418,-3.3418,-3.3418,-3.3418,-3.3418,-3.3418,-3.3418,-3.3418,-3.3418,-3.3457,-3.3633,-3.373,-3.3809,-3.3965,-3.4062,-3.4082,-3.4062,-3.4199,-3.4609,-3.4258,-3.4258,-3.4316,-3.457,-3.4609,-3.4434,-3.4336,-3.4082,-3.3633,-3.3355,-3.3038,-3.2083,-3.3379,-3.3893,-3.4107,-3.4509,-3.4724,-3.4571,-3.3918,-3.2,-2.9576,-2.8012,-2.6925,-2.6078,-2.5786,-2.5712,-2.5786,-2.6078,-2.6502,-2.7012,-2.6298,-2.5359,-2.5018,-2.4985,-2.5283,-2.5737,-2.6049,-2.6165,-2.6394,-2.6531,-2.6544,-2.6598,-2.6773,-2.7295,-2.7986,-2.8714,-2.9284,-2.9871,-3.0248,-3.0332,-3.0527,-3.0788,-3.0964,-3.1009,-3.1195,-3.1685,-3.3418,-3.3418,-3.3418,-3.3418,-3.3418,-3.3418,-3.3418,-3.3418,-3.3418,-3.3418,-3.3418,-3.3418,-3.3418,-3.3418,-3.3418,-3.3418,-3.3418,-3.3418,-3.3418,-3.3418,-3.3418,-3.3418,-3.3418,-3.3418,-3.3418,-3.3418,-3.3418,-3.3418,-3.3418,-3.3418,-3.3418,-3.3418,-3.3418,-3.3418,-3.3418,-3.3418,-3.3418,-3.3418,-3.3418,-3.3418,-3.3418,-3.3418,-3.3418,-3.3418,-3.3418,-3.3418,-3.3418,-3.3555,-3.3594,-3.3711,-3.3945,-3.4199,-3.4277,-3.4609,-3.4668,-3.4453,-3.459,-3.4726,-3.4922,-3.4707,-3.4551,-3.459,-3.4707,-3.4766,-3.459,-3.4297,-3.3926,-3.3535,-3.3355,-3.3355,-3.314,-3.3828,-3.4128,-3.4359,-3.4652,-3.4989,-3.4994,-3.4715,-3.4075,-3.1789,-2.9433,-2.7867,-2.6997,-2.7143,-2.7215,-2.7288,-2.7505,-2.7505,-2.7867,-2.7012,-2.6225,-2.5621,-2.5511,-2.5744,-2.6109,-2.6461,-2.6466,-2.6398,-2.6591,-2.6662,-2.6729,-2.6824,-2.7426,-2.8019,-2.8175,-2.8714,-2.9559,-3.0303,-3.0499,-3.0723,-3.0997,-3.1172,-3.1121,-3.1238,-3.1599,-3.3418,-3.3418,-3.3418,-3.3418,-3.3418,-3.3418,-3.3418,-3.3418,-3.3418,-3.3418,-3.3418,-3.3418,-3.3418,-3.3418,-3.3418,-3.3418,-3.3418,-3.3418,-3.3418,-3.3418,-3.3418,-3.3418,-3.3418,-3.3418,-3.3418,-3.3418,-3.3418,-3.3418,-3.3418,-3.3418,-3.3418,-3.3418,-3.3418,-3.3418,-3.3418,-3.3418,-3.3418,-3.3418,-3.3418,-3.3418,-3.3418,-3.3418,-3.3418,-3.3418,-3.3418,-3.3418,-3.3476,-3.3711,-3.3926,-3.4004,-3.4394,-3.4609,-3.4707,-3.5078,-3.5254,-3.5137,-3.5039,-3.5039,-3.5508,-3.5234,-3.4922,-3.5039,-3.5215,-3.5078,-3.4687,-3.4336,-3.3965,-3.3476,-3.3418,-3.3418,-3.3476,-3.3789,-3.4238,-3.4563,-3.4887,-3.52,-3.5316,-3.5333,-3.4765,-3.4126,-3.1842,-2.9576,-2.8012,-2.8429,-2.8772,-2.886,-2.8932,-2.8916,-2.8501,-2.765,-2.6502,-2.5754,-2.5442,-2.5662,-2.5882,-2.6323,-2.6655,-2.6424,-2.6557,-2.6816,-2.7001,-2.7148,-2.7434,-2.7866,-2.8075,-2.8621,-2.9626,-3.0272,-3.0617,-3.0763,-3.092,-3.1081,-3.1201,-3.1335,-3.1453,-3.3418,-3.3418,-3.3418,-3.3418,-3.3418,-3.3418,-3.3418,-3.3418,-3.3418,-3.3418,-3.3418,-3.3418,-3.3418,-3.3418,-3.3418,-3.3418,-3.3418,-3.3418,-3.3418,-3.3418,-3.3418,-3.3418,-3.3418,-3.3418,-3.3418,-3.3418,-3.3418,-3.3418,-3.3418,-3.3418,-3.3418,-3.3418,-3.3418,-3.3418,-3.3418,-3.3418,-3.3418,-3.3418,-3.3418,-3.3418,-3.3418,-3.3418,-3.3418,-3.3418,-3.3418,-3.3418,-3.3535,-3.3828,-3.4043,-3.4199,-3.4668,-3.5098,-3.5195,-3.5488,-3.5742,-3.5723,-3.5586,-3.5664,-3.5879,-3.5605,-3.5488,-3.5351,-3.5351,-3.5059,-3.4551,-3.4375,-3.4101,-3.3476,-3.3418,-3.3418,-3.3418,-3.3594,-3.3906,-3.4316,-3.4805,-3.5168,-3.5423,-3.5714,-3.547,-3.4902,-3.4264,-3.2053,-3.0075,-2.9702,-3.0129,-3.0288,-3.0359,-3.043,-2.9504,-2.8156,-2.6867,-2.5359,-2.5267,-2.5363,-2.5507,-2.5752,-2.6432,-2.6461,-2.6575,-2.6845,-2.7262,-2.7515,-2.7768,-2.803,-2.8372,-2.9014,-2.9837,-3.0159,-3.0481,-3.0612,-3.07,-3.089,-3.1081,-3.13,-3.1493,-3.3418,-3.3418,-3.3418,-3.3418,-3.3418,-3.3418,-3.3418,-3.3418,-3.3418,-3.3418,-3.3418,-3.3418,-3.3418,-3.3418,-3.3418,-3.3418,-3.3418,-3.3418,-3.3481,-3.3481,-3.3544,-3.3607,-3.367,-3.367,-3.367,-3.3607,-3.3607,-3.3544,-3.3544,-3.3418,-3.3418,-3.3418,-3.3418,-3.3418,-3.3418,-3.3418,-3.3418,-3.3418,-3.3418,-3.3418,-3.3418,-3.3418,-3.3418,-3.3418,-3.3418,-3.3476,-3.3633,-3.4004,-3.4238,-3.459,-3.5137,-3.5547,-3.5605,-3.5781,-3.5957,-3.5957,-3.5898,-3.5918,-3.6016,-3.5918,-3.584,-3.5664,-3.5508,-3.5312,-3.4687,-3.4648,-3.4453,-3.3691,-3.3457,-3.3437,-3.3418,-3.3437,-3.3711,-3.4101,-3.4512,-3.4902,-3.5332,-3.5675,-3.5811,-3.5333,-3.4834,-3.454,-3.277,-3.1561,-3.135,-3.1578,-3.1719,-3.186,-3.0501,-2.886,-2.7867,-2.6502,-2.6736,-2.6852,-2.6851,-2.6772,-2.6929,-2.6645,-2.6829,-2.6856,-2.7332,-2.7728,-2.7961,-2.8261,-2.8612,-2.8827,-2.9318,-2.9837,-3.0343,-3.0422,-3.0568,-3.07,-3.0876,-3.111,-3.1359,-3.3418,-3.3418,-3.3418,-3.3418,-3.3418,-3.3418,-3.3418,-3.3418,-3.3418,-3.3418,-3.3418,-3.3418,-3.3418,-3.3418,-3.3418,-3.3418,-3.3418,-3.3418,-3.3607,-3.3796,-3.3859,-3.3985,-3.411,-3.4173,-3.4235,-3.4173,-3.3985,-3.3859,-3.3796,-3.367,-3.3481,-3.3418,-3.3418,-3.3418,-3.3418,-3.3418,-3.3418,-3.3418,-3.3418,-3.3418,-3.3418,-3.3418,-3.3418,-3.3418,-3.3457,-3.3594,-3.3984,-3.4355,-3.4687,-3.5039,-3.5586,-3.5879,-3.5898,-3.5957,-3.6035,-3.6035,-3.6035,-3.6035,-3.6035,-3.6035,-3.6016,-3.5976,-3.5879,-3.5684,-3.5137,-3.4824,-3.4492,-3.4043,-3.3691,-3.3476,-3.3437,-3.3457,-3.3633,-3.3926,-3.4336,-3.4785,-3.5254,-3.5742,-3.5772,-3.5587,-3.5333,-3.504,-3.4834,-3.3466,-3.27,-3.2858,-3.2788,-3.2876,-3.1155,-2.9647,-2.9147,-2.8501,-2.886,-2.9091,-2.9266,-2.9007,-2.7937,-2.7599,-2.7621,-2.7387,-2.7383,-2.7711,-2.8261,-2.8382,-2.8625,-2.8739,-2.8846,-2.9427,-2.9917,-3.0284,-3.0437,-3.0583,-3.0773,-3.1022,-3.1183,-3.3544,-3.3733,-3.3733,-3.3607,-3.3418,-3.3418,-3.3418,-3.3418,-3.3418,-3.3418,-3.3418,-3.3418,-3.3418,-3.3418,-3.3418,-3.3544,-3.367,-3.3481,-3.3796,-3.3985,-3.4047,-3.411,-3.4298,-3.4423,-3.436,-3.4423,-3.4235,-3.4235,-3.4173,-3.3985,-3.4047,-3.3922,-3.367,-3.3418,-3.3418,-3.3418,-3.3418,-3.3418,-3.3418,-3.3418,-3.3418,-3.3418,-3.3418,-3.3418,-3.3418,-3.3476,-3.373,-3.4355,-3.4707,-3.5098,-3.5664,-3.5918,-3.6035,-3.6035,-3.6035,-3.6035,-3.6035,-3.6035,-3.6035,-3.6035,-3.6035,-3.6035,-3.5996,-3.584,-3.5469,-3.5195,-3.4726,-3.4297,-3.3926,-3.3711,-3.3457,-3.3437,-3.3535,-3.3809,-3.418,-3.4668,-3.5117,-3.5586,-3.5889,-3.5724,-3.5743,-3.5675,-3.5538,-3.5245,-3.4558,-3.4126,-3.4006,-3.359,-3.1947,-3.066,-3.0146,-2.9718,-2.9916,-3.0129,-3.0305,-2.9585,-2.8712,-2.8627,-2.8564,-2.8178,-2.8008,-2.8274,-2.8651,-2.8651,-2.8666,-2.8759,-2.891,-2.912,-2.9398,-2.9778,-3.0159,-3.0495,-3.07,-3.0934,-3.1066,-3.3607,-3.3922,-3.3922,-3.3859,-3.3733,-3.367,-3.3733,-3.367,-3.3733,-3.3607,-3.3544,-3.3481,-3.3418,-3.3418,-3.3418,-3.3607,-3.3733,-3.3733,-3.4047,-3.4235,-3.436,-3.4423,-3.461,-3.4735,-3.4797,-3.4673,-3.4548,-3.4548,-3.4548,-3.4423,-3.436,-3.4173,-3.3985,-3.3733,-3.3544,-3.3418,-3.3418,-3.3418,-3.3418,-3.3418,-3.3418,-3.3418,-3.3418,-3.3418,-3.3418,-3.3555,-3.3809,-3.4355,-3.4766,-3.5137,-3.5586,-3.5957,-3.6035,-3.6035,-3.6035,-3.6035,-3.6035,-3.6035,-3.6035,-3.6035,-3.6035,-3.6035,-3.6035,-3.5859,-3.5644,-3.5469,-3.5039,-3.4648,-3.4297,-3.3945,-3.3613,-3.3555,-3.3457,-3.3652,-3.4062,-3.4512,-3.4883,-3.5332,-3.5703,-3.5908,-3.5928,-3.5947,-3.5879,-3.5675,-3.5196,-3.4627,-3.4283,-3.4006,-3.3224,-3.207,-3.1367,-3.0926,-3.0626,-3.0839,-3.0909,-3.0818,-3.0743,-3.0408,-3.0155,-2.9208,-2.8988,-2.9026,-2.8949,-2.8808,-2.8822,-2.8886,-2.8944,-2.9032,-2.9178,-2.9369,-2.9851,-3.0407,-3.0671,-3.089,-3.0934,-3.3607,-3.3922,-3.3922,-3.411,-3.436,-3.436,-3.4298,-3.4235,-3.4298,-3.4173,-3.3859,-3.3607,-3.3481,-3.3481,-3.3544,-3.3796,-3.3985,-3.3985,-3.4235,-3.4735,-3.4735,-3.4984,-3.5108,-3.515,-3.4964,-3.5191,-3.5026,-3.4799,-3.4798,-3.4652,-3.4528,-3.4485,-3.436,-3.411,-3.3859,-3.3544,-3.3418,-3.3418,-3.3418,-3.3418,-3.3418,-3.3418,-3.3418,-3.3418,-3.3418,-3.3555,-3.3848,-3.4375,-3.4805,-3.5156,-3.5684,-3.5996,-3.6035,-3.6035,-3.6035,-3.6035,-3.6035,-3.6035,-3.6035,-3.6035,-3.6035,-3.6035,-3.6035,-3.5976,-3.5898,-3.5684,-3.5391,-3.5039,-3.4648,-3.4238,-3.3945,-3.373,-3.3574,-3.3633,-3.4043,-3.4375,-3.4746,-3.5176,-3.5586,-3.5937,-3.6016,-3.6035,-3.6035,-3.5879,-3.5538,-3.5127,-3.4646,-3.4214,-3.3798,-3.3433,-3.2718,-3.2281,-3.1913,-3.2333,-3.2683,-3.2752,-3.2684,-3.235,-3.1574,-3.0403,-2.9531,-2.9211,-2.9049,-2.8934,-2.8886,-2.8886,-2.8886,-2.89,-2.9105,-2.9339,-2.9851,-3.0334,-3.0627,-3.0832,-3.089,-3.4235,-3.4548,-3.4548,-3.4735,-3.4984,-3.4548,-3.4423,-3.436,-3.436,-3.436,-3.4235,-3.411,-3.4047,-3.4047,-3.4027,-3.4195,-3.4465,-3.4298,-3.461,-3.5129,-3.4984,-3.4944,-3.5025,-3.4962,-3.4838,-3.4693,-3.4634,-3.4799,-3.484,-3.478,-3.5005,-3.5046,-3.4736,-3.4423,-3.4047,-3.3733,-3.367,-3.3418,-3.3418,-3.3418,-3.3418,-3.3418,-3.3418,-3.3418,-3.3418,-3.3516,-3.373,-3.4297,-3.4785,-3.5078,-3.5586,-3.5996,-3.6035,-3.6035,-3.6035,-3.6035,-3.6035,-3.6035,-3.6035,-3.6035,-3.6035,-3.6035,-3.6035,-3.6035,-3.5976,-3.5918,-3.5684,-3.5449,-3.5098,-3.4746,-3.4512,-3.4101,-3.3926,-3.3887,-3.416,-3.4355,-3.4687,-3.5137,-3.5547,-3.5859,-3.6035,-3.6035,-3.6035,-3.6035,-3.5743,-3.5606,-3.5196,-3.4715,-3.4283,-3.4421,-3.4126,-3.378,-3.3623,-3.4038,-3.4314,-3.4107,-3.3831,-3.3505,-3.2451,-3.1146,-3.036,-2.9793,-2.9189,-2.8964,-2.8964,-2.8886,-2.9119,-2.9227,-2.9154,-2.9383,-2.9764,-3.024,-3.0466,-3.0685,-3.0832,-3.4485,-3.4922,-3.4922,-3.5108,-3.5294,-3.4922,-3.4735,-3.4735,-3.461,-3.4548,-3.4548,-3.4485,-3.436,-3.432,-3.4262,-3.4388,-3.4615,-3.4309,-3.4329,-3.488,-3.4758,-3.4613,-3.4569,-3.4567,-3.4463,-3.4256,-3.436,-3.4588,-3.4527,-3.4797,-3.4922,-3.4984,-3.5005,-3.4655,-3.4342,-3.4173,-3.3985,-3.3796,-3.3733,-3.3607,-3.3607,-3.3607,-3.3544,-3.3481,-3.3481,-3.3564,-3.3652,-3.4121,-3.4707,-3.4941,-3.543,-3.5996,-3.6035,-3.6035,-3.6035,-3.6035,-3.6035,-3.6035,-3.6035,-3.6035,-3.6035,-3.6035,-3.6035,-3.6035,-3.6035,-3.5996,-3.5879,-3.5684,-3.5508,-3.5273,-3.4941,-3.4512,-3.416,-3.4141,-3.4023,-3.4199,-3.4453,-3.4883,-3.5293,-3.5625,-3.6016,-3.6016,-3.6035,-3.6035,-3.5967,-3.5879,-3.5743,-3.5264,-3.4853,-3.499,-3.5059,-3.4765,-3.4696,-3.504,-3.5108,-3.4952,-3.4746,-3.4627,-3.3517,-3.2312,-3.1341,-3.0779,-2.99,-2.9197,-2.9586,-2.9804,-2.9649,-2.9646,-2.9345,-2.9257,-2.9442,-2.9837,-3.0328,-3.0525,-3.0759,-3.4298,-3.4859,-3.4922,-3.5108,-3.5376,-3.5356,-3.5356,-3.5356,-3.5046,-3.4922,-3.4922,-3.461,-3.4507,-3.4365,-3.4042,-3.4106,-3.4268,-3.3921,-3.4019,-3.4137,-3.4261,-3.4155,-3.4093,-3.409,-3.3927,-3.3969,-3.409,-3.4111,-3.4111,-3.4279,-3.4486,-3.4652,-3.4734,-3.4636,-3.4615,-3.4489,-3.4322,-3.4195,-3.4047,-3.3922,-3.3922,-3.3922,-3.3796,-3.3733,-3.3733,-3.367,-3.3819,-3.4264,-3.459,-3.498,-3.5527,-3.5859,-3.6035,-3.6035,-3.6035,-3.6035,-3.6035,-3.6035,-3.6035,-3.6035,-3.6035,-3.6016,-3.5957,-3.5996,-3.6035,-3.6035,-3.5957,-3.5859,-3.5703,-3.5566,-3.5351,-3.4805,-3.4277,-3.4062,-3.3789,-3.3945,-3.4141,-3.4512,-3.4922,-3.5351,-3.582,-3.5976,-3.6016,-3.6035,-3.6035,-3.5967,-3.5879,-3.5743,-3.5401,-3.5401,-3.547,-3.5401,-3.5401,-3.5743,-3.5743,-3.5519,-3.5604,-3.5437,-3.4811,-3.3782,-3.2782,-3.171,-3.0682,-3.0191,-3.0655,-3.0793,-3.05,-2.9959,-2.929,-2.9311,-2.936,-2.9647,-3.0086,-3.0451,-3.0685,-3.4859,-3.5232,-3.5232,-3.5294,-3.5356,-3.5418,-3.5418,-3.5356,-3.5294,-3.5232,-3.5232,-3.517,-3.4841,-3.4697,-3.4574,-3.4367,-3.4141,-3.4036,-3.4033,-3.4031,-3.3906,-3.3803,-3.3679,-3.3555,-3.3389,-3.3348,-3.341,-3.3575,-3.3717,-3.3824,-3.4031,-3.4318,-3.4318,-3.4488,-3.4675,-3.4697,-3.4574,-3.4447,-3.432,-3.4298,-3.4235,-3.4235,-3.411,-3.411,-3.3985,-3.3922,-3.3994,-3.4387,-3.4694,-3.4863,-3.5566,-3.5996,-3.6035,-3.6035,-3.6035,-3.6035,-3.6035,-3.6035,-3.6035,-3.6035,-3.6035,-3.5957,-3.5868,-3.5801,-3.5898,-3.6064,-3.6064,-3.5918,-3.5879,-3.5781,-3.5586,-3.5137,-3.4648,-3.4316,-3.4004,-3.3828,-3.4023,-3.4199,-3.4648,-3.5312,-3.5762,-3.5996,-3.6016,-3.6035,-3.6035,-3.6035,-3.5947,-3.5879,-3.5879,-3.5811,-3.5743,-3.5675,-3.5743,-3.5967,-3.6035,-3.5811,-3.6093,-3.6189,-3.5652,-3.5045,-3.4173,-3.2974,-3.157,-3.1101,-3.1485,-3.1408,-3.1194,-3.0577,-2.9959,-2.9301,-2.9257,-2.9624,-2.991,-3.0276,-3.0554,-3.5108,-3.5356,-3.5418,-3.5418,-3.5418,-3.5418,-3.5418,-3.5418,-3.5418,-3.5355,-3.5169,-3.5148,-3.49,-3.4486,-3.4279,-3.4031,-3.3782,-3.3475,-3.3451,-3.3451,-3.3596,-3.3348,-3.3182,-3.312,-3.2996,-3.2913,-3.2954,-3.312,-3.3223,-3.3368,-3.3575,-3.3841,-3.3782,-3.4132,-3.4362,-3.4447,-3.4552,-3.4554,-3.4613,-3.457,-3.461,-3.461,-3.4548,-3.4423,-3.4298,-3.4235,-3.4167,-3.4601,-3.4825,-3.4956,-3.5681,-3.5996,-3.6035,-3.6035,-3.6035,-3.6035,-3.6035,-3.6035,-3.6035,-3.6035,-3.6035,-3.6093,-3.6301,-3.6696,-3.6408,-3.6313,-3.6102,-3.5918,-3.5976,-3.5957,-3.5742,-3.5488,-3.5098,-3.4707,-3.4258,-3.3828,-3.3887,-3.3984,-3.4551,-3.5273,-3.5664,-3.5937,-3.6035,-3.6035,-3.6035,-3.6035,-3.6035,-3.5967,-3.5947,-3.5947,-3.5879,-3.5811,-3.5879,-3.6035,-3.6035,-3.6035,-3.6172,-3.6396,-3.6495,-3.5886,-3.5303,-3.4767,-3.3816,-3.2842,-3.2173,-3.2326,-3.269,-3.1561,-3.0824,-3.0143,-2.9438,-2.936,-2.9741,-3.0196,-3.0334,-3.5108,-3.5418,-3.5418,-3.5418,-3.5418,-3.5418,-3.5397,-3.5376,-3.5335,-3.5148,-3.4878,-3.4734,-3.4505,-3.409,-3.3779,-3.3492,-3.3285,-3.3058,-3.2975,-3.2768,-3.2913,-3.2871,-3.2851,-3.2669,-3.2731,-3.269,-3.2711,-3.2871,-3.2711,-3.2913,-3.3141,-3.3327,-3.3327,-3.3575,-3.3948,-3.401,-3.4199,-3.4491,-3.4677,-3.4861,-3.4901,-3.4859,-3.4797,-3.461,-3.4673,-3.4776,-3.4642,-3.4848,-3.523,-3.5369,-3.565,-3.5996,-3.6035,-3.6355,-3.6355,-3.6219,-3.6287,-3.6219,-3.6287,-3.6287,-3.6423,-3.6789,-3.74,-3.7897,-3.7749,-3.7437,-3.7252,-3.6682,-3.6742,-3.6355,-3.6043,-3.5536,-3.5059,-3.4668,-3.4238,-3.3828,-3.3652,-3.3887,-3.4414,-3.5059,-3.5508,-3.5762,-3.6035,-3.6035,-3.6035,-3.6035,-3.6035,-3.6035,-3.6035,-3.6035,-3.5947,-3.5947,-3.5947,-3.6035,-3.6035,-3.6035,-3.6094,-3.6318,-3.6685,-3.681,-3.6224,-3.6108,-3.6127,-3.4954,-3.3827,-3.4278,-3.4354,-3.3373,-3.225,-3.0901,-3.0205,-2.9438,-2.9542,-2.9998,-3.0152,-3.5108,-3.5418,-3.5418,-3.5418,-3.5418,-3.5418,-3.5211,-3.4921,-3.4921,-3.4899,-3.4774,-3.4362,-3.3969,-3.3555,-3.341,-3.3203,-3.2913,-3.283,-3.269,-3.2669,-3.2669,-3.2669,-3.2669,-3.2669,-3.2669,-3.2669,-3.2669,-3.2669,-3.2669,-3.269,-3.2711,-3.2892,-3.2934,-3.3182,-3.3513,-3.3555,-3.3782,-3.4238,-3.4529,-3.4861,-3.515,-3.5211,-3.5232,-3.5108,-3.5108,-3.5001,-3.4969,-3.5067,-3.5258,-3.5407,-3.579,-3.5976,-3.6035,-3.7011,-3.6944,-3.6423,-3.7059,-3.7059,-3.6876,-3.7126,-3.7528,-3.7728,-3.8327,-3.8958,-3.9196,-3.9129,-3.8711,-3.8001,-3.7327,-3.6809,-3.6285,-3.565,-3.5019,-3.4629,-3.4219,-3.3848,-3.3457,-3.3867,-3.4316,-3.4766,-3.5254,-3.5605,-3.5898,-3.6016,-3.6035,-3.6035,-3.6035,-3.6035,-3.6035,-3.6035,-3.6035,-3.5947,-3.5947,-3.6035,-3.6035,-3.6074,-3.6133,-3.6465,-3.6883,-3.6971,-3.7033,-3.6584,-3.6164,-3.6164,-3.5718,-3.5792,-3.5792,-3.5644,-3.4354,-3.2614,-3.0963,-3.0205,-2.9595,-2.9794,-2.9886,-3.5232,-3.5418,-3.5418,-3.5418,-3.5397,-3.5211,-3.4983,-3.4774,-3.438,-3.4194,-3.4173,-3.3903,-3.3513,-3.3141,-3.3099,-3.3037,-3.269,-3.2669,-3.2669,-3.2669,-3.2669,-3.2669,-3.2669,-3.2669,-3.2669,-3.2669,-3.2669,-3.2669,-3.2669,-3.2669,-3.2669,-3.2669,-3.269,-3.2851,-3.3099,-3.3141,-3.3327,-3.3741,-3.4111,-3.4507,-3.5066,-3.5273,-3.5397,-3.5294,-3.5232,-3.5207,-3.5258,-3.538,-3.5514,-3.5638,-3.5849,-3.6567,-3.6944,-3.7662,-3.7975,-3.8175,-3.8573,-3.8705,-3.8308,-3.8441,-3.9035,-3.9151,-3.9971,-4.081,-4.1174,-4.103,-4.0644,-3.9866,-3.8175,-3.7461,-3.6958,-3.633,-3.5382,-3.4707,-3.4277,-3.3867,-3.3711,-3.3828,-3.4121,-3.4355,-3.4902,-3.5449,-3.5723,-3.5957,-3.5976,-3.6035,-3.6035,-3.6035,-3.6035,-3.6035,-3.6035,-3.6035,-3.6035,-3.6035,-3.6035,-3.6094,-3.6191,-3.6582,-3.7012,-3.7397,-3.7557,-3.6734,-3.6164,-3.6608,-3.6849,-3.6701,-3.6701,-3.6701,-3.609,-3.4579,-3.269,-3.0978,-3.0438,-2.9877,-2.9931,-3.5418,-3.5418,-3.5418,-3.5418,-3.5355,-3.4962,-3.4774,-3.4588,-3.3782,-3.3368,-3.3348,-3.3327,-3.3037,-3.2851,-3.2727,-3.2669,-3.2669,-3.2669,-3.2669,-3.2669,-3.2669,-3.2669,-3.2669,-3.2669,-3.2669,-3.2669,-3.2669,-3.2669,-3.2669,-3.2669,-3.2669,-3.2669,-3.2669,-3.2669,-3.2669,-3.2711,-3.2975,-3.3244,-3.3575,-3.3948,-3.4507,-3.5107,-3.5273,-3.5376,-3.5397,-3.552,-3.5636,-3.5658,-3.5796,-3.6124,-3.634,-3.7246,-3.8242,-3.8948,-3.9212,-3.9692,-4.0149,-4.0149,-4.0018,-4.0127,-4.0387,-4.0753,-4.1865,-4.2477,-4.2753,-4.2603,-4.2201,-4.1377,-3.967,-3.8333,-3.7765,-3.6876,-3.5858,-3.4726,-3.4297,-3.3867,-3.3809,-3.3769,-3.3887,-3.4043,-3.4551,-3.5156,-3.5527,-3.5762,-3.5898,-3.5957,-3.6016,-3.6035,-3.6035,-3.6035,-3.6035,-3.6035,-3.6035,-3.6035,-3.6035,-3.6074,-3.6172,-3.6601,-3.7051,-3.7715,-3.8098,-3.747,-3.7364,-3.7824,-3.7897,-3.7604,-3.7457,-3.7457,-3.6775,-3.6015,-3.4729,-3.2842,-3.1132,-3.0639,-3.0299,-3.5418,-3.5418,-3.5418,-3.5418,-3.5355,-3.4941,-3.4608,-3.4134,-3.3637,-3.3203,-3.2954,-3.2871,-3.2789,-3.2669,-3.2669,-3.2669,-3.2669,-3.2669,-3.2669,-3.2669,-3.2669,-3.2669,-3.2669,-3.2669,-3.2669,-3.2669,-3.2669,-3.2669,-3.2669,-3.2669,-3.2669,-3.2669,-3.2669,-3.2669,-3.2669,-3.269,-3.2731,-3.2996,-3.3244,-3.3637,-3.4152,-3.4631,-3.5086,-3.5252,-3.5438,-3.5704,-3.5922,-3.58,-3.6016,-3.6496,-3.7313,-3.842,-3.9474,-4.0452,-4.0862,-4.0968,-4.1505,-4.1377,-4.1312,-4.1569,-4.1761,-4.2056,-4.2895,-4.3378,-4.3541,-4.3469,-4.3254,-4.3365,-4.1761,-3.9932,-3.9018,-3.7802,-3.6689,-3.5106,-3.418,-3.3789,-3.3555,-3.3594,-3.3672,-3.3887,-3.4199,-3.4766,-3.5254,-3.5488,-3.5703,-3.582,-3.5996,-3.6016,-3.6035,-3.6035,-3.6035,-3.6035,-3.6035,-3.6035,-3.6035,-3.6035,-3.6172,-3.6601,-3.7129,-3.7832,-3.8301,-3.8496,-3.8501,-3.8501,-3.8501,-3.8282,-3.8209,-3.8044,-3.753,-3.6775,-3.6238,-3.4879,-3.2918,-3.1715,-3.1791]},{"header":{"parameterUnit":"m.s-1","parameterCategory":1,"la1":31.0,"la2":29.5877,"lo1":-88.7671,"lo2":-86.6584,"dx":0.0162,"dy":0.0185,"nx":115,"ny":88,"refTime":"2022-12-09T18:00:00:Z","depth":0,"parameterNumber":3,"parameterNumberName":"V-component_of_WINDS"},"data":[0.0,0.0,0.0,0.0,0.0,0.0,0.0,0.0,0.0,0.0,0.0,0.0,0.0,0.0,0.0,0.0,0.0,0.0,0.0,0.0,0.0,0.0,0.0,0.0,0.0,0.0,0.0,0.0,0.0,0.0,0.0,0.0,0.0,0.0,0.0,0.0,0.0,0.0,0.0,0.0,0.0,0.0,0.0,0.0,0.0,0.0,0.0,0.0,0.0,0.0,0.0,0.0,0.0,0.0,0.0,0.0,0.0,0.0,0.0,0.0,0.0,0.0,0.0,0.0,0.0,0.0,0.0,0.0,0.0,0.0,0.0,0.0,0.0,0.0,0.0,0.0,0.0,0.0,0.0,0.0,0.0,0.0,0.0,0.0,0.0,0.0,0.0,0.0,0.0,0.0,0.0,0.0,0.0,0.0,0.0,0.0,0.0,0.0,0.0,0.0,0.0,0.0,0.0,0.0,0.0,0.0,0.0,0.0,0.0,0.0,0.0,0.0,0.0,0.0,0.0,0.0,0.0,0.0,0.0,0.0,0.0,0.0,0.0,0.0,0.0,0.0,0.0,0.0,0.0,0.0,0.0,0.0,0.0,0.0,0.0,0.0,0.0,0.0,0.0,0.0,0.0,0.0,0.0,0.0,0.0,0.0,0.0,0.0,0.0,0.0,0.0,0.0,0.0,0.0,0.0,0.0,0.0,0.0,0.0,0.0,0.0,0.0,0.0,0.0,0.0,0.0,0.0,0.0,0.0,0.0,0.0,0.0,0.0,0.0,0.0,0.0,0.0,0.0,0.0,0.0,0.0,0.0,0.0,0.0,0.0,0.0,0.0,0.0,0.0,0.0,0.0,0.0,0.0,0.0,0.0,0.0,0.0,0.0,0.0,0.0,0.0,0.0,0.0,0.0,0.0,0.0,0.0,0.0,0.0,0.0,0.0,0.0,0.0,0.0,0.0,0.0,0.0,0.0,0.0,0.0,0.0,0.0,0.0,0.0,0.0,0.0,0.0,0.0,0.0,0.0,0.0,0.0,0.0,0.0,0.0,0.0,0.0,0.0,0.0,0.0,0.0,0.0,0.0,0.0,0.0,0.0,0.0,0.0,0.0,0.0,0.0,0.0,0.0,0.0,0.0,0.0,0.0,0.0,0.0,0.0,0.0,0.0,0.0,0.0,0.0,0.0,0.0,0.0,0.0,0.0,0.0,0.0,0.0,0.0,0.0,0.0,0.0,0.0,0.0,0.0,0.0,0.0,0.0,0.0,0.0,0.0,0.0,0.0,0.0,0.0,0.0,0.0,0.0,0.0,0.0,0.0,0.0,0.0,0.0,0.0,0.0,0.0,0.0,0.0,0.0,0.0,0.0,0.0,0.0,0.0,0.0,0.0,0.0,0.0,0.0,0.0,0.0,0.0,0.0,0.0,0.0,0.0,0.0,0.0,0.0,0.0,0.0,0.0,0.0,0.0,0.0,0.0,0.0,0.0,0.0,0.0,0.0,0.0,0.0,0.0,0.0,0.0,0.0,0.0,0.0,0.0,0.0,0.0,0.0,0.0,0.0,0.0,0.0,0.0,0.0,0.0,0.0,0.0,0.0,0.0,0.0,0.0,0.0,0.0,0.0,0.0,0.0,0.0,0.0,0.0,0.0,0.0,0.0,0.0,0.0,0.0,0.0,0.0,0.0,0.0,0.0,0.0,0.0,0.0,0.0,0.0,0.0,0.0,0.0,0.0,0.0,0.0,0.0,0.0,0.0,0.0,0.0,0.0,0.0,0.0,0.0,0.0,0.0,0.0,0.0,0.0,0.0,0.0,0.0,0.0,0.0,0.0,0.0,0.0,0.0,0.0,0.0,0.0,0.0,0.0,0.0,0.0,0.0,0.0,0.0,0.0,0.0,0.0,0.0,0.0,0.0,0.0,0.0,0.0,0.0,0.0,0.0,0.0,0.0,0.0,0.0,0.0,0.0,0.0,0.0,0.0,0.0,0.0,0.0,0.0,0.0,0.0,0.0,0.0,0.0,0.0,0.0,0.0,0.0,0.0,0.0,0.0,0.0,0.0,0.0,0.0,0.0,0.0,0.0,0.0,0.0,0.0,0.0,0.0,0.0,0.0,0.0,0.0,0.0,0.0,0.0,0.0,0.0,0.0,0.0,0.0,0.0,0.0,0.0,0.0,0.0,0.0,0.0,0.0,0.0,0.0,0.0,0.0,0.0,0.0,0.0,0.0,0.0,0.0,0.0,0.0,0.0,0.0,0.0,0.0,0.0,0.0,0.0,0.0,0.0,0.0,0.0,0.0,0.0,0.0,0.0,0.0,0.0,0.0,0.0,0.0,0.0,0.0,0.0,0.0,0.0,0.0,0.0,0.0,0.0,0.0,0.0,0.0,0.0,0.0,0.0,0.0,0.0,0.0,0.0,0.0,0.0,0.0,0.0,0.0,0.0,0.0,0.0,0.0,0.0,0.0,0.0,0.0,0.0,0.0,0.0,0.0,0.0,0.0,0.0,0.0,0.0,0.0,0.0,0.0,0.0,0.0,0.0,0.0,0.0,0.0,0.0,0.0,0.0,0.0,0.0,0.0,0.0,0.0,0.0,0.0,0.0,0.0,0.0,0.0,0.0,0.0,0.0,0.0,0.0,0.0,0.0,0.0,0.0,0.0,0.0,0.0,0.0,0.0,0.0,0.0,0.0,0.0,0.0,0.0,0.0,0.0,0.0,0.0,0.0,0.0,0.0,0.0,0.0,0.0,0.0,0.0,0.0,0.0,0.0,0.0,0.0,0.0,0.0,0.0,0.0,0.0,0.0,0.0,0.0,0.0,0.0,0.0,0.0,0.0,0.0,0.0,0.0,0.0,0.0,0.0,0.0,0.0,0.0,0.0,0.0,0.0,0.0,0.0,0.0,0.0,0.0,0.0,0.0,0.0,0.0,0.0,0.0,0.0,0.0,0.0,0.0,0.0,0.0,0.0,0.0,0.0,0.0,0.0,0.0,0.0,0.0,0.0,0.0,0.0,0.0,0.0,0.0,0.0,0.0,0.0,0.0,0.0,0.0,0.0,0.0,0.0,0.0,0.0,0.0,0.0,0.0,0.0,0.0,0.0,0.0,0.0,0.0,0.0,0.0,0.0,0.0,0.0,0.0,0.0,0.0,0.0,0.0,0.0,0.0,0.0,0.0,0.0,0.0,0.0,0.0,0.0,0.0,0.0,0.0,0.0,0.0,0.0,0.0,0.0,0.0,0.0,0.0,0.0,0.0,0.0,0.0,0.0,0.0,0.0,0.0,0.0,0.0,0.0,0.0,0.0,0.0,0.0,0.0,0.0,0.0,0.0,0.0,0.0,0.0,0.0,0.0,0.0,0.0,0.0,0.0,0.0,0.0,0.0,0.0,0.0,0.0,0.0,0.0,0.0,0.0,0.0,0.0,0.0,0.0,0.0,0.0,0.0,0.0,0.0,0.0,0.0,0.0,0.0,0.0,0.0,0.0,0.0,0.0,0.0,0.0,0.0,0.0,0.0,0.0,0.0,0.0,0.0,0.0,0.0,0.0,0.0,0.0,0.0,0.0,0.0,0.0,0.0,0.0,0.0,0.0,0.0,0.0,0.0,0.0,0.0,0.0,0.0,0.0,0.0,0.0,0.0,0.0,0.0,0.0,0.0,0.0,0.0,0.0,0.0,0.0,0.0,0.0,0.0,0.0,0.0,0.0,0.0,0.0,0.0,0.0,0.0,0.0,0.0,0.0,0.0,0.0,0.0,0.0,0.0,0.0,0.0,0.0,0.0,0.0,0.0,0.0,0.0,0.0,0.0,0.0,0.0,0.0,0.0,0.0,0.0,0.0,0.0,0.0,0.0,0.0,0.0,0.0,0.0,0.0,0.0,0.0,0.0,0.0,0.0,0.0,0.0,0.0,0.0,0.0,0.0,0.0,0.0,0.0,0.0,0.0,0.0,0.0,0.0,0.0,0.0,0.0,0.0,0.0,0.0,0.0,0.0,0.0,0.0,0.0,0.0,0.0,0.0,0.0,0.0,0.0,0.0,0.0,0.0,0.0,0.0,0.0,0.0,0.0,0.0,0.0,0.0,0.0,0.0,0.0,0.0,0.0,0.0,0.0,0.0,0.0,0.0,0.0,0.0,0.0,0.0,0.0,0.0,0.0,0.0,0.0,0.0,0.0,0.0,0.0,0.0,0.0,0.0,0.0,0.0,0.0,0.0,0.0,0.0,0.0,0.0,0.0,0.0,0.0,0.0,0.0,0.0,2.731,0.0,0.0,0.0,2.6796,0.0,0.0,0.0,0.0,0.0,0.0,0.0,0.0,0.0,0.0,0.0,0.0,0.0,0.0,0.0,0.0,0.0,0.0,0.0,0.0,0.0,0.0,0.0,0.0,0.0,0.0,0.0,0.0,0.0,0.0,0.0,0.0,0.0,0.0,0.0,0.0,0.0,0.0,0.0,0.0,0.0,0.0,0.0,0.0,0.0,0.0,0.0,0.0,0.0,0.0,0.0,0.0,0.0,0.0,0.0,0.0,0.0,0.0,0.0,0.0,0.0,0.0,0.0,0.0,0.0,0.0,0.0,0.0,0.0,0.0,0.0,0.0,0.0,0.0,0.0,0.0,0.0,0.0,0.0,0.0,0.0,0.0,0.0,0.0,0.0,0.0,0.0,0.0,0.0,0.0,0.0,0.0,0.0,0.0,0.0,0.0,0.0,0.0,0.0,0.0,0.0,0.0,0.0,0.0,0.0,0.0,0.0,0.0,0.0,0.0,2.764,2.731,2.8975,2.9337,2.8128,0.0,0.0,0.0,0.0,0.0,0.0,0.0,0.0,0.0,0.0,0.0,0.0,0.0,0.0,0.0,0.0,0.0,0.0,0.0,0.0,0.0,0.0,0.0,0.0,0.0,0.0,0.0,0.0,0.0,0.0,0.0,0.0,0.0,0.0,0.0,0.0,0.0,0.0,0.0,0.0,0.0,0.0,0.0,0.0,0.0,0.0,0.0,0.0,0.0,0.0,0.0,0.0,0.0,0.0,0.0,0.0,0.0,0.0,0.0,0.0,0.0,0.0,0.0,0.0,0.0,0.0,0.0,0.0,0.0,0.0,0.0,0.0,0.0,0.0,0.0,0.0,0.0,0.0,0.0,0.0,0.0,0.0,0.0,0.0,0.0,0.0,0.0,0.0,0.0,0.0,0.0,0.0,0.0,0.0,0.0,0.0,0.0,0.0,0.0,0.0,0.0,0.0,0.0,0.0,0.0,0.0,0.0,0.0,0.0,0.0,0.0,0.0,3.0638,3.1134,2.9739,0.0,0.0,0.0,0.0,0.0,0.0,0.0,0.0,0.0,0.0,0.0,0.0,0.0,0.0,0.0,0.0,0.0,0.0,0.0,0.0,0.0,0.0,0.0,0.0,0.0,0.0,0.0,0.0,0.0,0.0,0.0,0.0,0.0,0.0,0.0,0.0,0.0,0.0,0.0,0.0,0.0,0.0,0.0,0.0,0.0,0.0,0.0,0.0,0.0,0.0,0.0,0.0,0.0,0.0,0.0,0.0,0.0,0.0,0.0,0.0,0.0,0.0,0.0,0.0,0.0,0.0,0.0,0.0,0.0,0.0,0.0,0.0,0.0,0.0,0.0,0.0,0.0,0.0,0.0,0.0,0.0,0.0,0.0,0.0,0.0,0.0,0.0,0.0,0.0,0.0,0.0,0.0,0.0,0.0,0.0,0.0,0.0,0.0,0.0,0.0,0.0,0.0,0.0,0.0,0.0,0.0,0.0,0.0,0.0,0.0,2.741,3.0527,3.1541,0.0,3.0743,0.0,0.0,0.0,0.0,0.0,0.0,0.0,0.0,0.0,0.0,0.0,0.0,0.0,0.0,0.0,0.0,0.0,0.0,0.0,0.0,0.0,0.0,0.0,0.0,0.0,0.0,0.0,0.0,0.0,0.0,0.0,0.0,0.0,0.0,0.0,0.0,0.0,0.0,0.0,0.0,0.0,0.0,0.0,0.0,0.0,0.0,0.0,0.0,0.0,0.0,0.0,0.0,0.0,0.0,0.0,0.0,0.0,0.0,0.0,0.0,0.0,0.0,0.0,0.0,0.0,0.0,0.0,0.0,0.0,0.0,0.0,0.0,0.0,0.0,0.0,0.0,0.0,0.0,0.0,0.0,0.0,0.0,0.0,0.0,0.0,0.0,0.0,0.0,0.0,0.0,0.0,0.0,0.0,0.0,0.0,0.0,0.0,0.0,0.0,0.0,0.0,0.0,0.0,0.0,0.0,0.0,0.0,0.0,0.0,0.0,2.8054,3.1533,3.1581,3.0772,0.0,0.0,0.0,0.0,0.0,0.0,0.0,0.0,0.0,0.0,0.0,0.0,0.0,0.0,0.0,0.0,0.0,0.0,0.0,0.0,0.0,0.0,0.0,0.0,0.0,0.0,0.0,0.0,0.0,0.0,0.0,0.0,0.0,0.0,0.0,0.0,0.0,0.0,0.0,0.0,0.0,0.0,0.0,0.0,0.0,0.0,0.0,0.0,0.0,0.0,0.0,0.0,0.0,0.0,0.0,0.0,0.0,0.0,0.0,0.0,0.0,0.0,0.0,0.0,0.0,0.0,0.0,0.0,0.0,0.0,0.0,0.0,0.0,0.0,0.0,0.0,0.0,0.0,0.0,0.0,0.0,0.0,0.0,0.0,0.0,0.0,0.0,0.0,0.0,0.0,0.0,0.0,0.0,0.0,0.0,0.0,0.0,0.0,0.0,0.0,0.0,0.0,0.0,0.0,0.0,0.0,0.0,0.0,0.0,0.0,2.7456,2.912,3.2609,3.1636,3.0114,2.8459,0.0,0.0,0.0,0.0,0.0,0.0,0.0,0.0,0.0,0.0,0.0,0.0,0.0,0.0,0.0,0.0,0.0,0.0,0.0,0.0,0.0,0.0,0.0,0.0,0.0,0.0,0.0,0.0,0.0,0.0,0.0,0.0,0.0,0.0,0.0,0.0,0.0,0.0,0.0,0.0,0.0,0.0,0.0,0.0,0.0,0.0,0.0,0.0,0.0,0.0,0.0,0.0,0.0,0.0,0.0,0.0,0.0,0.0,0.0,0.0,0.0,0.0,0.0,0.0,0.0,0.0,0.0,0.0,0.0,0.0,0.0,0.0,0.0,0.0,0.0,0.0,0.0,0.0,0.0,0.0,0.0,0.0,0.0,0.0,0.0,0.0,0.0,0.0,0.0,0.0,0.0,0.0,0.0,0.0,0.0,0.0,0.0,0.0,0.0,0.0,0.0,0.0,0.0,0.0,0.0,0.0,0.0,0.0,2.9236,2.883,3.0532,3.4729,3.1935,3.0178,0.0,0.0,0.0,0.0,0.0,0.0,0.0,0.0,0.0,0.0,0.0,0.0,0.0,0.0,0.0,0.0,0.0,0.0,0.0,0.0,0.0,0.0,0.0,0.0,0.0,0.0,0.0,0.0,0.0,0.0,0.0,0.0,0.0,0.0,0.0,0.0,0.0,0.0,0.0,0.0,0.0,0.0,0.0,0.0,0.0,0.0,0.0,0.0,0.0,0.0,0.0,0.0,0.0,0.0,0.0,0.0,0.0,0.0,0.0,0.0,0.0,0.0,0.0,0.0,0.0,0.0,0.0,0.0,0.0,0.0,0.0,0.0,0.0,0.0,0.0,0.0,0.0,0.0,0.0,0.0,0.0,0.0,0.0,0.0,0.0,0.0,0.0,0.0,0.0,0.0,0.0,0.0,0.0,0.0,0.0,0.0,0.0,0.0,0.0,0.0,0.0,0.0,0.0,0.0,0.0,0.0,0.0,0.0,0.0,2.7968,3.0119,3.1699,3.2737,3.1637,3.0758,0.0,0.0,0.0,0.0,0.0,0.0,0.0,0.0,0.0,0.0,0.0,0.0,0.0,0.0,0.0,0.0,0.0,0.0,0.0,0.0,0.0,0.0,0.0,0.0,0.0,0.0,0.0,0.0,0.0,0.0,0.0,0.0,0.0,0.0,0.0,0.0,0.0,0.0,0.0,0.0,0.0,0.0,0.0,0.0,0.0,0.0,0.0,0.0,0.0,0.0,0.0,0.0,0.0,0.0,0.0,0.0,0.0,0.0,0.0,0.0,0.0,0.0,0.0,0.0,0.0,0.0,0.0,0.0,0.0,0.0,0.0,0.0,0.0,0.0,0.0,0.0,0.0,0.0,0.0,0.0,0.0,0.0,0.0,0.0,0.0,0.0,0.0,0.0,0.0,0.0,0.0,0.0,0.0,0.0,0.0,0.0,0.0,0.0,0.0,0.0,0.0,0.0,0.0,0.0,0.0,0.0,0.0,0.0,0.0,2.9172,3.2564,3.4036,3.3509,3.2439,3.1484,0.0,0.0,0.0,0.0,0.0,0.0,0.0,0.0,0.0,0.0,0.0,0.0,0.0,0.0,0.0,0.0,0.0,0.0,0.0,0.0,0.0,0.0,0.0,0.0,0.0,0.0,0.0,0.0,0.0,0.0,0.0,0.0,0.0,0.0,0.0,0.0,0.0,0.0,0.0,0.0,0.0,0.0,0.0,0.0,0.0,0.0,0.0,0.0,0.0,0.0,0.0,0.0,0.0,0.0,0.0,0.0,0.0,0.0,0.0,0.0,0.0,0.0,0.0,0.0,0.0,0.0,0.0,0.0,0.0,0.0,0.0,0.0,0.0,0.0,0.0,0.0,0.0,0.0,0.0,0.0,0.0,0.0,0.0,0.0,0.0,0.0,0.0,0.0,0.0,0.0,0.0,0.0,0.0,0.0,0.0,0.0,0.0,0.0,0.0,0.0,0.0,0.0,0.0,0.0,0.0,0.0,0.0,0.0,2.7296,3.3079,3.6044,3.7368,3.7559,3.4342,3.2317,0.0,0.0,0.0,0.0,0.0,0.0,0.0,0.0,0.0,0.0,0.0,0.0,0.0,0.0,0.0,0.0,0.0,0.0,0.0,0.0,0.0,0.0,0.0,0.0,0.0,0.0,0.0,0.0,0.0,0.0,0.0,0.0,0.0,0.0,0.0,0.0,0.0,0.0,0.0,0.0,0.0,0.0,0.0,0.0,0.0,0.0,0.0,0.0,0.0,0.0,0.0,0.0,0.0,0.0,0.0,0.0,0.0,0.0,0.0,0.0,0.0,0.0,0.0,0.0,0.0,0.0,0.0,0.0,0.0,0.0,0.0,0.0,0.0,0.0,0.0,0.0,0.0,0.0,0.0,0.0,0.0,0.0,0.0,0.0,0.0,0.0,0.0,0.0,0.0,0.0,0.0,0.0,0.0,0.0,0.0,0.0,0.0,0.0,0.0,0.0,0.0,0.0,0.0,0.0,0.0,0.0,0.0,0.0,0.0,3.1713,3.4495,3.5954,3.5916,3.3845,3.289,0.0,0.0,0.0,0.0,0.0,0.0,0.0,0.0,0.0,0.0,0.0,0.0,0.0,0.0,0.0,0.0,0.0,0.0,0.0,0.0,0.0,0.0,0.0,0.0,0.0,0.0,0.0,0.0,0.0,0.0,0.0,0.0,0.0,0.0,0.0,0.0,0.0,0.0,0.0,0.0,0.0,0.0,0.0,0.0,0.0,0.0,0.0,0.0,0.0,0.0,0.0,0.0,0.0,0.0,0.0,0.0,0.0,0.0,0.0,0.0,0.0,0.0,0.0,0.0,0.0,0.0,0.0,0.0,0.0,0.0,0.0,0.0,0.0,0.0,0.0,0.0,0.0,0.0,0.0,0.0,0.0,0.0,0.0,0.0,0.0,0.0,0.0,0.0,0.0,0.0,0.0,0.0,0.0,0.0,0.0,0.0,0.0,0.0,0.0,0.0,0.0,0.0,0.0,0.0,0.0,0.0,0.0,0.0,0.0,3.3025,3.5643,3.7088,3.7088,3.5176,3.4259,3.4381,0.0,0.0,0.0,0.0,0.0,0.0,0.0,0.0,0.0,0.0,0.0,0.0,0.0,0.0,0.0,0.0,0.0,0.0,0.0,0.0,0.0,0.0,0.0,0.0,0.0,0.0,0.0,0.0,0.0,0.0,0.0,0.0,0.0,0.0,0.0,0.0,0.0,0.0,0.0,0.0,0.0,0.0,0.0,0.0,0.0,0.0,0.0,0.0,0.0,0.0,0.0,0.0,0.0,0.0,0.0,0.0,0.0,0.0,0.0,0.0,0.0,0.0,0.0,0.0,0.0,0.0,0.0,0.0,0.0,0.0,0.0,0.0,0.0,0.0,0.0,0.0,0.0,0.0,0.0,0.0,0.0,0.0,0.0,0.0,0.0,0.0,0.0,0.0,0.0,0.0,0.0,0.0,0.0,0.0,0.0,0.0,0.0,0.0,0.0,0.0,0.0,0.0,0.0,0.0,0.0,0.0,0.0,0.0,3.634,3.8907,4.023,4.0116,3.7819,3.6219,0.0,0.0,0.0,0.0,0.0,0.0,0.0,0.0,0.0,0.0,0.0,0.0,0.0,0.0,0.0,0.0,0.0,0.0,0.0,0.0,0.0,0.0,0.0,0.0,0.0,0.0,0.0,0.0,0.0,0.0,0.0,0.0,0.0,0.0,0.0,0.0,0.0,0.0,0.0,0.0,0.0,0.0,0.0,0.0,0.0,0.0,0.0,0.0,0.0,0.0,0.0,0.0,0.0,0.0,0.0,0.0,0.0,0.0,0.0,0.0,0.0,0.0,0.0,0.0,0.0,0.0,0.0,0.0,0.0,0.0,0.0,0.0,0.0,0.0,0.0,0.0,0.0,0.0,0.0,0.0,0.0,0.0,0.0,0.0,0.0,0.0,0.0,0.0,0.0,0.0,0.0,0.0,0.0,0.0,0.0,0.0,0.0,0.0,0.0,0.0,0.0,0.0,0.0,0.0,0.0,0.0,0.0,0.0,0.0,3.8222,3.9612,4.0001,3.9397,3.7517,3.6408,0.0,0.0,0.0,0.0,0.0,0.0,0.0,0.0,0.0,0.0,0.0,0.0,0.0,0.0,0.0,0.0,0.0,0.0,0.0,0.0,0.0,0.0,0.0,0.0,0.0,0.0,0.0,0.0,0.0,0.0,0.0,0.0,0.0,0.0,0.0,0.0,0.0,0.0,0.0,0.0,0.0,0.0,0.0,0.0,0.0,0.0,0.0,0.0,0.0,0.0,0.0,0.0,0.0,0.0,0.0,0.0,0.0,0.0,0.0,0.0,0.0,0.0,0.0,0.0,0.0,0.0,0.0,0.0,0.0,0.0,0.0,0.0,0.0,0.0,0.0,0.0,0.0,0.0,0.0,0.0,0.0,0.0,0.0,0.0,0.0,0.0,0.0,0.0,0.0,0.0,0.0,0.0,0.0,0.0,0.0,0.0,0.0,0.0,0.0,0.0,0.0,0.0,0.0,0.0,0.0,0.0,0.0,0.0,3.7013,3.9461,3.9688,3.9724,3.9644,3.8316,3.7253,0.0,0.0,0.0,0.0,0.0,0.0,0.0,0.0,0.0,0.0,0.0,0.0,0.0,0.0,0.0,0.0,0.0,0.0,0.0,0.0,0.0,0.0,0.0,0.0,0.0,0.0,0.0,0.0,0.0,0.0,0.0,0.0,0.0,0.0,0.0,0.0,0.0,0.0,0.0,0.0,0.0,0.0,0.0,0.0,0.0,0.0,0.0,0.0,0.0,0.0,0.0,0.0,0.0,0.0,0.0,0.0,0.0,0.0,0.0,0.0,0.0,0.0,0.0,0.0,0.0,0.0,0.0,0.0,0.0,0.0,0.0,0.0,0.0,0.0,0.0,0.0,0.0,0.0,0.0,0.0,0.0,0.0,0.0,0.0,0.0,0.0,0.0,0.0,0.0,0.0,0.0,0.0,0.0,0.0,0.0,0.0,0.0,0.0,0.0,0.0,0.0,0.0,0.0,0.0,0.0,0.0,0.0,0.0,3.7207,4.0463,3.9623,3.9591,4.0445,3.9602,3.8407,0.0,0.0,0.0,0.0,0.0,0.0,0.0,0.0,0.0,0.0,0.0,0.0,0.0,0.0,0.0,0.0,0.0,0.0,0.0,0.0,0.0,0.0,0.0,0.0,0.0,0.0,0.0,0.0,0.0,0.0,0.0,0.0,0.0,0.0,0.0,0.0,0.0,0.0,0.0,0.0,0.0,0.0,0.0,0.0,0.0,0.0,0.0,0.0,0.0,0.0,0.0,0.0,0.0,0.0,0.0,0.0,0.0,0.0,0.0,0.0,0.0,0.0,0.0,0.0,0.0,0.0,0.0,0.0,0.0,0.0,0.0,0.0,0.0,0.0,0.0,0.0,0.0,0.0,0.0,0.0,0.0,0.0,0.0,0.0,0.0,0.0,0.0,0.0,0.0,0.0,0.0,0.0,0.0,0.0,0.0,0.0,0.0,0.0,0.0,0.0,0.0,0.0,0.0,0.0,0.0,0.0,0.0,0.0,3.9508,4.2144,4.0798,4.0471,4.1374,3.9883,3.8643,0.0,0.0,0.0,0.0,0.0,0.0,0.0,0.0,0.0,0.0,0.0,0.0,0.0,0.0,0.0,0.0,0.0,0.0,0.0,0.0,0.0,0.0,0.0,0.0,0.0,0.0,0.0,0.0,0.0,0.0,0.0,0.0,0.0,0.0,0.0,0.0,0.0,0.0,0.0,0.0,0.0,0.0,0.0,0.0,0.0,0.0,0.0,0.0,3.28,0.0,0.0,0.0,0.0,0.0,0.0,0.0,0.0,0.0,0.0,0.0,0.0,0.0,0.0,0.0,0.0,0.0,0.0,0.0,0.0,0.0,0.0,0.0,0.0,0.0,0.0,0.0,0.0,0.0,0.0,0.0,0.0,0.0,0.0,0.0,0.0,0.0,0.0,0.0,0.0,0.0,0.0,0.0,0.0,0.0,0.0,0.0,0.0,0.0,0.0,0.0,0.0,0.0,0.0,0.0,0.0,0.0,0.0,0.0,4.0234,4.2679,4.1533,4.1121,4.1634,4.082,3.958,0.0,0.0,0.0,0.0,0.0,0.0,0.0,0.0,0.0,0.0,0.0,0.0,0.0,0.0,0.0,0.0,0.0,0.0,0.0,0.0,0.0,0.0,0.0,0.0,0.0,0.0,0.0,0.0,0.0,0.0,0.0,0.0,0.0,0.0,0.0,0.0,0.0,0.0,0.0,0.0,0.0,0.0,0.0,0.0,0.0,0.0,0.0,0.0,0.0,0.0,0.0,0.0,0.0,0.0,0.0,0.0,0.0,0.0,0.0,0.0,0.0,0.0,0.0,0.0,0.0,0.0,0.0,0.0,0.0,0.0,0.0,0.0,0.0,0.0,0.0,0.0,0.0,0.0,0.0,0.0,0.0,0.0,0.0,0.0,0.0,0.0,0.0,0.0,0.0,0.0,0.0,0.0,0.0,0.0,0.0,0.0,0.0,0.0,0.0,0.0,0.0,0.0,0.0,0.0,0.0,0.0,0.0,3.9308,4.0511,4.3023,4.2078,4.1628,4.1872,4.1766,4.0543,3.8123,0.0,0.0,0.0,0.0,0.0,0.0,0.0,0.0,0.0,0.0,0.0,0.0,0.0,0.0,0.0,0.0,0.0,0.0,0.0,0.0,0.0,0.0,0.0,0.0,0.0,0.0,0.0,0.0,0.0,0.0,0.0,0.0,0.0,0.0,0.0,0.0,0.0,0.0,3.1046,3.3417,0.0,0.0,0.0,0.0,0.0,0.0,0.0,0.0,3.6105,0.0,0.0,0.0,0.0,0.0,0.0,0.0,0.0,0.0,0.0,0.0,0.0,0.0,0.0,0.0,0.0,0.0,0.0,0.0,0.0,0.0,0.0,0.0,0.0,0.0,0.0,0.0,0.0,0.0,0.0,0.0,0.0,0.0,0.0,0.0,0.0,0.0,0.0,0.0,0.0,0.0,0.0,0.0,0.0,0.0,0.0,0.0,0.0,0.0,0.0,0.0,0.0,0.0,0.0,0.0,0.0,4.184,4.0721,4.1609,4.4753,4.2728,4.1933,4.263,4.2061,4.0537,3.8115,0.0,0.0,0.0,0.0,0.0,0.0,0.0,0.0,0.0,0.0,0.0,0.0,0.0,0.0,0.0,0.0,0.0,0.0,0.0,0.0,0.0,0.0,0.0,0.0,0.0,0.0,0.0,0.0,0.0,0.0,0.0,0.0,0.0,0.0,0.0,0.0,0.0,0.0,0.0,3.6755,3.8008,0.0,0.0,0.0,0.0,0.0,0.0,0.0,0.0,3.8669,0.0,0.0,0.0,0.0,0.0,0.0,0.0,0.0,0.0,0.0,0.0,0.0,0.0,0.0,0.0,0.0,0.0,0.0,0.0,0.0,0.0,0.0,0.0,0.0,0.0,0.0,0.0,0.0,0.0,0.0,0.0,0.0,0.0,0.0,0.0,0.0,0.0,0.0,0.0,0.0,0.0,0.0,0.0,0.0,0.0,0.0,0.0,0.0,0.0,0.0,0.0,0.0,0.0,0.0,0.0,4.1101,4.1065,4.2365,4.5135,4.3703,4.3101,4.3512,4.2772,4.1165,0.0,0.0,0.0,0.0,0.0,0.0,0.0,0.0,0.0,0.0,0.0,0.0,0.0,0.0,0.0,0.0,0.0,0.0,0.0,0.0,0.0,0.0,0.0,0.0,0.0,0.0,0.0,0.0,0.0,0.0,0.0,0.0,0.0,0.0,0.0,0.0,0.0,0.0,0.0,0.0,3.8221,3.9357,4.1001,0.0,0.0,0.0,0.0,0.0,0.0,4.07,3.9554,0.0,0.0,0.0,0.0,0.0,0.0,0.0,0.0,0.0,0.0,0.0,0.0,0.0,0.0,0.0,0.0,0.0,0.0,0.0,0.0,0.0,0.0,0.0,0.0,0.0,0.0,0.0,0.0,0.0,0.0,0.0,0.0,0.0,0.0,0.0,0.0,0.0,0.0,0.0,0.0,0.0,0.0,0.0,0.0,0.0,0.0,0.0,0.0,0.0,0.0,0.0,0.0,0.0,0.0,0.0,4.0091,4.1065,4.2775,4.5135,4.4447,4.4077,4.4173,4.356,4.1955,0.0,0.0,0.0,0.0,0.0,0.0,0.0,0.0,0.0,0.0,0.0,0.0,0.0,0.0,0.0,0.0,0.0,0.0,0.0,0.0,0.0,0.0,0.0,0.0,0.0,0.0,0.0,0.0,0.0,0.0,0.0,0.0,0.0,0.0,0.0,0.0,0.0,0.0,0.0,0.0,0.0,4.0815,4.1963,4.4248,0.0,0.0,0.0,0.0,4.3893,4.2008,0.0,0.0,0.0,0.0,0.0,0.0,0.0,0.0,0.0,0.0,0.0,0.0,0.0,0.0,0.0,0.0,0.0,0.0,0.0,0.0,0.0,0.0,0.0,0.0,0.0,0.0,0.0,0.0,0.0,0.0,0.0,0.0,0.0,0.0,0.0,0.0,0.0,0.0,0.0,0.0,0.0,0.0,0.0,0.0,0.0,0.0,0.0,0.0,0.0,0.0,0.0,0.0,0.0,0.0,0.0,0.0,3.9834,4.1036,4.2805,4.5097,4.4478,4.4145,4.4211,4.4181,4.2612,0.0,0.0,0.0,0.0,0.0,0.0,0.0,0.0,0.0,0.0,0.0,0.0,0.0,0.0,0.0,0.0,0.0,0.0,0.0,0.0,0.0,0.0,0.0,0.0,0.0,0.0,0.0,0.0,0.0,0.0,0.0,0.0,0.0,0.0,0.0,0.0,0.0,0.0,0.0,0.0,0.0,4.362,4.3112,4.5167,4.6133,0.0,0.0,4.6471,4.6471,4.5547,0.0,0.0,0.0,0.0,0.0,0.0,0.0,0.0,0.0,0.0,0.0,0.0,0.0,0.0,0.0,0.0,0.0,0.0,0.0,0.0,0.0,0.0,0.0,0.0,0.0,0.0,0.0,0.0,0.0,0.0,0.0,0.0,0.0,0.0,0.0,0.0,0.0,0.0,0.0,0.0,0.0,0.0,0.0,0.0,0.0,0.0,0.0,0.0,0.0,0.0,0.0,0.0,0.0,0.0,0.0,3.7042,4.0109,4.2536,4.4278,4.5329,4.5495,4.5352,4.4949,4.4506,4.3158,0.0,0.0,0.0,0.0,0.0,0.0,0.0,0.0,0.0,0.0,0.0,0.0,0.0,0.0,0.0,0.0,0.0,0.0,0.0,0.0,0.0,0.0,0.0,0.0,0.0,0.0,0.0,0.0,0.0,0.0,0.0,0.0,0.0,0.0,0.0,0.0,0.0,0.0,0.0,0.0,0.0,0.0,4.506,4.7027,0.0,0.0,0.0,4.8163,4.7663,0.0,0.0,0.0,0.0,0.0,0.0,0.0,0.0,0.0,0.0,0.0,0.0,0.0,0.0,0.0,0.0,0.0,0.0,0.0,0.0,0.0,0.0,0.0,0.0,0.0,0.0,0.0,0.0,0.0,0.0,0.0,0.0,0.0,0.0,0.0,0.0,0.0,0.0,0.0,0.0,0.0,0.0,0.0,0.0,0.0,0.0,0.0,0.0,0.0,0.0,0.0,0.0,0.0,0.0,0.0,0.0,0.0,4.0301,4.3656,4.5485,4.5704,4.6367,4.6417,4.5821,4.5015,0.0,0.0,0.0,0.0,0.0,0.0,0.0,0.0,0.0,0.0,0.0,0.0,0.0,0.0,0.0,0.0,0.0,0.0,0.0,0.0,0.0,0.0,0.0,0.0,0.0,0.0,0.0,2.3538,0.0,0.0,0.0,0.0,0.0,0.0,0.0,0.0,0.0,0.0,0.0,0.0,0.0,0.0,4.3781,4.6527,4.8326,4.9163,0.0,0.0,4.9548,4.9115,4.8538,4.8154,0.0,0.0,0.0,0.0,0.0,0.0,0.0,0.0,0.0,0.0,0.0,0.0,0.0,0.0,0.0,0.0,0.0,0.0,0.0,0.0,0.0,0.0,0.0,0.0,0.0,0.0,0.0,0.0,0.0,0.0,0.0,0.0,0.0,0.0,0.0,0.0,0.0,0.0,0.0,0.0,0.0,0.0,0.0,0.0,0.0,0.0,0.0,0.0,0.0,0.0,0.0,0.0,0.0,0.0,3.8308,4.0339,4.3694,4.5791,4.647,4.6636,4.6724,4.6695,4.586,4.4657,0.0,0.0,0.0,0.0,0.0,0.0,0.0,0.0,0.0,0.0,0.0,0.0,0.0,0.0,0.0,0.0,0.0,0.0,0.0,0.0,0.0,0.0,0.0,0.0,0.0,0.0,0.0,0.0,0.0,0.0,0.0,0.0,0.0,0.0,0.0,0.0,0.0,0.0,0.0,0.0,0.0,4.58,4.6763,4.8345,4.9394,0.0,5.0048,5.0818,5.1538,5.1577,5.1538,5.1538,0.0,0.0,0.0,0.0,0.0,0.0,0.0,0.0,0.0,0.0,0.0,0.0,0.0,0.0,0.0,0.0,0.0,0.0,0.0,0.0,0.0,0.0,0.0,0.0,0.0,0.0,0.0,0.0,0.0,0.0,0.0,0.0,0.0,0.0,0.0,0.0,0.0,0.0,0.0,0.0,0.0,0.0,0.0,0.0,0.0,0.0,0.0,0.0,0.0,0.0,0.0,0.0,0.0,3.9805,4.1121,4.5007,4.7192,4.7529,4.8077,4.8385,4.8404,4.7097,4.5799,0.0,0.0,0.0,0.0,0.0,0.0,0.0,0.0,0.0,0.0,0.0,0.0,0.0,0.0,0.0,0.0,0.0,0.0,0.0,0.0,0.0,0.0,0.0,0.0,0.0,0.0,0.0,0.0,3.3692,3.4692,3.4538,0.0,0.0,0.0,0.0,0.0,0.0,0.0,0.0,0.0,0.0,4.7489,4.8345,5.0327,0.0,0.0,5.1702,5.2549,5.3395,5.351,5.351,5.351,5.3241,0.0,0.0,0.0,0.0,0.0,0.0,0.0,0.0,0.0,0.0,0.0,0.0,0.0,0.0,0.0,0.0,0.0,0.0,0.0,0.0,0.0,0.0,0.0,0.0,0.0,0.0,0.0,0.0,0.0,0.0,0.0,0.0,0.0,0.0,0.0,0.0,0.0,0.0,0.0,0.0,0.0,0.0,0.0,0.0,0.0,0.0,0.0,0.0,0.0,0.0,0.0,0.0,4.0988,4.1829,4.5946,4.8173,4.8471,4.9337,4.9779,4.974,4.8394,4.7124,0.0,0.0,0.0,0.0,0.0,0.0,0.0,0.0,0.0,0.0,0.0,0.0,0.0,0.0,0.0,0.0,0.0,0.0,0.0,0.0,0.0,0.0,0.0,0.0,0.0,0.0,0.0,0.0,3.6,3.6962,3.6654,0.0,0.0,0.0,0.0,0.0,0.0,0.0,0.0,0.0,0.0,4.9663,5.0779,5.2433,5.3472,5.3087,5.378,5.4626,5.5511,5.5626,5.5626,5.5626,0.0,0.0,0.0,0.0,0.0,0.0,0.0,0.0,0.0,0.0,0.0,0.0,0.0,0.0,0.0,0.0,0.0,0.0,0.0,0.0,0.0,0.0,0.0,0.0,0.0,0.0,0.0,2.4284,0.0,0.0,2.3392,0.0,0.0,0.0,0.0,0.0,0.0,0.0,0.0,0.0,0.0,0.0,0.0,0.0,0.0,0.0,0.0,0.0,0.0,0.0,0.0,0.0,0.0,4.1613,4.2438,4.6202,4.8461,4.9278,5.0221,5.0702,5.0702,4.9817,4.8586,4.6885,0.0,0.0,0.0,0.0,0.0,0.0,0.0,0.0,0.0,0.0,0.0,0.0,0.0,0.0,0.0,0.0,0.0,0.0,0.0,0.0,0.0,0.0,0.0,0.0,0.0,0.0,3.216,3.5545,3.8315,0.0,0.0,0.0,0.0,0.0,0.0,0.0,0.0,0.0,5.0135,5.1318,5.2423,5.4087,5.4434,5.4818,5.5511,5.6368,5.7214,5.805,5.8204,5.8231,0.0,0.0,0.0,0.0,0.0,0.0,0.0,0.0,0.0,0.0,0.0,0.0,0.0,0.0,0.0,0.0,0.0,0.0,0.0,0.0,0.0,0.0,0.0,0.0,0.0,0.0,0.0,2.9392,2.9761,0.0,0.0,0.0,0.0,0.0,0.0,0.0,0.0,0.0,0.0,0.0,3.682,3.8497,0.0,0.0,0.0,0.0,0.0,0.0,0.0,0.0,0.0,0.0,0.0,0.0,4.3504,4.4166,4.6771,4.896,5.0591,5.1455,5.2288,5.3102,5.1219,4.9163,4.6962,0.0,0.0,0.0,0.0,0.0,0.0,0.0,0.0,0.0,0.0,0.0,0.0,0.0,0.0,0.0,0.0,0.0,0.0,0.0,0.0,0.0,0.0,0.0,0.0,0.0,3.6622,0.0,0.0,0.0,0.0,0.0,0.0,0.0,0.0,0.0,0.0,0.0,4.9586,5.1279,5.3203,5.4434,5.4511,5.6434,5.7742,0.0,0.0,0.0,0.0,0.0,0.0,0.0,0.0,0.0,0.0,0.0,0.0,0.0,0.0,5.7703,5.6011,5.5011,5.4511,5.4818,0.0,0.0,0.0,0.0,0.0,0.0,0.0,0.0,0.0,0.0,0.0,0.0,0.0,0.0,3.2809,0.0,3.2515,0.0,0.0,0.0,0.0,0.0,0.0,0.0,0.0,3.9474,4.0222,3.9617,4.1012,4.1351,0.0,4.0413,3.9235,0.0,0.0,0.0,0.0,0.0,0.0,0.0,0.0,4.4828,4.51,4.7396,4.9419,5.1033,5.2172,5.3156,5.3913,5.1813,4.9798,4.8005,4.6886,4.5784,0.0,0.0,0.0,0.0,0.0,0.0,0.0,0.0,0.0,0.0,0.0,0.0,0.0,0.0,0.0,0.0,0.0,0.0,0.0,0.0,0.0,0.0,0.0,4.0585,0.0,0.0,0.0,0.0,0.0,0.0,0.0,0.0,0.0,4.7134,4.9625,5.1972,5.3087,5.5164,5.6626,5.6665,0.0,0.0,0.0,0.0,0.0,0.0,0.0,6.132,6.0242,6.0704,6.0896,5.9781,6.005,6.0473,6.0781,0.0,0.0,5.9154,5.8099,5.7742,5.8599,5.8127,5.8016,5.9523,5.9881,6.0764,0.0,0.0,0.0,0.0,0.0,0.0,0.0,0.0,3.4605,3.4766,0.0,3.5467,0.0,0.0,0.0,0.0,0.0,3.8219,0.0,0.0,4.3024,4.3381,4.2643,4.2627,4.2578,4.2513,4.2712,4.2817,4.2791,4.1347,0.0,0.0,0.0,0.0,0.0,0.0,4.5565,4.5466,4.8018,4.983,5.0802,5.2385,5.323,5.3186,5.1662,5.0549,4.986,4.8376,4.6926,4.5515,4.2381,0.0,0.0,0.0,0.0,0.0,0.0,0.0,0.0,0.0,0.0,0.0,0.0,0.0,0.0,0.0,0.0,0.0,0.0,0.0,0.0,4.17,0.0,0.0,0.0,0.0,0.0,0.0,0.0,0.0,0.0,0.0,4.9952,5.1846,5.3933,5.5588,0.0,0.0,0.0,0.0,6.2435,6.3166,6.3308,6.3615,6.4436,6.3935,6.3358,6.3346,0.0,0.0,6.2192,6.2192,6.2399,6.3206,6.3608,6.3623,6.2426,6.1452,6.1156,6.1925,6.2656,6.3194,6.305,6.4129,6.5543,3.9416,0.0,0.0,0.0,0.0,3.7414,3.8073,3.9473,3.9252,3.9614,4.0391,3.98,0.0,0.0,0.0,0.0,0.0,0.0,4.153,4.3135,4.3517,4.4147,4.5068,4.4961,4.4909,4.4891,4.4944,4.5273,4.5824,4.5382,4.4784,4.4056,0.0,0.0,0.0,0.0,4.647,4.7722,4.8879,5.0285,5.1984,5.3029,5.3467,5.3283,5.3039,5.1961,4.9906,4.9581,4.804,4.5156,4.4041,0.0,0.0,0.0,0.0,0.0,0.0,0.0,0.0,0.0,0.0,0.0,0.0,0.0,0.0,0.0,0.0,0.0,0.0,0.0,4.0931,4.4432,4.6471,0.0,0.0,0.0,0.0,0.0,0.0,0.0,0.0,0.0,5.5249,5.5658,5.6511,0.0,0.0,6.1177,6.1678,6.2935,6.3974,6.4205,6.4243,0.0,6.5397,6.532,6.5166,6.5166,6.4728,6.4384,6.437,6.4123,6.3949,6.4215,6.4322,6.4478,6.4731,6.4101,6.3644,6.3927,6.4802,6.5718,6.6292,6.7452,6.8728,4.2312,4.1809,4.0619,4.008,4.0095,3.9911,4.0751,4.2165,4.2182,4.2656,4.3443,4.2926,4.221,4.1267,4.0704,0.0,0.0,0.0,4.3406,4.4751,4.4977,4.5587,4.6489,4.6728,4.6838,4.6838,4.6912,4.7169,4.7553,4.7627,4.7611,4.7383,0.0,0.0,4.6905,4.7332,4.7868,4.8624,4.9855,5.1089,5.2247,5.3097,5.3401,5.3271,5.347,5.2752,5.0989,5.079,4.9487,4.6845,4.6088,4.4651,0.0,0.0,0.0,0.0,0.0,0.0,0.0,0.0,0.0,0.0,0.0,3.3205,3.2237,0.0,0.0,0.0,4.1626,4.3185,4.4528,4.7529,0.0,0.0,0.0,0.0,0.0,0.0,0.0,5.1316,5.4496,5.7248,5.8495,5.8893,5.937,6.0176,6.1593,6.2783,6.327,0.0,6.5667,6.5855,6.5866,6.6071,6.657,6.6533,6.6406,6.6406,6.6214,6.6069,6.6036,6.6038,6.6123,6.6124,6.6258,6.6671,6.7464,6.7098,6.6646,6.6636,6.7212,6.8095,6.9111,6.9939,7.0674,4.4801,4.4562,4.1735,4.0597,4.0649,4.1351,4.2505,4.3858,4.3928,4.4407,4.507,4.5107,4.4288,4.2971,4.295,0.0,4.3911,4.4721,4.5531,4.6396,4.7151,4.7463,4.7406,4.8159,4.8489,4.8489,4.8622,4.8603,4.8526,4.8603,4.9394,5.0749,4.9584,4.8105,4.6581,4.8789,4.951,4.8636,5.0839,5.2013,5.2107,5.2821,5.3188,5.3209,5.3297,5.3097,5.2605,5.1999,5.1094,4.9738,4.8314,4.7095,4.615,0.0,0.0,0.0,0.0,0.0,0.0,0.0,0.0,0.0,0.0,0.0,0.0,0.0,0.0,4.341,4.6219,0.0,4.8953,5.0644,0.0,0.0,0.0,5.2628,5.1852,5.3926,5.516,5.4435,0.0,0.0,6.0279,6.1479,6.2172,6.1827,6.2793,6.3948,6.5192,6.6279,6.7275,6.7537,6.7719,6.7757,6.7719,6.7583,6.7464,6.7464,6.7372,6.7335,6.7354,6.7789,6.83,6.8355,6.883,6.9325,7.0188,6.9822,6.9788,6.9783,6.9812,7.0206,7.1309,7.1664,7.1804,4.5626,4.5553,4.4818,4.4504,4.4522,4.4743,4.535,4.6232,4.6269,4.647,4.6709,4.6746,4.6228,4.5409,4.5966,4.6319,4.6451,4.7261,4.8052,4.8767,4.8969,4.9353,4.9921,5.0141,5.0215,5.0215,5.0235,5.0235,5.0215,5.0235,5.0455,5.0765,5.0498,5.0387,5.0528,5.0002,5.0167,5.1132,5.1683,5.2307,5.2894,5.3115,5.323,5.3277,5.3546,5.3291,5.2416,5.2454,5.1631,4.9893,4.9517,4.8695,4.7243,4.7064,0.0,0.0,0.0,0.0,0.0,0.0,0.0,0.0,0.0,4.1452,3.9949,0.0,4.7322,0.0,4.9002,5.0473,4.9424,5.1985,0.0,0.0,5.3777,5.4791,5.404,5.5394,5.663,5.7316,5.8912,6.0547,6.1921,6.2541,6.3257,6.4199,6.4891,6.5475,6.5845,6.6581,6.7186,6.7364,6.7423,6.7574,6.8202,6.8772,6.9058,6.9077,6.8744,6.8511,6.8511,6.8391,6.8511,6.9094,6.9405,6.9865,7.061,7.0598,7.0733,7.1206,7.1275,7.1416,7.2305,7.2736,7.3053,4.6985,4.7021,4.7388,4.7554,4.7481,4.682,4.6967,4.7738,4.8106,4.8511,4.888,4.8569,4.8182,4.7776,4.8219,4.8366,4.8401,4.9154,4.976,5.0141,5.0528,5.0875,5.1353,5.172,5.1867,5.1846,5.1867,5.1867,5.1867,5.1867,5.1903,5.1867,5.1867,5.2087,5.2454,5.1279,5.1279,5.2527,5.2527,5.2747,5.3167,5.3203,5.3576,5.4265,5.3853,5.3654,5.3863,5.3048,5.2401,5.2081,5.1823,5.1213,5.0324,5.0095,4.9864,0.0,0.0,0.0,0.0,0.0,0.0,0.0,0.0,0.0,0.0,0.0,4.986,4.9738,5.1312,5.2081,5.1474,5.3453,5.4593,5.4033,5.5553,5.6602,5.6507,5.7528,5.8428,5.9099,6.0396,6.1623,6.25,6.3248,6.3953,6.483,6.5795,6.652,6.6803,6.7354,6.7789,6.7994,6.803,6.8231,6.8812,6.9551,7.0069,7.0046,6.9841,6.969,6.969,6.9509,6.9531,6.9939,7.005,7.0309,7.105,7.1183,7.1426,7.2108,7.2295,7.241,7.2795,7.3137,7.3457,4.8379,4.8563,4.928,4.9684,4.9647,4.831,4.8218,4.8991,4.969,5.039,5.0996,5.0246,4.9877,4.9837,4.9965,4.9963,4.9978,5.0729,5.1132,5.1169,5.183,5.216,5.2197,5.2858,5.3203,5.3203,5.3203,5.3203,5.3203,5.3203,5.3203,5.3203,5.3203,5.324,5.3335,5.2564,5.2491,5.3167,5.3387,5.3518,5.3497,5.3518,5.4216,5.5596,5.4154,5.4034,5.5506,5.3564,5.3148,5.467,5.3987,5.3563,5.3617,5.2842,5.1693,0.0,4.9004,0.0,0.0,0.0,0.0,0.0,0.0,0.0,0.0,4.9439,5.1619,5.3365,5.3429,5.3645,5.4242,5.5193,5.6052,5.6721,5.7484,5.8266,5.8974,5.9814,6.0356,6.0356,6.164,6.2588,6.2789,6.3715,6.4413,6.4977,6.605,6.7022,6.7681,6.809,6.8436,6.8928,6.9072,6.9131,6.9558,7.0084,7.0476,7.0486,7.0491,7.0665,7.0554,7.0565,7.0639,7.0787,7.0819,7.1135,7.1874,7.2032,7.2253,7.2955,7.2982,7.2926,7.299,7.3246,7.3525,4.871,4.9353,4.9537,4.9958,5.0545,5.0271,5.0622,5.1357,5.1503,5.165,5.1724,5.0952,5.0622,5.0639,5.1263,5.1557,5.1573,5.238,5.2747,5.2763,5.2894,5.2968,5.2968,5.3151,5.3203,5.3203,5.3203,5.3203,5.3203,5.3203,5.3203,5.3203,5.3203,5.3518,5.4106,0.0,0.0,0.0,5.4473,5.5133,5.5133,5.5133,5.5611,5.6492,5.4384,0.0,5.4568,5.3597,5.3472,5.4396,5.3171,0.0,0.0,0.0,0.0,0.0,0.0,0.0,0.0,0.0,0.0,0.0,5.0083,5.0343,4.8493,5.0378,5.2842,5.5342,5.5879,5.6101,5.6264,5.7589,5.8577,5.8814,5.9553,6.0166,6.0404,6.1166,6.1647,6.1647,6.2392,6.3134,6.3737,6.407,6.4719,6.6024,6.6551,6.7096,6.7938,6.811,6.8197,6.8321,6.8828,6.9531,7.0191,7.0434,7.0629,7.0507,7.0428,7.0438,7.0485,7.0448,7.0669,7.1222,7.194,7.2696,7.3508,7.3609,7.3488,7.3672,7.323,7.2807,7.2955,7.3564,7.4044,4.9206,4.9684,5.0455,5.1022,0.0,5.183,5.2234,5.2564,5.216,5.2234,5.2564,5.216,5.2013,5.2013,5.2417,5.2601,5.2637,5.3041,5.3203,5.3203,5.3203,5.3203,5.3203,5.3203,5.3203,5.3203,5.3203,5.3203,5.3203,5.3203,5.3203,5.3203,5.3203,5.3408,5.3775,5.3408,5.3203,5.3203,5.4399,5.4987,5.5023,5.5023,5.5574,5.6675,5.4473,0.0,0.0,0.0,0.0,0.0,0.0,0.0,0.0,0.0,0.0,5.3272,5.2541,5.212,5.2022,5.1731,5.1347,5.0919,5.2316,5.272,5.1507,5.2863,5.4712,5.6863,5.7685,5.8212,5.8547,5.9402,6.0073,6.0441,6.0845,6.1274,6.1726,6.2131,6.2389,6.2426,6.2708,6.3198,6.4044,6.4508,6.5206,6.6475,6.7001,6.7369,6.7893,6.8044,6.807,6.8144,6.9126,6.9921,7.0374,7.1094,7.1471,7.1508,7.1508,7.1508,7.1508,7.1508,7.1655,7.2097,7.276,7.346,7.3865,7.4175,7.4412,7.4375,7.4052,7.3823,7.3938,7.4032,7.4171,4.9904,5.0124,5.1426,5.2087,5.227,5.2931,5.3203,5.3188,0.0,0.0,0.0,5.3203,5.3203,5.3203,5.3203,5.3203,5.3203,5.3203,5.3203,5.3203,5.3203,5.3203,5.3203,5.3203,5.3203,5.3203,5.3203,5.3203,5.3203,5.3203,5.3203,5.3203,5.3203,5.3203,5.3203,5.3203,5.3203,5.324,5.4142,5.462,5.462,5.462,5.5317,5.6785,5.4473,5.3885,5.528,5.4106,5.4075,5.5469,5.5543,5.5911,5.6669,5.6006,5.5279,5.4641,5.3371,5.2968,5.3754,5.3225,5.2968,5.3225,5.4509,5.517,5.506,5.5757,5.6859,5.829,5.9265,6.0023,6.0529,6.0858,6.1176,6.1741,6.1814,6.2071,6.2695,6.2805,6.2842,6.2989,6.3062,6.3429,6.4482,6.5154,6.5841,6.6717,6.7326,6.7741,6.7847,6.7915,6.8041,6.8336,6.9362,7.0275,7.0643,7.1553,7.2422,7.2414,7.2537,7.2667,7.2667,7.2777,7.2814,7.2593,7.3317,7.3846,7.3964,7.4441,7.4955,7.5102,7.4992,7.4955,7.5028,7.4787,7.4735,5.1022,5.1703,5.1903,5.2417,5.3041,5.313,5.3203,5.3203,5.3057,5.3093,5.3203,5.3203,5.3203,5.3203,5.3203,5.3203,5.3203,5.3203,5.3203,5.3203,5.3203,5.3203,5.3203,5.3203,5.3203,5.3203,5.3203,5.3203,5.3203,5.3203,5.3203,5.3203,5.3203,5.3203,5.3203,5.3203,5.3203,5.3203,5.4693,5.5427,5.5427,5.5427,5.5868,5.6638,5.4451,5.3628,5.4509,5.4363,5.4326,5.4568,5.4604,5.4993,5.5691,5.5104,5.4861,5.5376,5.5207,5.5427,5.6235,5.6198,5.6712,5.8033,5.8377,5.8253,5.7593,5.8253,5.9098,5.9979,6.0774,6.1324,6.1484,6.1998,6.2463,6.2585,6.2622,6.267,6.2805,6.2842,6.3135,6.3759,6.3906,6.4494,6.5742,6.6182,6.6549,6.731,6.7604,6.7714,6.7814,6.7741,6.8061,6.8696,6.9541,7.0358,7.1019,7.1863,7.2459,7.2532,7.2524,7.2561,7.2663,7.3104,7.3288,7.2708,7.3817,7.4588,7.4698,7.4808,7.5212,7.5652,7.5432,7.5212,7.5836,7.638,7.6637,5.1683,5.205,5.2454,5.2858,5.3203,5.3203,5.3203,5.3203,5.3203,5.3203,5.3203,5.3203,5.3203,5.3203,5.3203,5.3203,5.3203,5.3203,5.3203,5.3203,5.3203,5.3203,5.3203,5.3203,5.3424,5.3812,5.3849,5.4069,5.4473,5.4509,5.4509,5.4509,5.4509,5.4509,5.4509,5.4509,5.4509,5.4509,5.4803,5.495,5.495,5.495,5.5317,5.6088,5.4216,5.3592,5.4363,5.4399,5.4399,5.4399,5.4803,5.5427,5.6198,5.6308,5.6712,5.7483,5.7556,5.7923,5.8694,5.834,5.8621,5.9735,5.9869,5.9905,5.9942,6.0272,6.0676,6.1043,6.1777,6.2254,6.2254,6.2585,6.2805,6.2805,6.2805,6.2805,6.2879,6.3246,6.3649,6.4053,6.4494,6.5191,6.6366,6.6512,6.6806,6.7504,6.7687,6.7834,6.8274,6.8348,6.8458,6.8898,6.9596,7.0367,7.1174,7.1982,7.2459,7.2532,7.2532,7.2679,7.301,7.3523,7.367,7.3854,7.4808,7.5249,7.4999,7.5285,7.5689,7.5909,7.5873,7.6019,7.7084,7.8075,7.8772,5.227,5.2344,5.2931,5.3203,5.3203,5.3203,5.3203,5.3203,5.3203,5.3277,5.3445,5.3298,5.3203,5.3203,5.3203,5.3298,5.3482,5.346,5.3555,5.3739,5.3739,5.3739,5.3739,5.3739,5.4069,5.462,5.4656,5.4987,5.5537,5.5633,5.5633,5.5633,5.5633,5.5633,5.5633,5.5633,5.5633,5.5559,5.4987,5.4656,5.4656,5.4509,5.4766,5.5427,5.4252,5.3849,5.462,5.5023,5.5133,5.4987,5.5868,5.6712,5.7313,5.7923,5.8621,5.9368,5.9478,5.9808,6.0566,6.0309,6.0285,6.0896,6.0933,6.119,6.1777,6.1887,6.1887,6.1924,6.2438,6.2805,6.2768,6.2805,6.2805,6.2805,6.2805,6.2915,6.3135,6.3686,6.4273,6.4567,6.5191,6.5888,6.6549,6.6769,6.7136,6.7797,6.7981,6.8274,6.8972,6.9192,6.9229,6.9522,7.0,7.0587,7.1219,7.1982,7.2459,7.2532,7.2532,7.2826,7.3413,7.378,7.4147,7.4735,7.5469,7.5652,7.5139,7.5359,7.5689,7.5763,7.5836,7.6644,7.8405,7.9617,8.0461,5.3115,5.3093,5.3261,5.3203,5.324,5.3203,5.3203,5.324,5.3203,5.3628,5.4179,5.3555,5.324,5.3203,5.324,5.3628,5.4289,5.4289,5.4656,5.5244,5.5354,5.539,5.528,5.5317,5.5412,5.5486,5.55,5.5574,5.5721,5.5684,5.5669,5.5633,5.5633,5.5669,5.5669,5.5669,5.5611,5.5633,5.5559,5.5486,5.5427,5.4766,5.4766,5.5574,5.4766,5.4656,5.5574,5.6859,5.7336,5.6785,5.801,5.8877,5.8964,5.9038,5.9441,6.0236,6.0309,6.0639,6.141,6.2108,6.2438,6.256,6.2511,6.2548,6.2658,6.2695,6.2695,6.2695,6.2768,6.2805,6.2805,6.2805,6.2805,6.2805,6.2879,6.3099,6.3796,6.4016,6.464,6.6145,6.6256,6.6696,6.732,6.7467,6.7834,6.8421,6.8605,6.8935,6.9669,6.9963,7.0257,7.0844,7.1174,7.1183,7.1468,7.1982,7.2422,7.2532,7.2532,7.2899,7.3597,7.4331,7.4882,7.5322,7.5652,7.5873,7.5285,7.4962,7.5035,7.5359,7.5873,7.69,7.9103,8.0755,8.1599,5.462,5.462,5.462,5.462,5.4509,5.3628,5.3482,5.3885,5.3922,5.4106,5.4399,5.4546,5.462,5.462,5.462,5.4803,5.5097,5.5097,5.528,5.5574,5.5633,5.5633,5.5633,5.5633,5.5831,5.6271,5.6308,5.6565,5.6932,5.7005,5.7005,5.7005,5.7005,5.7005,5.7005,5.7005,5.7005,5.7042,5.7483,5.774,5.7519,5.6014,5.5721,5.6785,5.6235,5.6418,5.7629,5.84,5.8561,5.8304,5.9318,5.9905,5.9905,6.0346,6.075,6.1117,6.1557,6.1961,6.2291,6.2597,6.2805,6.2805,6.2805,6.2805,6.2805,6.2805,6.2805,6.2805,6.2805,6.2805,6.2805,6.2805,6.2805,6.2879,6.3246,6.3723,6.4016,6.4934,6.5852,6.6439,6.6916,6.7283,6.7577,6.7687,6.7834,6.8201,6.8568,6.9265,6.9963,7.0477,7.1138,7.1798,7.2018,7.2018,7.2018,7.2239,7.2496,7.2532,7.2532,7.2863,7.4111,7.4588,7.5139,7.6056,7.6497,7.646,7.5799,7.5175,7.4888,7.5175,7.657,7.8075,7.9507,8.1048,8.1819,5.5633,5.5633,5.5633,5.5633,5.55,5.4363,5.4179,5.4693,5.473,5.484,5.5133,5.5684,5.6051,5.6116,5.5831,5.5706,5.5904,5.5941,5.6051,5.6235,5.6235,5.6294,5.6235,5.6235,5.6565,5.7042,5.7152,5.7446,5.796,5.7997,5.7997,5.7997,5.8217,5.8327,5.8364,5.851,5.8657,5.8694,5.9245,5.9515,5.9281,5.7813,5.7483,5.8474,5.7886,5.8107,5.9465,5.9735,5.9845,5.9869,6.0615,6.108,6.108,6.163,6.1924,6.1961,6.2475,6.2805,6.2805,6.2805,6.2805,6.2805,6.2805,6.2805,6.2805,6.2805,6.2805,6.2805,6.2805,6.2805,6.2805,6.2805,6.2879,6.3135,6.3759,6.42,6.4787,6.5888,6.6549,6.6843,6.732,6.7687,6.7687,6.7687,6.7797,6.8128,6.8788,6.9522,7.033,7.1138,7.1872,7.2422,7.2496,7.2496,7.2532,7.2496,7.2532,7.2532,7.2532,7.3083,7.4515,7.4815,7.5402,7.643,7.7017,7.6943,7.6093,7.5432,7.4962,7.5322,7.6533,7.8332,7.9543,8.0938,8.1782,5.5633,5.5647,5.5633,5.5647,5.5574,5.5464,5.5464,5.5515,5.5574,5.5978,5.6579,5.6763,5.7121,5.7541,5.6314,5.6051,5.6653,5.6726,5.7093,5.7703,5.7776,5.785,5.7886,5.7886,5.785,5.7813,5.7813,5.79,5.801,5.801,5.7997,5.8047,5.871,5.91,5.915,5.9676,6.0248,6.0054,6.02,6.0322,6.0346,6.0199,6.0162,6.0236,5.9515,5.9478,6.0346,6.108,6.1484,6.1484,6.2181,6.2597,6.2658,6.2695,6.267,6.2732,6.2768,6.2805,6.2805,6.2805,6.2805,6.2805,6.2805,6.2805,6.2805,6.2805,6.2805,6.2805,6.2805,6.2805,6.278,6.2915,6.3209,6.3833,6.409,6.4861,6.6145,6.6366,6.6843,6.7393,6.7614,6.7687,6.7687,6.7687,6.7981,6.8605,6.9449,7.0183,7.0881,7.1798,7.2275,7.2459,7.2532,7.2532,7.2532,7.2532,7.2532,7.2532,7.2642,7.3046,7.4111,7.5072,7.5916,7.6686,7.709,7.6974,7.624,7.5689,7.5285,7.5432,7.5946,7.7378,7.969,8.0461,8.1269,5.6955,5.6849,5.6314,5.641,5.6739,5.5789,5.562,5.6131,5.6679,5.7045,5.7374,5.7849,5.8227,5.8385,5.7374,5.7078,5.7418,5.7348,5.7517,5.7857,5.7774,5.7774,5.7881,5.7881,5.7927,5.7997,5.7997,5.8066,5.8189,5.8201,5.8217,5.8339,5.8574,5.8781,5.8817,5.9033,5.9401,5.9812,6.03,6.0744,6.1202,6.1667,6.1924,6.1887,6.1153,6.1117,6.1924,6.2254,6.2365,6.2365,6.2658,6.2805,6.2805,6.2805,6.2805,6.2805,6.2805,6.2805,6.2805,6.2805,6.2805,6.2805,6.2805,6.2805,6.2805,6.2805,6.2805,6.2805,6.2805,6.2805,6.2915,6.3282,6.3723,6.4127,6.5007,6.5778,6.6439,6.6916,6.7357,6.7614,6.7687,6.7687,6.7687,6.7687,6.7797,6.8128,6.8825,6.9633,7.044,7.1248,7.1945,7.2349,7.2532,7.2532,7.2532,7.2532,7.2532,7.2532,7.2679,7.3413,7.4294,7.4778,7.5512,7.6796,7.7237,7.7127,7.6497,7.6056,7.5689,7.6209,7.6717,7.7635,8.0094,8.0718,8.1342,5.7655,5.7486,5.6806,5.6805,5.7168,5.6208,5.6061,5.6638,5.7371,5.7732,5.7841,5.8336,5.8527,5.8454,5.814,5.805,5.8042,5.7765,5.7667,5.7679,5.7461,5.7388,5.751,5.7449,5.7546,5.7715,5.7981,5.8177,5.8349,5.8367,5.8402,5.8503,5.8723,5.8866,5.8902,5.9144,5.9601,6.0278,6.0819,6.1402,6.1997,6.2511,6.2705,6.2442,6.1967,6.2043,6.278,6.2805,6.2805,6.2805,6.2805,6.2805,6.2805,6.2805,6.2805,6.2805,6.2805,6.2805,6.2805,6.2805,6.2805,6.2805,6.2805,6.2805,6.2805,6.2805,6.2805,6.2805,6.2805,6.2805,6.3025,6.3796,6.4494,6.464,6.5705,6.6623,6.688,6.7357,6.7614,6.765,6.7687,6.7687,6.7687,6.7687,6.7687,6.7687,6.8385,6.9155,6.9669,7.066,7.1439,7.2018,7.2349,7.2459,7.2532,7.2532,7.2532,7.2532,7.2532,7.3377,7.4294,7.4668,7.5439,7.6723,7.7237,7.7127,7.6864,7.646,7.668,7.72,7.7347,7.7861,7.958,8.0865,8.1452,5.7583,5.751,5.6974,5.6793,5.6858,5.6898,5.6914,5.7021,5.7706,5.8048,5.8078,5.8096,5.8131,5.8007,5.836,5.8657,5.8446,5.7882,5.7631,5.7571,5.7036,5.6845,5.7046,5.7057,5.7191,5.7445,5.7903,5.8288,5.851,5.851,5.8523,5.8637,5.9218,5.9443,5.9656,6.0137,6.0948,6.1404,6.1523,6.1986,6.2668,6.2618,6.2386,6.1951,6.1797,6.2013,6.2654,6.2679,6.2592,6.2654,6.2705,6.278,6.278,6.2805,6.2805,6.2805,6.2805,6.2805,6.2805,6.2805,6.2805,6.2805,6.2805,6.2805,6.2805,6.2805,6.2805,6.2805,6.2805,6.2805,6.3062,6.4237,6.5191,6.5375,6.6072,6.688,6.743,6.7677,6.7687,6.7687,6.7687,6.7687,6.7687,6.7687,6.7687,6.7797,6.8274,6.8825,6.9119,7.0146,7.1064,7.1505,7.1872,7.2202,7.2386,7.2532,7.2532,7.2532,7.2569,7.301,7.4258,7.4925,7.5622,7.676,7.7273,7.72,7.6943,7.6613,7.7053,7.753,7.7714,7.8374,8.0021,8.1379,8.1489,5.7313,5.7361,5.7753,5.7621,5.7314,5.7804,5.7836,5.7459,5.8233,5.855,5.855,5.855,5.8519,5.8413,5.8174,5.7988,5.7947,5.7717,5.7624,5.7531,5.6806,5.6823,5.7406,5.7804,5.8202,5.8474,5.8303,5.8349,5.8663,5.8703,5.8734,5.8913,5.9092,5.9197,5.9262,5.9474,5.9902,6.0498,6.059,6.0891,6.1436,6.1492,6.135,6.112,6.1062,6.112,6.1178,6.1293,6.135,6.1379,6.1778,6.2219,6.2643,6.2805,6.2805,6.2805,6.2805,6.2805,6.278,6.278,6.278,6.278,6.278,6.2805,6.2805,6.278,6.278,6.278,6.2805,6.2805,6.3074,6.431,6.5264,6.5338,6.6512,6.7357,6.7614,6.7687,6.7687,6.7687,6.7687,6.7687,6.7687,6.7687,6.7687,6.7687,6.7981,6.8238,6.8862,6.9339,7.022,7.1064,7.1505,7.2018,7.2349,7.2532,7.2532,7.2532,7.2532,7.2899,7.4074,7.4999,7.5769,7.6576,7.709,7.72,7.6943,7.6955,7.7291,7.8018,7.8463,7.9668,8.12,8.1782,8.175,5.7191,5.7644,5.7684,5.7798,5.7868,5.8208,5.8105,5.777,5.8207,5.8454,5.8454,5.8454,5.8454,5.8416,5.8164,5.8084,5.8049,5.7805,5.7701,5.7594,5.6829,5.6788,5.7394,5.7829,5.8323,5.8674,5.8382,5.8389,5.8818,5.882,5.8831,5.8978,5.8944,5.8978,5.8978,5.8944,5.9216,5.9809,6.0005,6.0219,6.0646,6.0796,6.061,6.0309,6.0215,5.9995,5.9641,5.9706,6.0027,6.0585,6.1265,6.1824,6.2324,6.2592,6.2705,6.249,6.2464,6.2464,6.25,6.2438,6.2464,6.2464,6.2464,6.2464,6.2464,6.2464,6.2515,6.2755,6.2805,6.2805,6.3025,6.4284,6.5228,6.5338,6.6733,6.7577,6.7687,6.7687,6.7687,6.7687,6.7687,6.7687,6.7687,6.7687,6.7687,6.7687,6.7714,6.7787,6.8385,6.8715,6.9669,7.055,7.1174,7.1725,7.2386,7.2532,7.2532,7.2532,7.2532,7.3083,7.3964,7.4698,7.5402,7.6546,7.7243,7.7243,7.7028,7.6946,7.7176,7.8085,7.9169,8.0125,8.1183,8.1615,8.1725,5.7075,5.8139,5.7056,5.7471,5.8478,5.8148,5.7907,5.7843,5.7905,5.7961,5.7959,5.7963,5.7925,5.8067,5.8393,5.8599,5.8668,5.8083,5.7806,5.7632,5.7114,5.7002,5.7324,5.7526,5.7904,5.8243,5.8256,5.8424,5.8737,5.8737,5.884,5.8909,5.884,5.884,5.8875,5.884,5.9047,5.9482,5.9744,5.9934,6.0215,6.0366,6.0153,5.9379,5.9347,5.9011,5.8492,5.8422,5.8943,6.018,6.0938,6.1343,6.1659,6.2271,6.2271,6.1833,6.1842,6.1842,6.1842,6.1978,6.1996,6.205,6.2024,6.1906,6.2014,6.1942,6.2059,6.2567,6.2679,6.273,6.3048,6.431,6.5264,6.5668,6.688,6.7614,6.7687,6.7687,6.7687,6.7687,6.7687,6.7687,6.7687,6.7687,6.7687,6.7687,6.7687,6.776,6.7871,6.8385,6.9119,6.9853,7.055,7.1321,7.1908,7.2496,7.2496,7.2532,7.2569,7.3046,7.3891,7.4625,7.5476,7.6582,7.7217,7.7181,7.715,7.7029,7.7651,7.8876,7.9686,8.032,8.0904,8.1516,8.1732,5.6432,5.7655,5.7482,5.7917,5.8721,5.8656,5.8324,5.7901,5.7925,5.7881,5.7881,5.7881,5.7881,5.7918,5.8065,5.8173,5.814,5.797,5.7901,5.7831,5.7695,5.7843,5.8231,5.8355,5.8531,5.8736,5.839,5.8314,5.8561,5.8561,5.8596,5.8631,5.8596,5.8596,5.8631,5.8596,5.8666,5.8806,5.8875,5.8944,5.9046,5.908,5.8875,5.8597,5.8527,5.8351,5.7991,5.7954,5.8388,5.9344,5.9896,6.0463,6.0885,6.1178,6.1293,6.1178,6.1062,6.1062,6.1236,6.1584,6.1865,6.2025,6.1852,6.1957,6.2002,6.1472,6.1536,6.1978,6.2176,6.2334,6.2936,6.431,6.5632,6.688,6.743,6.7687,6.7687,6.7687,6.7687,6.7687,6.7687,6.7687,6.7687,6.7687,6.7687,6.7687,6.7687,6.7687,6.7787,6.7871,6.8495,6.9155,6.9853,7.0697,7.1431,7.2129,7.2459,7.2496,7.2642,7.2899,7.3891,7.4882,7.5946,7.7053,7.7082,7.7092,7.7087,7.7024,7.8254,7.9247,7.9552,7.9825,8.1054,8.1812,8.1812,5.5999,5.7523,5.7351,5.8066,5.9172,5.9006,5.8702,5.8315,5.8027,5.7881,5.7881,5.7881,5.7881,5.7881,5.7918,5.7918,5.7881,5.7881,5.7918,5.7918,5.785,5.8044,5.8324,5.8461,5.8563,5.8598,5.8244,5.8241,5.8348,5.8384,5.8419,5.849,5.8419,5.8419,5.8525,5.8419,5.8384,5.8419,5.8455,5.8455,5.8277,5.8348,5.8277,5.8099,5.8063,5.7991,5.7918,5.7881,5.8137,5.8633,5.9112,5.9641,6.0027,6.0432,6.0494,6.0335,6.0242,6.0309,6.0463,6.0861,6.1248,6.1503,6.1385,6.1294,6.1344,6.0861,6.0676,6.1236,6.1584,6.1978,6.2615,6.4155,6.5793,6.6912,6.7515,6.7687,6.7687,6.7687,6.7687,6.7687,6.7687,6.7687,6.7687,6.7687,6.7687,6.7687,6.7687,6.7687,6.7687,6.7724,6.7907,6.8678,6.9302,7.011,7.0954,7.1688,7.2312,7.2422,7.2569,7.2826,7.3854,7.4992,7.5983,7.6766,7.6904,7.6998,7.7061,7.7176,7.7782,7.8482,7.8887,7.9758,8.0953,8.1818,8.1818,5.5674,5.7561,5.6863,5.786,5.9536,5.9113,5.8703,5.8633,5.8137,5.7881,5.7881,5.7881,5.7881,5.7881,5.7881,5.7881,5.7881,5.7881,5.7881,5.7881,5.7881,5.7961,5.7997,5.7997,5.8029,5.7993,5.7918,5.7991,5.8135,5.8169,5.8277,5.8312,5.8241,5.8277,5.8348,5.8241,5.8205,5.8205,5.8312,5.8241,5.8027,5.8063,5.8063,5.7954,5.7918,5.7918,5.7918,5.7881,5.7954,5.7918,5.8633,5.8977,5.9145,5.98,5.9867,5.9513,5.9447,5.9513,5.9611,5.9873,6.0358,6.0856,6.0504,6.0299,6.0691,6.0311,6.0013,6.0494,6.1113,6.1656,6.2386,6.3911,6.5093,6.6098,6.6879,6.7286,6.7488,6.7569,6.7687,6.7687,6.7687,6.7687,6.7687,6.7687,6.7687,6.7687,6.7687,6.7687,6.7687,6.7687,6.7944,6.8421,6.9009,6.9559,7.0403,7.1284,7.1872,7.2312,7.2459,7.2863,7.3891,7.4918,7.5836,7.6478,7.6805,7.7029,7.7061,7.7299,7.7582,7.8201,7.8847,7.9837,8.0861,8.1433,8.1717,5.548,5.6863,5.6201,5.7193,5.8839,5.8423,5.8101,5.8101,5.7991,5.7881,5.7881,5.7881,5.7881,5.7881,5.7881,5.7881,5.7881,5.7881,5.7881,5.7881,5.7881,5.7881,5.7881,5.7881,5.7881,5.7881,5.7881,5.7918,5.7954,5.7991,5.7991,5.8027,5.8027,5.7991,5.8027,5.8027,5.7954,5.7954,5.8027,5.8027,5.7954,5.7918,5.7954,5.7881,5.7881,5.7881,5.7881,5.7881,5.7881,5.7991,5.8173,5.8457,5.8527,5.8633,5.8771,5.8737,5.8597,5.8632,5.8806,5.9284,5.9871,6.0565,6.0496,6.0495,6.0626,6.0042,5.9668,5.9851,6.0432,6.1342,6.247,6.2633,6.3636,6.4751,6.5336,6.5657,6.6095,6.7024,6.7542,6.766,6.7687,6.7687,6.7687,6.7687,6.7687,6.7687,6.7687,6.7687,6.7687,6.7687,6.7907,6.8201,6.8531,6.9119,7.022,7.1138,7.1908,7.2312,7.2422,7.2789,7.3854,7.4735,7.5616,7.6301,7.6883,7.6993,7.7029,7.6943,7.7116,7.7976,7.8844,7.9655,8.0458,8.1071,8.1649,5.5757,5.6713,5.6331,5.7082,5.8214,5.8029,5.7881,5.7881,5.7881,5.7881,5.7881,5.7881,5.7881,5.7881,5.7881,5.7881,5.7881,5.7881,5.7881,5.7881,5.7881,5.7881,5.7881,5.7881,5.7881,5.7881,5.7881,5.7881,5.7881,5.7881,5.7918,5.7881,5.7881,5.7918,5.7881,5.7881,5.7918,5.7918,5.7881,5.7881,5.7881,5.7881,5.7881,5.7881,5.7881,5.7881,5.7881,5.7881,5.7881,5.7918,5.7991,5.8063,5.8097,5.8063,5.8133,5.8171,5.8207,5.8241,5.8456,5.8771,5.9322,6.0132,6.0147,6.0314,6.0335,5.9916,5.9481,5.9426,5.9824,6.0556,6.2135,6.2555,6.2955,6.367,6.4511,6.497,6.5335,6.6374,6.723,6.7286,6.7488,6.7633,6.7687,6.7687,6.766,6.766,6.7687,6.7687,6.7687,6.7687,6.7687,6.7907,6.8128,6.8752,7.0,7.1064,7.2055,7.2349,7.2459,7.2936,7.367,7.4515,7.5322,7.6014,7.6732,7.6929,7.6934,7.681,7.6865,7.7632,7.8465,7.9296,8.0128,8.0891,8.1467,5.6258,5.6799,5.6799,5.7239,5.7814,5.7918,5.7881,5.7881,5.7881,5.7881,5.7881,5.7881,5.7881,5.7881,5.7881,5.7881,5.7881,5.7881,5.7881,5.7881,5.7881,5.7881,5.7881,5.7881,5.7881,5.7881,5.7881,5.7881,5.7881,5.7881,5.7881,5.7881,5.7881,5.7881,5.7881,5.7881,5.7881,5.7881,5.7881,5.7881,5.7881,5.7881,5.7881,5.7881,5.7881,5.7881,5.7881,5.7881,5.7881,5.7881,5.7881,5.7881,5.7881,5.7881,5.7983,5.8053,5.8162,5.8337,5.8611,5.8621,5.876,5.9545,5.9716,5.9848,6.0007,5.98,5.9395,5.9064,5.915,5.9588,6.1065,6.1687,6.2223,6.2925,6.4035,6.4631,6.4736,6.5561,6.6192,6.6823,6.7117,6.7341,6.7569,6.7687,6.766,6.7606,6.766,6.766,6.7596,6.7687,6.7687,6.7687,6.7907,6.8678,6.9889,7.0881,7.1908,7.2357,7.2496,7.2863,7.3377,7.4001,7.4778,7.5825,7.6465,7.6705,7.6801,7.6676,7.6911,7.7464,7.8042,7.8792,7.9733,8.0713,8.118,5.6697,5.6799,5.6799,5.7205,5.7814,5.7881,5.7881,5.7881,5.7881,5.7881,5.7881,5.7881,5.7881,5.7881,5.7881,5.7881,5.7881,5.7881,5.7881,5.7881,5.7881,5.7881,5.7881,5.7881,5.7881,5.7881,5.7881,5.7881,5.7881,5.7881,5.7881,5.7881,5.7881,5.7881,5.7881,5.7881,5.7881,5.7881,5.7881,5.7881,5.7881,5.7881,5.7881,5.7881,5.7881,5.7881,5.7881,5.7881,5.7881,5.7881,5.7881,5.7915,5.7983,5.7983,5.8287,5.8524,5.8392,5.8598,5.9312,5.8702,5.8872,5.9617,5.9994,5.9651,5.958,5.9577,5.9241,5.8499,5.8271,5.8632,5.9619,6.0463,6.0866,6.1412,6.2456,6.3498,6.3716,6.4288,6.5303,6.6161,6.6648,6.7061,6.7314,6.7488,6.746,6.7378,6.735,6.723,6.7117,6.7378,6.7633,6.766,6.7687,6.8715,6.9816,7.077,7.1688,7.2283,7.2467,7.2504,7.2981,7.345,7.4228,7.5104,7.6042,7.6578,7.6599,7.6541,7.6657,7.692,7.7601,7.8286,7.9119,7.9953,8.0684,5.7374,5.7374,5.7374,5.7577,5.7848,5.7881,5.7881,5.7881,5.7881,5.7881,5.7881,5.7881,5.7881,5.7881,5.7881,5.7881,5.7881,5.7881,5.7881,5.7881,5.7881,5.7881,5.7881,5.7881,5.7881,5.7881,5.7881,5.7881,5.7881,5.7881,5.7881,5.7881,5.7881,5.7881,5.7881,5.7881,5.7881,5.7881,5.7881,5.7881,5.7881,5.7881,5.7881,5.7881,5.7881,5.7881,5.7881,5.7881,5.7881,5.7949,5.8254,5.8423,5.8558,5.8829,5.8998,5.9032,5.8998,5.9235,5.9945,5.9336,5.9336,5.9438,5.9877,5.9945,5.9641,5.9471,5.9032,5.8254,5.7918,5.8099,5.8632,5.9298,5.9905,6.0591,6.162,6.2484,6.3015,6.3457,6.4358,6.5465,6.6192,6.6641,6.7061,6.7174,6.7202,6.7174,6.7061,6.6852,6.6648,6.6975,6.7378,6.7588,6.7726,6.8532,6.953,7.0372,7.1162,7.1786,7.2401,7.2438,7.2585,7.3061,7.3493,7.4111,7.5046,7.604,7.6567,7.6545,7.6512,7.6518,7.7171,7.7858,7.847,7.9194,7.9925,5.7881,5.7881,5.7881,5.7881,5.7881,5.7881,5.7881,5.7881,5.7881,5.7881,5.7881,5.7881,5.7881,5.7881,5.7881,5.7881,5.7881,5.7881,5.7881,5.7881,5.7881,5.7881,5.7881,5.7881,5.7881,5.7881,5.7881,5.7881,5.7881,5.7881,5.7881,5.7881,5.7881,5.7881,5.7881,5.7881,5.7881,5.7881,5.7881,5.7881,5.7881,5.7881,5.7881,5.7881,5.7881,5.7881,5.7881,5.8118,5.8186,5.8389,5.8795,5.9235,5.937,5.9945,6.0047,5.9674,5.9911,6.0148,6.0486,6.0114,5.9844,5.9911,6.0114,6.0216,5.9911,5.9404,5.8761,5.8084,5.7918,5.7918,5.8131,5.8592,5.9411,6.0269,6.1091,6.1843,6.2646,6.3114,6.3417,6.4463,6.5529,6.6253,6.6612,6.6553,6.6523,6.6493,6.6404,6.6404,6.6253,6.6648,6.7004,6.7404,6.778,6.8401,6.9141,6.9843,7.0551,7.1076,7.1838,7.227,7.2453,7.271,7.3111,7.3471,7.4122,7.5046,7.5766,7.6439,7.6445,7.6523,7.6961,7.7396,7.8005,7.8547,7.9203,5.7881,5.7881,5.7881,5.7881,5.7881,5.7881,5.7881,5.7881,5.7881,5.7881,5.7881,5.7881,5.7881,5.7881,5.7881,5.7881,5.7881,5.7881,5.7881,5.7881,5.7881,5.7881,5.7881,5.7881,5.7881,5.7881,5.7881,5.7881,5.7881,5.7881,5.7881,5.7881,5.7881,5.7881,5.7881,5.7881,5.7881,5.7881,5.7881,5.7881,5.7881,5.7881,5.7881,5.7881,5.7881,5.7881,5.7983,5.8389,5.8761,5.8896,5.9573,5.9945,6.0114,6.0757,6.1061,6.0858,6.0689,6.0689,6.1501,6.1028,6.0486,6.0689,6.0994,6.0757,6.008,5.9471,5.8829,5.7983,5.7881,5.7881,5.7983,5.8524,5.9302,6.0017,6.0732,6.1588,6.2421,6.277,6.3042,6.3346,6.4393,6.5465,6.6192,6.5971,6.5779,6.5784,6.5752,6.5716,6.594,6.6344,6.6852,6.7311,6.7597,6.8182,6.8767,6.9477,6.9894,7.0441,7.1267,7.1963,7.1977,7.213,7.2649,7.307,7.3617,7.4077,7.4732,7.54,7.6019,7.6381,7.6529,7.6927,7.7468,7.8046,7.8588,5.7881,5.7881,5.7881,5.7881,5.7881,5.7881,5.7881,5.7881,5.7881,5.7881,5.7881,5.7881,5.7881,5.7881,5.7881,5.7881,5.7881,5.7881,5.7881,5.7881,5.7881,5.7881,5.7881,5.7881,5.7881,5.7881,5.7881,5.7881,5.7881,5.7881,5.7881,5.7881,5.7881,5.7881,5.7881,5.7881,5.7881,5.7881,5.7881,5.7881,5.7881,5.7881,5.7881,5.7881,5.7881,5.7881,5.8084,5.8592,5.8964,5.9235,6.0047,6.0791,6.096,6.1467,6.1907,6.1873,6.1637,6.1772,6.2144,6.167,6.1467,6.1231,6.1231,6.0723,5.9844,5.9539,5.9066,5.7983,5.7881,5.7881,5.7881,5.8186,5.8727,5.9438,6.0283,6.1066,6.182,6.2329,6.2693,6.2966,6.3271,6.4288,6.5237,6.5365,6.5169,6.5138,6.5105,6.5072,6.5497,6.613,6.6707,6.7378,6.7579,6.7835,6.8449,6.9108,6.931,6.9843,7.0843,7.1326,7.1252,7.1447,7.2103,7.2547,7.2959,7.342,7.3849,7.4645,7.5442,7.5768,7.5985,7.6456,7.6927,7.747,7.8193,5.7881,5.7881,5.7881,5.7881,5.7881,5.7881,5.7881,5.7881,5.7881,5.7881,5.7881,5.7881,5.7881,5.7881,5.7881,5.7881,5.7881,5.7881,5.7845,5.7845,5.7808,5.7772,5.7735,5.7735,5.7735,5.7772,5.7772,5.7808,5.7808,5.7881,5.7881,5.7881,5.7881,5.7881,5.7881,5.7881,5.7881,5.7881,5.7881,5.7881,5.7881,5.7881,5.7881,5.7881,5.7881,5.7983,5.8254,5.8896,5.9302,5.9911,6.0858,6.1569,6.167,6.1975,6.2279,6.2279,6.2178,6.2212,6.2381,6.2212,6.2076,6.1772,6.1501,6.1163,6.008,6.0013,5.9674,5.8355,5.7949,5.7915,5.7881,5.7915,5.8389,5.9066,5.9776,6.0452,6.1197,6.1946,6.2498,6.277,6.3004,6.3121,6.397,6.4531,6.4634,6.4566,6.4497,6.4428,6.5039,6.5784,6.6253,6.6852,6.6801,6.6881,6.7302,6.7964,6.8364,6.9187,7.0121,7.0654,7.0513,7.1072,7.1903,7.2205,7.2403,7.2486,7.2794,7.3849,7.4866,7.5297,7.5659,7.5985,7.642,7.7,7.7615,5.7881,5.7881,5.7881,5.7881,5.7881,5.7881,5.7881,5.7881,5.7881,5.7881,5.7881,5.7881,5.7881,5.7881,5.7881,5.7881,5.7881,5.7881,5.7772,5.7662,5.7625,5.7551,5.7476,5.7439,5.7402,5.7439,5.7551,5.7625,5.7662,5.7735,5.7845,5.7881,5.7881,5.7881,5.7881,5.7881,5.7881,5.7881,5.7881,5.7881,5.7881,5.7881,5.7881,5.7881,5.7949,5.8186,5.8863,5.9505,6.008,6.0689,6.1637,6.2144,6.2178,6.2279,6.2415,6.2415,6.2415,6.2415,6.2415,6.2415,6.2381,6.2313,6.2144,6.1806,6.0858,6.0317,5.9742,5.8964,5.8355,5.7983,5.7915,5.7949,5.8254,5.8761,5.9471,6.025,6.1061,6.1907,6.243,6.2581,6.277,6.2889,6.3004,6.3608,6.4005,6.3969,6.4004,6.4003,6.4772,6.5433,6.5657,6.594,6.5784,6.5725,6.5732,6.6316,6.7239,6.8096,6.9014,6.9527,6.9738,7.0575,7.1744,7.1822,7.1978,7.1806,7.1847,7.2834,7.3816,7.4721,7.5334,7.5696,7.6167,7.6782,7.7181,5.7808,5.7698,5.7698,5.7772,5.7881,5.7881,5.7881,5.7881,5.7881,5.7881,5.7881,5.7881,5.7881,5.7881,5.7881,5.7808,5.7735,5.7845,5.7662,5.7551,5.7514,5.7476,5.7364,5.7289,5.7327,5.7289,5.7402,5.7402,5.7439,5.7551,5.7514,5.7588,5.7735,5.7881,5.7881,5.7881,5.7881,5.7881,5.7881,5.7881,5.7881,5.7881,5.7881,5.7881,5.7881,5.7983,5.8423,5.9505,6.0114,6.0791,6.1772,6.2212,6.2415,6.2415,6.2415,6.2415,6.2415,6.2415,6.2415,6.2415,6.2415,6.2415,6.2347,6.2076,6.1434,6.096,6.0148,5.9404,5.8761,5.8389,5.7949,5.7915,5.8084,5.8558,5.9201,6.0047,6.0825,6.1637,6.2318,6.2503,6.2537,6.2576,6.2654,6.2774,6.3155,6.3346,6.3454,6.3675,6.4428,6.5008,6.5204,6.54,6.5267,6.5169,6.5174,6.5675,6.6231,6.7034,6.7909,6.8662,6.9321,7.0646,7.1589,7.1589,7.1625,7.163,7.178,7.2074,7.2762,7.3704,7.4645,7.5478,7.5985,7.6565,7.6891,5.7772,5.7588,5.7588,5.7625,5.7698,5.7735,5.7698,5.7735,5.7698,5.7772,5.7808,5.7845,5.7881,5.7881,5.7881,5.7772,5.7698,5.7698,5.7514,5.7402,5.7327,5.7289,5.7176,5.7101,5.7063,5.7139,5.7214,5.7214,5.7214,5.7289,5.7327,5.7439,5.7551,5.7698,5.7808,5.7881,5.7881,5.7881,5.7881,5.7881,5.7881,5.7881,5.7881,5.7881,5.7881,5.8118,5.8558,5.9505,6.0216,6.0858,6.1637,6.2279,6.2415,6.2415,6.2415,6.2415,6.2415,6.2415,6.2415,6.2415,6.2415,6.2415,6.2415,6.211,6.1738,6.1434,6.0689,6.0013,5.9404,5.8795,5.822,5.8118,5.7949,5.8287,5.8998,5.9776,6.0419,6.1197,6.1839,6.2352,6.2386,6.242,6.2459,6.2576,6.2847,6.3117,6.3305,6.3454,6.3823,6.4323,6.4669,6.4838,6.4937,6.4836,6.4803,6.4976,6.5184,6.5772,6.6746,6.8187,6.9129,7.0509,7.1427,7.1526,7.1562,7.1494,7.1639,7.1857,7.2219,7.269,7.3885,7.5261,7.5913,7.6456,7.6565,5.7772,5.7588,5.7588,5.7476,5.7327,5.7327,5.7364,5.7402,5.7364,5.7439,5.7625,5.7772,5.7845,5.7845,5.7808,5.7662,5.7551,5.7551,5.7402,5.7101,5.7101,5.6949,5.6734,5.6663,5.6502,5.6729,5.6739,5.6787,5.6925,5.7105,5.7181,5.7252,5.7327,5.7476,5.7625,5.7808,5.7881,5.7881,5.7881,5.7881,5.7881,5.7881,5.7881,5.7881,5.7881,5.8118,5.8626,5.9539,6.0283,6.0892,6.1806,6.2347,6.2415,6.2415,6.2415,6.2415,6.2415,6.2415,6.2415,6.2415,6.2415,6.2415,6.2415,6.2313,6.2178,6.1806,6.1298,6.0689,6.0013,5.9302,5.8795,5.8423,5.8152,5.8254,5.8964,5.9539,6.0182,6.0926,6.1637,6.2245,6.2381,6.2415,6.2415,6.2459,6.2654,6.2885,6.3152,6.3343,6.3565,6.3714,6.404,6.4218,6.4358,6.4148,6.3971,6.3935,6.4145,6.4708,6.5827,6.7492,6.8941,7.0306,7.1006,7.139,7.1494,7.1494,7.1494,7.1531,7.2038,7.2617,7.3885,7.508,7.5804,7.6311,7.6456,5.7402,5.7214,5.7214,5.7101,5.6949,5.7214,5.7289,5.7327,5.7327,5.7327,5.7402,5.7476,5.7514,5.7514,5.748,5.7335,5.7218,5.7364,5.7176,5.6768,5.6811,5.6469,5.6188,5.5951,5.5752,5.5521,5.5696,5.6098,5.6027,5.6478,5.6844,5.6911,5.6963,5.7289,5.7514,5.7698,5.7735,5.7881,5.7881,5.7881,5.7881,5.7881,5.7881,5.7881,5.7881,5.8051,5.8423,5.9404,6.025,6.0757,6.1637,6.2347,6.2415,6.2415,6.2415,6.2415,6.2415,6.2415,6.2415,6.2415,6.2415,6.2415,6.2415,6.2415,6.2313,6.2212,6.1806,6.14,6.0791,6.0182,5.9776,5.9066,5.8761,5.8693,5.9167,5.9505,6.008,6.0858,6.1569,6.211,6.2415,6.2415,6.2415,6.2415,6.2537,6.2615,6.2847,6.3114,6.3305,6.323,6.3346,6.3531,6.357,6.3348,6.3199,6.3311,6.3459,6.3852,6.5443,6.7367,6.8794,6.9976,7.0906,7.1463,7.1463,7.1494,7.1399,7.144,7.1933,7.2726,7.3667,7.4612,7.5406,7.5949,7.6311,5.7252,5.6987,5.6987,5.6872,5.6757,5.6987,5.7101,5.7101,5.7176,5.7214,5.7214,5.7252,5.7327,5.726,5.7022,5.6809,5.6625,5.64,5.6296,5.5956,5.6032,5.5662,5.5322,5.5185,5.5019,5.4688,5.4854,5.5218,5.5256,5.5686,5.6022,5.626,5.643,5.6829,5.7156,5.7439,5.7551,5.7662,5.7698,5.7772,5.7772,5.7772,5.7808,5.7845,5.7845,5.7842,5.8287,5.9099,6.0114,6.052,6.1366,6.2347,6.2415,6.2415,6.2415,6.2415,6.2415,6.2415,6.2415,6.2415,6.2415,6.2415,6.2415,6.2415,6.2415,6.2347,6.2144,6.1806,6.1501,6.1095,6.052,5.9776,5.9167,5.9133,5.893,5.9235,5.9674,6.0419,6.1129,6.1704,6.2381,6.2381,6.2415,6.2415,6.2454,6.2459,6.2537,6.2808,6.3038,6.2962,6.2923,6.3042,6.308,6.2889,6.2851,6.2893,6.3007,6.3117,6.4903,6.6989,6.818,6.9334,7.044,7.1368,7.1207,7.1074,7.1139,7.1352,7.1729,7.2187,7.2871,7.3849,7.483,7.5551,7.613,5.7364,5.7025,5.6987,5.6872,5.6752,5.6719,5.6719,5.6719,5.6911,5.6987,5.6987,5.7176,5.7147,5.7051,5.6516,5.6066,5.5784,5.5218,5.4974,5.4763,5.4962,5.4659,5.456,5.4423,5.4295,5.4361,5.4423,5.4456,5.4456,5.4858,5.5189,5.5454,5.5587,5.6108,5.6625,5.6976,5.7122,5.7335,5.7514,5.7588,5.7588,5.7588,5.7662,5.7698,5.7698,5.7735,5.8281,5.9197,5.9911,6.0588,6.1535,6.211,6.2415,6.2415,6.2415,6.2415,6.2415,6.2415,6.2415,6.2415,6.2415,6.2381,6.2279,6.2347,6.2415,6.2415,6.2279,6.211,6.1839,6.1603,6.1231,6.0283,5.937,5.8998,5.8524,5.8795,5.9133,5.9776,6.0486,6.1231,6.2042,6.2313,6.2381,6.2415,6.2415,6.2454,6.2459,6.2537,6.2731,6.2731,6.2693,6.2731,6.2731,6.2537,6.2537,6.262,6.2931,6.3115,6.4618,6.6479,6.7586,6.8785,7.0145,7.0911,7.0711,7.0609,7.0778,7.1009,7.1372,7.187,7.244,7.3378,7.4464,7.537,7.5949,5.7025,5.6796,5.6796,5.6757,5.6719,5.668,5.668,5.6719,5.6757,5.6796,5.6796,5.6834,5.6578,5.607,5.5871,5.5401,5.5036,5.4734,5.4597,5.446,5.4262,5.4096,5.3897,5.3699,5.3434,5.3367,5.3467,5.3732,5.3827,5.4129,5.446,5.4787,5.4787,5.5326,5.5762,5.607,5.6558,5.7047,5.726,5.7364,5.7402,5.7402,5.7476,5.7476,5.7551,5.7588,5.7999,5.9261,5.9941,6.0385,6.1603,6.2347,6.2415,6.2415,6.2415,6.2415,6.2415,6.2415,6.2415,6.2415,6.2415,6.2279,6.197,6.2009,6.2178,6.2308,6.2308,6.2212,6.2144,6.1975,6.1637,6.0858,6.0013,5.9438,5.8896,5.8592,5.893,5.9235,6.0013,6.1163,6.1941,6.2347,6.2381,6.2415,6.2415,6.2415,6.242,6.2459,6.2459,6.2498,6.2537,6.2576,6.2537,6.2454,6.2415,6.2498,6.2832,6.3317,6.4649,6.5911,6.7069,6.8361,6.9879,7.0474,7.0303,7.0337,7.0475,7.0745,7.1009,7.1621,7.2187,7.3092,7.403,7.4935,7.5623,5.6872,5.6719,5.668,5.668,5.668,5.668,5.668,5.668,5.668,5.6581,5.6282,5.6249,5.5852,5.5189,5.4858,5.446,5.4063,5.3702,5.3533,5.3533,5.3765,5.3367,5.3102,5.3003,5.2804,5.2672,5.2738,5.3003,5.3169,5.34,5.3732,5.4026,5.4063,5.449,5.499,5.526,5.57,5.6387,5.6901,5.711,5.7176,5.7176,5.7214,5.7289,5.7364,5.7402,5.7715,5.9182,5.9865,6.0241,6.1491,6.2347,6.2415,6.2415,6.2415,6.2415,6.2415,6.2415,6.2415,6.2415,6.2415,6.2201,6.1627,6.1528,6.1654,6.1801,6.206,6.2212,6.2313,6.2279,6.1907,6.1467,6.0791,6.0114,5.9336,5.8592,5.8693,5.8863,5.9844,6.1095,6.1772,6.2245,6.2415,6.2415,6.2415,6.2415,6.2415,6.2454,6.242,6.242,6.2459,6.2498,6.2459,6.2415,6.2415,6.2415,6.2651,6.3199,6.4177,6.5412,6.657,6.7686,6.8951,6.9636,6.999,6.992,6.9707,7.0268,7.068,7.1228,7.1733,7.244,7.3382,7.4504,7.508,5.6872,5.668,5.668,5.668,5.668,5.668,5.6647,5.6614,5.6547,5.6249,5.5681,5.5587,5.5085,5.4423,5.3927,5.3599,5.3268,5.2904,5.2771,5.244,5.2672,5.2605,5.2572,5.2409,5.2509,5.2442,5.2475,5.2605,5.2475,5.2672,5.3036,5.3334,5.3334,5.3732,5.4328,5.4427,5.4862,5.5601,5.6312,5.6749,5.6954,5.7025,5.7063,5.7176,5.7139,5.7168,5.7796,5.8719,5.9809,6.0497,6.1283,6.2347,6.2415,6.2183,6.2183,6.2263,6.2223,6.2263,6.2223,6.2223,6.2144,6.1837,6.1332,6.0796,6.0705,6.0943,6.1239,6.181,6.1911,6.2183,6.1959,6.1395,6.0723,6.0047,5.9302,5.8592,5.8287,5.8693,5.9607,6.0723,6.1501,6.1941,6.2415,6.2415,6.2415,6.2415,6.2415,6.2415,6.2415,6.2415,6.242,6.242,6.242,6.2415,6.2415,6.2415,6.2516,6.3063,6.4023,6.4896,6.6028,6.7025,6.7945,6.86,6.9163,6.894,6.8903,6.9383,6.9955,7.0647,7.1159,7.1733,7.2662,7.3783,7.4395,5.6872,5.668,5.668,5.668,5.668,5.668,5.6349,5.5885,5.5885,5.5714,5.5516,5.499,5.4361,5.3699,5.3467,5.3135,5.2672,5.2539,5.2442,5.2409,5.2409,5.2409,5.2409,5.2409,5.2409,5.2409,5.2409,5.2409,5.2409,5.2442,5.2475,5.2638,5.2705,5.3102,5.3632,5.3699,5.4063,5.4792,5.5393,5.6198,5.6663,5.6762,5.6796,5.6872,5.6872,5.7396,5.8055,5.9089,6.0155,6.1018,6.1834,6.2313,6.2415,6.175,6.179,6.2144,6.1676,6.1676,6.183,6.1635,6.1391,6.0671,6.0017,5.9562,5.95,5.9824,6.0328,6.0962,6.1513,6.187,6.1908,6.1283,6.0655,5.9979,5.9268,5.8626,5.7949,5.866,5.9438,6.0216,6.1061,6.167,6.2178,6.2381,6.2415,6.2415,6.2415,6.2415,6.2415,6.2415,6.2415,6.242,6.242,6.2415,6.2415,6.2482,6.2584,6.3159,6.4045,6.485,6.5623,6.6856,6.8014,6.8014,6.825,6.8211,6.8211,6.8289,6.8903,6.9743,7.0577,7.1159,7.1669,7.2601,7.328,5.6796,5.668,5.668,5.668,5.6647,5.6349,5.5984,5.5516,5.4887,5.4589,5.4556,5.4125,5.3632,5.3036,5.297,5.287,5.2442,5.2409,5.2409,5.2409,5.2409,5.2409,5.2409,5.2409,5.2409,5.2409,5.2409,5.2409,5.2409,5.2409,5.2409,5.2409,5.2442,5.2572,5.297,5.3036,5.3334,5.3997,5.4456,5.5222,5.6117,5.6448,5.6647,5.6757,5.6934,5.7453,5.8246,5.9175,6.0141,6.1109,6.1936,6.1923,6.179,6.1309,6.1069,6.0945,6.0694,6.0609,6.0861,6.0778,6.0397,5.9716,5.8982,5.869,5.8531,5.887,5.9137,5.9805,6.0945,6.1432,6.1508,6.1065,6.0671,6.0114,5.937,5.866,5.8389,5.8592,5.9099,5.9505,6.0452,6.14,6.1873,6.2279,6.2313,6.2415,6.2415,6.2415,6.2415,6.2415,6.2415,6.2415,6.2415,6.2415,6.2415,6.2516,6.2685,6.3362,6.4106,6.5101,6.6045,6.713,6.8014,6.7776,6.769,6.7771,6.7771,6.7771,6.8054,6.879,6.9707,7.0613,7.106,7.1467,7.2037,5.668,5.668,5.668,5.668,5.6581,5.5951,5.5516,5.5218,5.4063,5.34,5.3367,5.3334,5.287,5.2572,5.2373,5.2409,5.2409,5.2409,5.2409,5.2409,5.2409,5.2409,5.2409,5.2409,5.2409,5.2409,5.2409,5.2409,5.2409,5.2409,5.2409,5.2409,5.2409,5.2409,5.2409,5.2475,5.2771,5.3202,5.3732,5.4328,5.5222,5.6183,5.6448,5.6614,5.6785,5.726,5.8153,5.9053,6.0019,6.0869,6.1694,6.138,6.0903,6.0407,6.0237,5.9968,5.9663,5.9663,5.9751,5.9631,5.9455,5.9157,5.8423,5.7932,5.7777,5.7839,5.8085,5.8818,5.9935,6.0754,6.0878,6.0919,6.0572,6.0148,5.9404,5.866,5.8558,5.849,5.8693,5.8964,5.9844,6.0892,6.1535,6.1941,6.2178,6.2279,6.2381,6.2415,6.2415,6.2415,6.2415,6.2415,6.2415,6.2415,6.2415,6.2482,6.2651,6.3396,6.4174,6.5324,6.6321,6.708,6.7407,6.7195,6.7154,6.7319,6.74,6.74,6.7731,6.8093,6.8714,6.9636,7.0545,7.0888,7.0949,5.668,5.668,5.668,5.668,5.6581,5.5918,5.5251,5.4626,5.3831,5.3135,5.2738,5.2605,5.2473,5.2409,5.2409,5.2409,5.2409,5.2409,5.2409,5.2409,5.2409,5.2409,5.2409,5.2409,5.2409,5.2409,5.2409,5.2409,5.2409,5.2409,5.2409,5.2409,5.2409,5.2409,5.2409,5.2442,5.2509,5.2804,5.3202,5.3831,5.4523,5.5421,5.615,5.6415,5.6713,5.7698,5.8619,5.9287,6.0388,6.1193,6.1339,6.0745,6.0065,5.9411,5.9177,5.9056,5.8728,5.8818,5.8863,5.8683,5.8546,5.8286,5.7574,5.6916,5.6743,5.665,5.7011,5.7417,5.8546,5.9762,6.0083,6.0349,6.0165,5.9746,5.9201,5.8524,5.8118,5.8186,5.8321,5.8693,5.9235,6.0216,6.1061,6.1467,6.1839,6.2042,6.2347,6.2381,6.2415,6.2415,6.2415,6.2415,6.2415,6.2415,6.2415,6.2415,6.2651,6.3396,6.4309,6.5527,6.6339,6.6677,6.6854,6.6854,6.6854,6.698,6.7022,6.7071,6.736,6.7731,6.7975,6.8638,6.96,7.0199,7.0165]}]]